[[{"header":{"parameterUnit":"m.s-1","parameterCategory":1,"la1":30.6,"la2":29.2853,"lo1":-89.7004,"lo2":-87.6739,"dy":0.0162,"dx":0.0183,"nx":112,"ny":82,"refTime":"2023-06-19T06:00:00:Z","depth":0,"parameterNumber":2,"parameterNumberName":"U-component_of_WINDS"},"data":[0.0,0.0,0.0,0.0,0.0,0.0,0.0,0.0,0.0,0.0,0.0,0.0,0.0,0.0,0.0,0.0,0.0,0.0,0.0,0.0,0.0,0.0,0.0,0.0,0.0,0.0,0.0,0.0,0.0,0.0,0.0,0.0,0.0,0.0,0.0,0.0,0.0,0.0,0.0,0.0,0.0,0.0,0.0,0.0,0.0,0.0,0.0,0.0,0.0,0.0,0.0,0.0,0.0,0.0,0.0,0.0,0.0,0.0,0.0,0.0,0.0,0.0,0.0,0.0,0.0,0.0,0.0,0.0,0.0,0.0,0.0,0.0,0.0,0.0,0.0,0.0,0.0,0.0,0.0,0.0,0.0,0.0,0.0,0.0,0.0,0.0,0.0,0.0,0.0,0.0,0.0,-6.8126,-7.9173,-8.7076,-8.9601,-8.8326,-8.2528,-7.1111,0.0,0.0,0.0,0.0,0.0,0.0,0.0,0.0,0.0,0.0,0.0,0.0,0.0,0.0,0.0,0.0,0.0,0.0,0.0,0.0,0.0,0.0,0.0,0.0,0.0,0.0,0.0,0.0,0.0,0.0,0.0,0.0,0.0,0.0,0.0,0.0,0.0,0.0,0.0,0.0,0.0,0.0,0.0,0.0,0.0,0.0,0.0,0.0,0.0,0.0,0.0,0.0,0.0,0.0,0.0,0.0,0.0,0.0,0.0,0.0,0.0,0.0,0.0,0.0,0.0,0.0,0.0,0.0,0.0,0.0,0.0,0.0,0.0,0.0,0.0,0.0,0.0,0.0,0.0,0.0,0.0,0.0,0.0,0.0,0.0,0.0,0.0,0.0,0.0,0.0,0.0,0.0,0.0,0.0,0.0,0.0,0.0,0.0,0.0,0.0,0.0,0.0,0.0,0.0,-6.3252,-7.649,-8.3265,-8.7402,-8.8871,-8.6532,-8.0823,-7.1001,0.0,0.0,0.0,0.0,0.0,0.0,0.0,0.0,0.0,0.0,0.0,0.0,0.0,0.0,0.0,0.0,0.0,0.0,0.0,0.0,0.0,0.0,0.0,0.0,0.0,0.0,0.0,0.0,0.0,0.0,0.0,0.0,0.0,0.0,0.0,0.0,0.0,0.0,0.0,0.0,0.0,0.0,0.0,0.0,0.0,0.0,0.0,0.0,0.0,0.0,0.0,0.0,0.0,0.0,0.0,0.0,0.0,0.0,0.0,0.0,0.0,0.0,0.0,0.0,0.0,0.0,0.0,0.0,0.0,0.0,0.0,0.0,0.0,0.0,0.0,0.0,0.0,0.0,0.0,0.0,0.0,0.0,0.0,0.0,0.0,0.0,0.0,0.0,0.0,0.0,0.0,0.0,0.0,0.0,0.0,0.0,0.0,0.0,0.0,0.0,0.0,0.0,0.0,-6.0781,-6.7957,-7.9932,-8.4678,-8.733,-8.8106,-8.584,-8.0209,-7.0374,-6.6243,0.0,0.0,0.0,0.0,0.0,0.0,0.0,0.0,0.0,0.0,0.0,0.0,0.0,0.0,0.0,0.0,0.0,0.0,0.0,0.0,0.0,0.0,0.0,0.0,0.0,0.0,0.0,0.0,0.0,0.0,0.0,0.0,0.0,0.0,0.0,0.0,0.0,0.0,0.0,0.0,0.0,0.0,0.0,0.0,0.0,0.0,0.0,0.0,0.0,0.0,0.0,0.0,0.0,0.0,0.0,0.0,0.0,0.0,0.0,0.0,0.0,0.0,0.0,0.0,0.0,0.0,0.0,0.0,0.0,0.0,0.0,0.0,0.0,0.0,0.0,0.0,0.0,0.0,0.0,0.0,0.0,0.0,0.0,0.0,0.0,0.0,0.0,0.0,0.0,0.0,0.0,0.0,0.0,0.0,0.0,0.0,0.0,0.0,0.0,0.0,0.0,0.0,-6.6018,-7.2038,-8.1056,-8.4678,-8.6677,-8.7194,-8.387,-7.8092,-6.9426,-6.3513,0.0,0.0,0.0,0.0,0.0,0.0,0.0,0.0,0.0,0.0,0.0,0.0,0.0,0.0,0.0,0.0,0.0,0.0,0.0,0.0,0.0,0.0,0.0,0.0,0.0,0.0,0.0,0.0,0.0,0.0,0.0,0.0,0.0,0.0,0.0,0.0,0.0,0.0,0.0,0.0,0.0,0.0,0.0,0.0,0.0,0.0,0.0,0.0,0.0,0.0,0.0,0.0,0.0,0.0,0.0,0.0,0.0,0.0,0.0,0.0,0.0,0.0,0.0,0.0,0.0,0.0,0.0,0.0,0.0,0.0,0.0,0.0,0.0,0.0,0.0,0.0,0.0,0.0,0.0,0.0,0.0,0.0,0.0,0.0,0.0,0.0,0.0,0.0,0.0,0.0,0.0,0.0,0.0,0.0,0.0,0.0,0.0,0.0,0.0,0.0,0.0,0.0,-6.5975,-7.3016,-8.0404,-8.3374,-8.5223,-8.6136,-7.8869,-7.2446,-6.8168,-5.8929,0.0,0.0,0.0,0.0,0.0,0.0,0.0,0.0,0.0,0.0,0.0,0.0,0.0,0.0,0.0,0.0,0.0,0.0,0.0,0.0,0.0,0.0,0.0,0.0,0.0,0.0,0.0,0.0,0.0,0.0,0.0,0.0,0.0,0.0,0.0,0.0,0.0,0.0,0.0,0.0,0.0,0.0,0.0,0.0,0.0,0.0,0.0,0.0,0.0,0.0,0.0,0.0,0.0,0.0,0.0,0.0,0.0,0.0,0.0,0.0,0.0,0.0,0.0,0.0,0.0,0.0,0.0,0.0,0.0,0.0,0.0,0.0,0.0,0.0,0.0,0.0,0.0,0.0,0.0,0.0,0.0,0.0,0.0,0.0,0.0,0.0,0.0,0.0,0.0,0.0,0.0,0.0,0.0,0.0,0.0,0.0,0.0,0.0,0.0,0.0,0.0,0.0,-6.5511,-7.24,0.0,-8.2505,-8.4136,-8.4646,-8.0451,-7.4684,-6.7473,0.0,0.0,0.0,0.0,0.0,0.0,0.0,0.0,0.0,0.0,0.0,0.0,0.0,0.0,0.0,0.0,0.0,0.0,0.0,0.0,0.0,0.0,0.0,0.0,0.0,0.0,0.0,0.0,0.0,0.0,0.0,0.0,0.0,0.0,0.0,0.0,0.0,0.0,0.0,0.0,0.0,0.0,0.0,0.0,0.0,0.0,0.0,0.0,0.0,0.0,0.0,0.0,0.0,0.0,0.0,0.0,0.0,0.0,0.0,0.0,0.0,0.0,0.0,0.0,0.0,0.0,0.0,0.0,0.0,0.0,0.0,0.0,0.0,0.0,0.0,0.0,0.0,0.0,0.0,0.0,0.0,0.0,0.0,0.0,0.0,0.0,0.0,0.0,0.0,0.0,0.0,0.0,0.0,0.0,0.0,0.0,0.0,0.0,0.0,0.0,0.0,0.0,-5.8373,-6.483,-7.1458,0.0,-8.1056,-8.2541,-8.2903,-7.9008,-7.3508,-6.6496,0.0,0.0,0.0,0.0,0.0,0.0,0.0,0.0,0.0,0.0,0.0,0.0,0.0,0.0,0.0,0.0,0.0,0.0,0.0,0.0,0.0,0.0,0.0,0.0,0.0,0.0,0.0,0.0,0.0,0.0,0.0,0.0,0.0,0.0,0.0,0.0,0.0,0.0,0.0,0.0,0.0,0.0,0.0,0.0,0.0,0.0,0.0,0.0,0.0,0.0,0.0,0.0,0.0,0.0,0.0,0.0,0.0,0.0,0.0,0.0,0.0,0.0,0.0,0.0,0.0,0.0,0.0,0.0,0.0,0.0,0.0,0.0,0.0,0.0,0.0,0.0,0.0,0.0,0.0,0.0,0.0,0.0,0.0,0.0,0.0,0.0,0.0,0.0,0.0,0.0,0.0,0.0,0.0,0.0,0.0,0.0,0.0,0.0,0.0,0.0,0.0,0.0,-5.7637,-6.4033,-7.0444,-7.6818,-7.8919,-8.0223,-8.102,-7.3212,-6.7344,0.0,0.0,0.0,0.0,0.0,0.0,0.0,0.0,0.0,0.0,0.0,0.0,0.0,0.0,0.0,0.0,0.0,0.0,0.0,0.0,0.0,0.0,0.0,0.0,0.0,0.0,0.0,0.0,0.0,0.0,0.0,0.0,0.0,0.0,0.0,0.0,0.0,0.0,0.0,0.0,0.0,0.0,0.0,0.0,0.0,0.0,0.0,0.0,0.0,0.0,0.0,0.0,0.0,0.0,0.0,0.0,0.0,0.0,0.0,0.0,0.0,0.0,0.0,0.0,0.0,0.0,0.0,0.0,0.0,0.0,0.0,0.0,0.0,0.0,0.0,0.0,0.0,0.0,0.0,0.0,0.0,0.0,0.0,0.0,0.0,0.0,0.0,0.0,0.0,0.0,0.0,0.0,0.0,0.0,0.0,0.0,0.0,0.0,0.0,0.0,0.0,0.0,0.0,-5.781,-6.4062,-7.0227,-7.6022,-7.7579,-7.8521,-7.9354,-7.5644,-7.089,-6.5277,0.0,0.0,0.0,0.0,0.0,0.0,0.0,0.0,0.0,0.0,0.0,0.0,0.0,0.0,0.0,0.0,0.0,0.0,0.0,0.0,0.0,0.0,0.0,0.0,0.0,0.0,0.0,0.0,0.0,0.0,0.0,0.0,0.0,0.0,0.0,0.0,0.0,0.0,0.0,0.0,0.0,0.0,0.0,0.0,0.0,0.0,0.0,0.0,0.0,0.0,0.0,0.0,0.0,0.0,0.0,0.0,0.0,0.0,0.0,0.0,0.0,0.0,0.0,0.0,0.0,0.0,0.0,0.0,0.0,0.0,0.0,0.0,0.0,0.0,0.0,0.0,0.0,0.0,0.0,0.0,0.0,0.0,0.0,0.0,0.0,0.0,0.0,0.0,0.0,0.0,0.0,0.0,0.0,0.0,0.0,0.0,0.0,0.0,0.0,0.0,0.0,0.0,-5.7388,-6.3329,-6.9068,-7.4283,-7.5587,-7.6275,-7.6746,-7.5288,-7.1344,-6.4329,0.0,0.0,0.0,0.0,0.0,0.0,0.0,0.0,0.0,0.0,0.0,0.0,0.0,0.0,0.0,0.0,0.0,0.0,0.0,0.0,0.0,0.0,0.0,0.0,0.0,0.0,0.0,0.0,0.0,0.0,0.0,0.0,0.0,0.0,0.0,0.0,0.0,0.0,0.0,0.0,0.0,0.0,0.0,0.0,0.0,0.0,0.0,0.0,0.0,0.0,0.0,0.0,0.0,0.0,0.0,0.0,0.0,0.0,0.0,0.0,0.0,0.0,0.0,0.0,0.0,0.0,0.0,0.0,0.0,0.0,0.0,0.0,0.0,0.0,0.0,0.0,0.0,0.0,0.0,0.0,0.0,0.0,0.0,0.0,0.0,0.0,0.0,0.0,0.0,0.0,0.0,0.0,0.0,0.0,0.0,0.0,0.0,0.0,0.0,0.0,0.0,0.0,-5.6734,-6.2305,-6.751,-7.2219,-7.3378,-7.3849,-7.3921,-7.3088,-6.9703,-6.292,0.0,0.0,0.0,0.0,0.0,0.0,0.0,0.0,0.0,0.0,0.0,0.0,0.0,0.0,0.0,0.0,0.0,0.0,0.0,0.0,0.0,0.0,0.0,0.0,0.0,0.0,0.0,0.0,0.0,0.0,0.0,0.0,0.0,0.0,0.0,0.0,0.0,0.0,0.0,0.0,0.0,0.0,0.0,0.0,0.0,0.0,0.0,0.0,0.0,0.0,0.0,0.0,0.0,0.0,0.0,0.0,0.0,0.0,0.0,0.0,-5.0614,0.0,0.0,0.0,0.0,0.0,0.0,0.0,0.0,0.0,0.0,0.0,0.0,0.0,0.0,0.0,0.0,0.0,0.0,0.0,0.0,0.0,0.0,0.0,0.0,0.0,0.0,0.0,0.0,0.0,0.0,0.0,0.0,0.0,0.0,0.0,0.0,0.0,0.0,0.0,0.0,0.0,-5.7642,-6.3147,-6.8126,-7.2255,-7.2871,-7.3233,-7.3849,-7.2581,-6.9564,-6.4447,-6.0223,0.0,0.0,0.0,0.0,0.0,0.0,0.0,0.0,0.0,0.0,0.0,0.0,0.0,0.0,0.0,0.0,0.0,0.0,0.0,0.0,0.0,0.0,0.0,0.0,0.0,0.0,0.0,0.0,0.0,0.0,0.0,0.0,0.0,0.0,0.0,0.0,0.0,0.0,0.0,0.0,0.0,0.0,0.0,0.0,0.0,0.0,0.0,0.0,0.0,0.0,0.0,0.0,0.0,0.0,0.0,0.0,0.0,0.0,0.0,0.0,-5.4416,0.0,0.0,0.0,0.0,0.0,0.0,0.0,0.0,0.0,0.0,0.0,0.0,0.0,0.0,0.0,0.0,0.0,0.0,0.0,0.0,0.0,0.0,0.0,0.0,0.0,0.0,0.0,0.0,0.0,0.0,0.0,0.0,0.0,0.0,0.0,0.0,0.0,0.0,0.0,0.0,-5.8362,-6.3032,-6.7281,-7.1042,-7.1209,-7.1168,-7.1603,-7.0879,-6.8585,-6.4274,-6.1323,0.0,0.0,0.0,0.0,0.0,0.0,0.0,0.0,0.0,0.0,0.0,0.0,0.0,0.0,0.0,0.0,0.0,0.0,0.0,0.0,0.0,0.0,0.0,0.0,0.0,0.0,0.0,0.0,0.0,0.0,0.0,0.0,0.0,0.0,0.0,0.0,0.0,0.0,0.0,0.0,0.0,0.0,0.0,0.0,0.0,0.0,0.0,0.0,0.0,0.0,0.0,0.0,0.0,-6.0333,-6.2169,-6.5203,-6.4962,-6.5286,-6.5789,-6.2705,-6.149,-6.1551,0.0,0.0,0.0,0.0,0.0,0.0,0.0,0.0,0.0,0.0,0.0,0.0,0.0,0.0,0.0,0.0,0.0,0.0,0.0,0.0,0.0,0.0,0.0,0.0,0.0,-6.1948,-6.0994,0.0,0.0,0.0,0.0,0.0,0.0,0.0,0.0,0.0,0.0,0.0,0.0,-5.9032,-6.2896,-6.6397,-6.9548,-6.9513,-6.9237,-6.9237,-6.9129,-6.7491,-6.3866,-6.2567,-6.0088,0.0,0.0,0.0,0.0,0.0,0.0,0.0,0.0,0.0,0.0,0.0,0.0,0.0,0.0,0.0,0.0,0.0,0.0,0.0,0.0,0.0,0.0,0.0,0.0,0.0,0.0,0.0,0.0,0.0,0.0,0.0,0.0,-3.4492,-3.9329,0.0,0.0,0.0,0.0,0.0,0.0,0.0,0.0,0.0,0.0,0.0,0.0,0.0,-5.5619,-5.8225,-6.1928,-6.404,-6.4604,-6.7171,-6.8998,-7.0009,-6.9943,-7.0622,-7.1804,-7.2171,0.0,-6.2735,-6.094,0.0,0.0,0.0,0.0,0.0,0.0,0.0,0.0,0.0,0.0,0.0,0.0,0.0,0.0,0.0,0.0,0.0,0.0,0.0,0.0,0.0,0.0,-6.3803,-6.2984,-6.4632,-6.5576,0.0,-5.9206,-5.6071,-5.3077,-5.1237,0.0,0.0,0.0,0.0,0.0,0.0,0.0,-5.9761,-6.4136,-6.7438,-6.8899,-6.9243,-6.9358,-6.9358,-6.8734,-6.7208,-6.462,-6.2295,-6.0076,-5.8072,-5.446,0.0,0.0,0.0,0.0,0.0,0.0,0.0,0.0,0.0,0.0,0.0,0.0,0.0,0.0,0.0,0.0,0.0,0.0,0.0,0.0,0.0,0.0,0.0,0.0,0.0,0.0,0.0,0.0,0.0,-2.9583,-3.8448,-4.2181,-4.5298,-4.6501,0.0,0.0,0.0,0.0,0.0,0.0,0.0,0.0,0.0,-5.6433,-5.8906,-6.1362,-6.3772,-6.6419,-6.8496,-6.9951,-7.0858,-7.2171,-7.3742,-7.3742,-7.3902,-7.4287,-7.5149,-7.315,-6.9216,-6.6892,-6.4418,-6.1903,0.0,0.0,0.0,0.0,-6.1098,-6.2409,-6.5014,-6.6568,0.0,-6.6292,0.0,0.0,0.0,0.0,0.0,0.0,0.0,0.0,0.0,0.0,-6.6183,-6.5712,-6.6868,-6.7625,-6.5901,-6.3302,-6.016,0.0,-5.5742,-5.4425,-5.0792,0.0,0.0,0.0,0.0,0.0,-6.1239,-6.4191,-6.6485,-6.8043,-6.7721,-6.7382,-6.7469,-6.6684,-6.5347,-6.3385,-6.1724,-6.0112,-5.8558,-5.5897,-5.4132,0.0,0.0,0.0,0.0,0.0,0.0,0.0,0.0,0.0,0.0,0.0,0.0,0.0,0.0,0.0,0.0,0.0,0.0,0.0,0.0,0.0,0.0,0.0,0.0,0.0,0.0,0.0,0.0,-3.5617,-4.2206,-4.538,-4.9533,-5.1228,0.0,0.0,0.0,0.0,0.0,0.0,-5.3489,-5.5581,-5.8434,-6.2204,-6.4367,-6.6629,-6.907,-7.0325,-7.1963,-7.4078,-7.3682,-7.4504,-7.6395,-7.6395,-7.6344,-7.6212,-7.6688,-7.6271,-7.4922,-7.1791,-6.9216,-6.7132,-6.5168,-6.4159,-6.401,-6.5772,-6.6852,-6.7845,-7.0858,-7.2241,-7.2398,-7.0911,0.0,-6.8367,-6.4721,0.0,0.0,0.0,0.0,-6.42,-6.6091,-6.7341,-6.8052,-6.7922,-6.8419,-6.864,-6.7565,-6.6115,-6.3836,0.0,-5.9318,-5.831,-5.4221,0.0,0.0,0.0,0.0,-5.8562,-6.2267,-6.4023,-6.5554,-6.722,-6.6482,-6.5904,-6.6035,-6.4831,-6.3548,-6.2311,-6.0953,-5.9605,-5.8319,-5.6611,-5.5292,-5.4337,0.0,0.0,0.0,0.0,0.0,0.0,0.0,0.0,0.0,0.0,0.0,0.0,0.0,0.0,0.0,0.0,0.0,0.0,0.0,0.0,0.0,0.0,0.0,0.0,0.0,0.0,0.0,0.0,0.0,-5.0954,-5.5458,0.0,0.0,0.0,0.0,-5.3013,-5.4574,-5.6661,-5.9242,-6.2116,-6.5014,-6.7961,-6.9451,-7.1248,-7.3582,-7.43,-7.5018,-7.5796,-7.6295,-7.6923,-7.7711,-7.7711,-7.8041,-7.8639,-7.8669,-7.831,-7.7341,-7.3399,-7.0947,-6.9568,-6.7939,-6.7296,-6.7427,-6.8753,-7.0125,-7.1536,-7.3583,-7.4336,-7.4563,-7.5709,-7.4147,-7.1735,-7.0862,-6.9148,0.0,0.0,-6.8246,-6.8568,-6.9272,-6.9808,-6.986,-6.8901,-6.9146,-6.9082,-6.7091,-6.6942,-6.6204,0.0,-6.0715,-5.8907,-5.6334,0.0,-5.6421,-5.6773,-5.8173,-6.0007,-6.2314,-6.3956,-6.5341,-6.6427,-6.6206,-6.6035,-6.6198,-6.3935,-6.247,-6.2397,-5.9953,-5.813,-5.7297,-5.5862,-5.5073,-5.5139,-5.1359,0.0,0.0,0.0,0.0,0.0,0.0,0.0,0.0,0.0,0.0,0.0,0.0,0.0,0.0,0.0,0.0,0.0,0.0,0.0,0.0,0.0,0.0,0.0,0.0,0.0,0.0,0.0,0.0,-5.6745,-6.0675,0.0,0.0,-5.9581,-5.9732,-6.0589,-6.1439,-6.3353,-6.677,-6.8151,-6.9856,-7.2187,-7.3759,-7.4731,-7.5198,-7.6245,-7.6664,-7.6514,-7.6724,-7.6963,-7.7203,-7.7622,-7.7921,-7.819,-7.8609,-7.843,-7.7682,-7.5816,-7.4436,-7.3393,-7.3227,-7.3081,-7.307,-7.4172,-7.5159,-7.6003,-7.5815,-7.6058,-7.6269,-7.5433,-7.3977,-7.2477,-7.2006,-7.1183,-7.046,-7.1026,-7.1082,-7.106,-7.1314,-7.1288,-7.0866,-6.9332,-6.9133,-6.872,-6.6627,-6.611,-6.5532,-6.3755,-6.2518,-6.1114,-5.9137,-5.8125,-5.7813,-5.8518,-5.9182,-6.06,-6.3344,-6.4386,-6.5193,-6.5967,-6.5549,-6.5104,-6.4867,-6.2457,-6.0711,-6.0124,-5.8214,-5.6746,-5.5946,-5.5411,-5.4761,-5.3939,-5.2468,-5.0481,0.0,0.0,0.0,0.0,0.0,0.0,0.0,0.0,0.0,0.0,0.0,0.0,0.0,0.0,0.0,0.0,0.0,0.0,0.0,0.0,0.0,0.0,0.0,0.0,0.0,0.0,-5.7948,-6.0992,-6.4746,-6.6372,-6.4421,-6.4896,-6.5719,-6.6638,-6.7486,-6.9246,-7.2264,-7.2892,-7.3929,-7.5419,-7.6763,-7.7293,-7.6874,-7.7711,-7.7872,-7.7314,-7.7453,-7.7524,-7.7525,-7.7973,-7.8202,-7.8374,-7.8681,-7.8669,-7.843,-7.7532,-7.6763,-7.6163,-7.6163,-7.6175,-7.6361,-7.7271,-7.8064,-7.8556,-7.7688,-7.7439,-7.7335,-7.5991,-7.4715,-7.3707,-7.3805,-7.3571,-7.3251,-7.3475,-7.3315,-7.309,-7.2722,-7.2027,-7.1098,-6.9618,-6.8911,-6.8107,-6.6369,-6.5778,-6.5372,-6.451,-6.3772,-6.2801,-6.1295,-6.0397,-5.9985,-6.0224,-6.0472,-6.1503,-6.3723,-6.4428,-6.4923,-6.5481,-6.5,-6.4366,-6.3734,-6.1507,-5.9688,-5.8555,-5.6658,-5.5226,-5.441,-5.3908,-5.3376,-5.2758,-5.2166,-5.0851,-4.8842,0.0,0.0,0.0,0.0,0.0,0.0,0.0,0.0,0.0,0.0,0.0,0.0,0.0,0.0,0.0,0.0,0.0,0.0,0.0,0.0,0.0,0.0,0.0,-5.1948,-5.8336,-6.3266,-6.3803,-6.7771,-6.9428,-6.7008,-6.9067,-7.072,-7.1086,-7.2578,-7.409,-7.5328,-7.6334,-7.7173,-7.7831,-7.8519,-7.8849,-7.8789,-7.8819,-7.8735,-7.8398,-7.8675,-7.8859,-7.8929,-7.8817,-7.9005,-7.9363,-7.8933,-7.9178,-7.9686,-7.834,-7.7801,-7.7652,-7.6425,-7.64,-7.7047,-7.7684,-7.8406,-7.9028,-7.904,-7.834,-7.7528,-7.7839,-7.6785,-7.5619,-7.6582,-7.6554,-7.6135,-7.5427,-7.4943,-7.4555,-7.3543,-7.2052,-7.0592,-6.9833,-6.8599,-6.7261,-6.6095,-6.6065,-6.5902,-6.477,-6.4222,-6.3692,-6.2668,-6.2859,-6.2794,-6.1862,-6.2104,0.0,-6.342,-6.4004,-6.4524,-6.4931,-6.4527,-6.3866,-6.284,-6.1141,-5.942,-5.781,-5.5354,-5.3608,-5.2806,-5.138,-5.1005,-5.1846,-5.0431,-4.9721,-4.9684,0.0,0.0,0.0,0.0,0.0,0.0,0.0,0.0,0.0,0.0,0.0,0.0,0.0,0.0,0.0,0.0,0.0,0.0,0.0,0.0,0.0,0.0,-5.9003,-5.867,-6.3475,-6.7686,-6.9358,-7.1963,-7.3337,-7.2551,-7.3625,-7.4714,-7.5454,-7.5746,-7.6464,-7.7778,-7.8089,-7.834,-7.8519,-8.0105,-8.0255,-7.8789,-7.9746,-7.9635,-7.8398,-7.899,-7.9173,-7.8959,-7.9132,-7.9291,-7.9363,-7.8933,-7.8878,-7.8998,-7.816,-7.7532,-7.7053,-7.7004,-7.6969,-7.7115,-7.7988,-7.7826,-7.7349,-7.8048,-7.7308,-7.6114,-7.6419,-7.637,-7.6069,-7.59,-7.6053,-7.6135,-7.5427,-7.4405,-7.3417,-7.2632,-7.1164,-6.9574,-6.8572,-6.8048,-6.7087,-6.4752,-6.4721,-6.4706,-6.3339,-6.3544,-6.3692,-6.2668,-6.2333,-6.2103,-6.1721,-6.1951,0.0,-6.357,-6.3588,-6.3712,-6.4219,-6.3783,-6.3021,-6.2022,-5.9881,-5.7867,-5.6164,-5.3829,-5.2401,-5.2075,-5.1763,-5.2013,-5.2884,-5.2565,-5.2954,0.0,0.0,0.0,0.0,0.0,0.0,0.0,0.0,0.0,0.0,0.0,0.0,0.0,0.0,0.0,0.0,0.0,0.0,0.0,0.0,0.0,0.0,-6.1043,-6.5113,-6.6032,-6.8598,-7.0951,-7.2468,-7.3831,-7.4793,-7.5139,-7.5706,-7.6442,-7.7414,-7.7711,-7.8363,-7.9567,-7.9772,-8.0115,-8.0434,-8.1572,-8.1512,-8.0045,-8.0701,-8.0363,-7.9032,-7.9395,-7.9597,-7.9476,-7.9446,-7.9505,0.0,-7.9305,-7.9387,-7.9567,-7.8609,-7.8082,0.0,0.0,0.0,0.0,0.0,-7.8072,-7.7268,-7.7801,-7.7215,-7.6108,-7.6006,-7.587,-7.5669,-7.5088,-7.5272,-7.5481,-7.4566,-7.3527,-7.2497,-7.1821,-7.0129,-6.8412,-6.7766,-6.6951,-6.5878,-6.4336,-6.4127,-6.4014,-6.3303,-6.37,0.0,-6.297,-6.2585,-6.2203,-6.1795,-6.1951,-6.2469,-6.3346,-6.3094,-6.306,-6.353,-6.2781,-6.1969,-6.1104,-5.9148,0.0,0.0,0.0,-5.2344,-5.1956,-5.1981,0.0,0.0,0.0,-5.479,-5.6402,0.0,0.0,0.0,-5.7446,-5.8503,0.0,0.0,0.0,0.0,0.0,0.0,0.0,0.0,0.0,0.0,0.0,0.0,0.0,0.0,0.0,0.0,-6.7145,-7.0355,-7.2774,-7.3133,-7.3343,-7.3873,-7.4296,-7.4882,-7.5826,-7.6244,-7.6901,-7.7812,-7.8768,-7.9743,-8.0598,0.0,0.0,0.0,0.0,-8.229,-8.1572,-8.1433,-8.0864,-7.986,-7.9971,-8.0047,-8.0179,-7.9688,-7.9647,-7.986,-7.9707,-8.0075,-8.0584,-7.9387,-7.9095,-7.9343,-7.7835,-7.7175,-7.7129,-7.8445,-7.8495,-7.796,-7.7803,0.0,0.0,-7.6193,-7.5561,-7.4925,-7.4521,-7.4556,-7.4491,-7.3385,-7.2594,-7.1939,-7.1134,-6.9186,-6.7427,-6.7202,-6.5582,-6.4207,-6.4176,-6.3853,-6.3593,-6.3764,-6.4049,-6.4105,-6.3356,-6.3242,-6.2993,-6.2014,-6.2192,-6.2561,-6.2885,-6.2513,-6.2405,-6.2801,0.0,0.0,-6.0261,-5.8867,-5.7285,-5.5559,-5.398,-5.2831,-5.216,-5.2401,-5.3236,-5.4683,-5.4979,-5.5866,-5.7343,-5.8245,-5.9501,-6.1052,-6.07,-6.1789,0.0,0.0,0.0,0.0,0.0,0.0,0.0,0.0,0.0,0.0,0.0,0.0,0.0,0.0,0.0,-6.6455,-7.0119,-7.3046,-7.4338,-7.448,-7.4471,-7.4248,-7.5258,-7.5983,-7.5796,-7.6912,-7.7884,-7.8659,-7.888,-7.9194,-7.9653,-8.0225,0.0,-8.0375,-8.1422,-8.1392,-8.0225,-8.0982,-8.0936,-7.99,0.0,0.0,-8.0894,-8.0151,-7.983,-7.983,-7.9268,-7.9387,-7.9986,-7.9716,-7.9659,-7.9577,-7.7494,-7.6793,-7.7033,-7.7319,-7.7284,-7.7149,-7.6619,-7.665,-7.6856,-7.6193,-7.5908,-7.5656,-7.4956,-7.459,0.0,-7.3084,-7.2462,-7.1843,-7.0764,-6.9297,-6.763,-6.5869,-6.4706,-6.3591,-6.1892,-6.2496,-6.3186,-6.2659,-6.3473,-6.4118,-6.3629,-6.3669,-6.3617,-6.2984,-6.2649,-6.246,-6.2454,-6.1847,-6.1537,-6.186,-6.1127,-6.0539,-6.0212,-5.8938,-5.7199,-5.4859,-5.3285,-5.2387,-5.2279,-5.4226,-5.5192,-5.4859,-5.6747,-5.7931,-5.8264,-5.9656,-6.1163,-6.2728,-6.2523,-6.3027,0.0,0.0,0.0,0.0,0.0,0.0,0.0,0.0,0.0,0.0,0.0,-6.0326,0.0,0.0,-6.9627,-7.1487,-7.3768,-7.5254,-7.518,-7.5278,-7.533,-7.514,-7.5584,-7.6099,-7.6524,-7.7098,-7.7836,-7.8838,-7.8764,-7.902,-7.9815,-8.0049,-8.0357,-8.0764,-8.1452,-8.1526,-8.1089,-8.1787,-8.1638,-8.073,-8.1152,-8.1387,-8.1597,-8.0392,-8.0111,-8.0392,-7.9867,-7.9797,-8.0098,-7.9882,-7.9445,-7.8777,-7.7514,-7.6993,-7.6985,-7.6811,-7.6672,-7.6494,-7.6307,-7.6554,-7.6856,-7.6193,-7.6003,-7.5782,-7.4707,-7.4119,-7.3645,-7.2932,-7.2151,-7.1359,-7.0591,-6.9043,-6.7327,-6.5902,-6.4218,-6.2728,-6.2152,-6.2126,-6.226,-6.2317,-6.2905,-6.3395,-6.344,-6.3621,-6.3484,-6.2616,-6.2378,-6.2216,-6.2018,-6.1449,-6.1293,-6.182,-6.0594,-5.9861,-6.0151,-5.8676,-5.6977,-5.5318,-5.4494,-5.4149,-5.4209,-5.5825,-5.6533,-5.6203,-5.7798,-5.8614,-5.8614,-6.0218,-6.1419,-6.2211,-6.2872,-6.4008,0.0,0.0,0.0,0.0,0.0,0.0,0.0,0.0,-5.7493,-6.1894,-6.43,-6.6824,-7.0688,-7.2625,-7.4178,-7.5741,-7.6598,-7.6743,-7.564,-7.5752,-7.5873,-7.5713,-7.5685,-7.598,-7.6947,-7.6864,-7.7281,-7.862,-7.8406,-7.875,-8.0049,-7.9839,-8.0241,-8.1407,-8.1512,-8.1855,-8.2347,-8.2595,-8.2292,-8.1532,-8.1801,-8.1849,-8.1771,-8.0462,-8.0252,-8.0771,-8.0588,-8.0399,-8.032,-7.996,-7.9162,-7.8148,-7.7752,-7.7355,-7.6923,-7.6634,-7.6272,-7.6089,-7.6368,-7.6833,-7.7046,-7.6316,-7.6092,-7.5807,-7.4346,-7.3537,-7.3122,-7.27,-7.1852,-7.0908,-7.0494,-6.8816,-6.6971,-6.6096,-6.3797,-6.1997,-6.2724,-6.1902,-6.1207,-6.2016,-6.2289,-6.2495,-6.286,-6.3146,-6.3097,-6.2388,-6.2243,-6.2122,-6.1929,-6.1287,-6.1046,-6.1697,-6.0161,-5.9266,-5.981,-5.817,-5.6783,-5.6018,-5.5755,-5.5628,-5.5643,-5.636,-5.692,-5.7269,-5.8087,-5.8591,-5.876,-6.0412,-6.123,-6.1289,-6.2732,-6.4544,-5.7228,-5.3925,0.0,-5.5717,-5.5664,-5.7094,0.0,0.0,-6.6934,-7.1585,-7.3616,-7.4557,-7.4497,-7.6343,-7.7386,-7.6142,-7.677,-7.7118,-7.6075,-7.5954,-7.5674,-7.5092,-7.582,-7.6172,-7.578,-7.5951,-7.6669,-7.8021,-7.7499,-7.7723,-7.908,-7.908,-7.9334,-7.9986,-8.0614,-8.1405,-8.2377,-8.214,-8.1805,-8.1501,-8.1309,-8.1002,-8.0701,-8.0111,-7.9971,-8.0072,-8.0588,-8.0557,-7.991,-7.9607,-7.9365,-7.9193,-7.8216,-7.7521,-7.6923,-7.6634,-7.6272,-7.6089,-7.6368,-7.7148,-7.774,-7.6684,-7.6331,-7.601,-7.4263,-7.3259,-7.2668,-7.2292,-7.1628,-7.0908,-7.0494,-6.8816,-6.6841,-6.5481,-6.3441,-6.1705,-6.141,-6.0881,-6.0584,-6.0863,-6.1432,-6.184,-6.1721,-6.2101,-6.2749,-6.3825,-6.3171,-6.254,-6.2582,-6.1371,-6.0491,-6.0261,-5.9672,-5.9103,-5.8629,-5.7471,-5.6617,-5.6297,-5.5237,-5.4478,-5.4053,-5.4535,-5.5353,-5.6476,-5.7315,-5.8137,-5.8965,-6.0522,-6.1342,-6.1483,-6.2925,-6.4067,-6.2165,0.0,0.0,0.0,-6.2895,-6.512,-6.9945,-7.0923,-7.1867,-7.5601,-7.6811,-7.7182,-7.7013,-7.7857,-7.8009,0.0,-7.6768,-7.6926,-7.6051,-7.5922,-7.5632,-7.4794,-7.5208,-7.5246,-7.4378,-7.4638,-7.523,-7.6184,-7.6173,-7.6793,-7.8261,-7.8144,-7.876,-8.0315,-8.0895,-8.183,-8.3343,-8.3429,-8.3322,-8.3102,-8.2516,-8.2175,-8.2042,-8.081,-8.0252,-8.0252,-8.0121,-7.9908,-7.9633,-7.9098,-7.8689,-7.8315,-7.827,-7.7636,-7.6724,-7.6736,-7.6212,-7.5464,-7.6049,-7.6319,-7.643,-7.5978,-7.5587,-7.5188,-7.3855,-7.3075,-7.2636,-7.226,-7.1474,-7.0696,-7.0252,-6.853,-6.6741,-6.5853,-6.3793,-6.1898,-6.1403,-6.0902,-6.0544,-6.049,-6.0978,-6.1471,-6.1653,-6.2081,-6.2586,-6.3182,-6.2607,-6.2101,-6.1956,-6.0939,-5.9803,-5.8657,-5.8815,-5.8543,-5.7363,-5.7,-5.658,-5.608,-5.5607,-5.5032,-5.436,-5.504,-5.5512,-5.5695,-5.7021,-5.7918,-5.8312,-5.9895,-6.0961,-6.1525,-6.2577,-6.3475,-6.4345,0.0,0.0,-6.5794,-6.8855,-7.166,-7.2947,-7.4518,-7.6496,-7.8992,-7.9077,-7.8685,-7.8801,-7.8108,0.0,-7.5977,-7.6296,-7.6481,-7.5739,-7.5859,-7.5348,-7.368,-7.3596,-7.3197,-7.2241,-7.3135,-7.3999,-7.4676,-7.4847,-7.5678,-7.7563,-7.7672,-7.8588,-8.0612,-8.1516,-8.2729,-8.4454,-8.4612,-8.4626,-8.4567,-8.3385,-8.2781,-8.2713,-8.1155,-8.0492,-8.0462,-7.9889,-7.956,-7.9346,-7.8536,-7.8023,-7.7723,-7.8396,-7.8154,-7.7385,-7.7616,-7.6745,-7.5462,-7.5633,-7.5677,-7.5592,-7.5078,-7.4735,-7.4356,-7.3379,-7.3011,-7.2889,-7.2444,-7.157,-7.0696,-7.0167,-6.8318,-6.6497,-6.6177,-6.4229,-6.2268,-6.1741,-6.1076,-6.0454,-5.9908,-6.0207,-6.0572,-6.0891,-6.1293,-6.162,-6.1612,-6.1405,-6.131,-6.1567,-6.0564,-5.9278,-5.7755,-5.7746,-5.745,-5.6489,-5.6506,-5.627,-5.5586,-5.557,-5.5242,-5.4546,-5.5084,-5.5391,-5.5287,-5.6557,-5.7436,-5.7978,-5.9306,-6.0541,-6.1666,-6.2633,-6.3371,0.0,0.0,-6.5118,-6.9232,-7.2583,-7.5384,-7.7319,-7.9631,-8.1767,-8.3144,-8.1889,-8.0321,-7.9695,-7.7142,-7.4892,-7.4184,-7.5199,-7.5815,-7.5105,-7.56,-7.4769,-7.1413,-7.0459,-6.9782,0.0,-7.1444,-7.3291,-7.3968,-7.3713,-7.4489,-7.6804,-7.7854,-7.8971,-8.0357,-8.2352,-8.4125,-8.5564,-8.4994,-8.4887,-8.5263,-8.3135,-8.1938,-8.1597,-8.084,-8.0492,-8.0462,-8.0165,-7.9724,-7.901,-7.7937,-7.7698,-7.8026,-7.877,-7.9285,-7.953,-7.9531,-7.8219,-7.6334,-7.5283,-7.555,-7.6069,-7.432,-7.3924,-7.3914,-7.2886,-7.3026,-7.3447,-7.2681,-7.1937,-7.1225,-7.0598,-6.8298,-6.6129,-6.6096,-6.4445,-6.2755,-6.2301,-6.1251,-6.006,-5.8905,-5.8845,-5.8885,-5.8716,-5.9103,-5.9369,-5.9387,-5.9599,-6.0316,-6.1885,-6.0531,-5.9012,-5.7898,-5.629,-5.5568,-5.6164,-5.5902,-5.546,-5.4773,-5.4757,-5.4509,-5.4038,-5.3793,-5.4261,-5.5555,-5.5648,-5.6561,-5.8374,-5.9007,-6.0248,-6.2015,-6.3433,-6.4016,0.0,0.0,-6.9984,-7.4417,-7.7308,-7.96,-8.1658,-8.2776,-8.316,-8.2586,-8.0016,-7.7088,-7.4514,-7.1984,-7.046,-7.0893,-7.2305,-7.3659,-7.4541,-7.5071,-7.4245,-7.1259,-7.1105,0.0,0.0,0.0,0.0,-7.2181,-7.2955,-7.4323,-7.6494,-7.7926,-7.9845,-8.2394,-8.3388,-8.4944,-8.7109,-8.6673,-8.6545,-8.6691,-8.4039,-8.2244,-8.1255,-8.0979,-8.091,-8.0848,-7.9841,-7.9324,-7.9016,-7.7714,-7.7354,-7.7775,-7.8986,-7.9503,-7.9591,-7.963,-7.9288,-7.8596,-7.6353,-7.5624,-7.5406,-7.4107,-7.3362,-7.2962,-7.2369,-7.2186,-7.1981,-7.1134,-7.0236,-6.9379,-6.8912,-6.7523,-6.6185,-6.5883,-6.4833,-6.3492,-6.2097,-6.1055,-6.005,-5.8996,-5.8609,-5.8437,-5.8568,-5.8995,-5.9229,-5.91,-5.9396,-5.9255,-5.8243,-5.783,-5.6794,-5.4635,-5.471,-5.4768,-5.4388,-5.4619,-5.4591,-5.4104,-5.4086,-5.4033,-5.3869,-5.387,-5.4166,-5.4784,-5.5467,-5.6116,-5.6731,-5.8058,-5.9266,-6.0377,-6.1976,-6.2833,-7.021,-7.2234,-7.3827,-7.8242,-8.0777,-8.2556,-8.3899,-8.409,-8.3378,-8.1324,-7.7676,-7.3718,-7.0181,-6.6831,-6.5355,-6.7461,-6.8956,-7.0707,-7.3223,-7.3811,-7.3168,-7.1136,-7.1105,0.0,0.0,0.0,0.0,-7.1844,-7.3096,-7.4741,-7.7037,-7.8207,-8.0218,-8.3204,-8.4053,-8.5369,-8.7039,-8.7267,-8.6907,-8.5815,-8.378,-8.2177,-8.1048,-8.0832,-8.0863,-8.1017,-7.994,-7.9324,-7.9016,-7.801,-7.7714,-7.8003,-7.9448,-8.0088,-8.0354,-8.0452,-8.0552,-8.0206,-7.6912,-7.564,-7.5168,-7.3924,-7.3067,-7.239,-7.1971,-7.1992,-7.1981,-7.0845,-7.0076,-6.9411,-6.8997,-6.7734,-6.6474,-6.5996,-6.5222,-6.4128,-6.2431,-6.1751,-6.1001,-5.9568,-5.9004,-5.8725,-5.8807,-5.8873,-5.8773,-5.8185,-5.784,-5.7444,-5.6924,-5.5795,-5.4541,-5.3237,-5.3132,-5.325,-5.3424,-5.3674,-5.3802,-5.3812,-5.3926,-5.4,-5.4,-5.4125,-5.43,-5.4543,-5.5185,-5.5665,-5.6015,-5.7175,-5.837,-5.9601,-6.1054,-6.2108,-7.2881,-7.5112,-7.6764,-8.0837,-8.31,-8.4315,-8.4251,-8.3816,-8.2541,-7.9422,-7.4859,-7.0278,0.0,0.0,-5.9901,-6.408,-6.5411,-6.7381,-7.1444,-7.2091,-7.1844,0.0,0.0,0.0,0.0,0.0,0.0,-7.3136,0.0,-7.5626,-7.8367,-7.8798,-8.0211,-8.3018,-8.4544,-8.5408,-8.5738,-8.6795,-8.5916,-8.3102,-8.2421,-8.174,-8.1048,-8.0402,-8.0463,-8.1048,-8.0432,-7.9755,-7.9114,-7.8769,-7.8591,-7.8723,-8.0063,-8.1014,-8.1707,-8.2035,-8.1949,-8.0998,-7.7023,-7.5704,-7.5547,-7.3738,-7.2875,-7.2346,-7.1634,-7.2346,-7.3124,-7.1646,-7.1258,-7.1096,-7.0416,-6.8701,-6.7003,-6.6242,-6.553,-6.4639,-6.3246,-6.3186,-6.2704,-6.0478,-5.9788,-5.94,-5.9061,-5.8494,-5.7729,-5.6538,-5.5011,-5.4991,-5.7716,-5.4594,-5.2525,-5.3542,-5.1632,-5.1165,-5.3278,-5.3148,-5.3197,-5.3795,-5.418,-5.4426,-5.4426,-5.4472,-5.4603,-5.4783,-5.4799,-5.5261,-5.6133,-5.6441,-5.7602,-5.9585,-6.0654,-6.1751,-7.7301,-8.0061,-8.191,-8.442,-8.5802,-8.6086,-8.4445,-8.3128,-8.055,-7.4603,-6.9246,-6.4369,0.0,0.0,0.0,-6.1783,-6.4823,0.0,-7.2152,-7.3599,0.0,-7.2583,0.0,-7.3137,-7.3535,-7.3861,0.0,0.0,-7.5298,-7.555,-7.9046,-8.016,-8.209,-8.4925,-8.5905,-8.6795,-8.773,-8.7026,-8.5761,-8.3888,-8.2441,-8.1507,-8.1117,-8.0644,-8.0737,-8.1048,-8.0894,-8.0292,-7.9481,-7.9362,-7.9075,-7.8749,-8.007,-8.0926,-8.1373,-8.2008,-8.182,-8.0998,-7.9125,-7.7768,-7.6541,-7.4253,-7.3077,-7.2346,-7.1634,-7.131,-7.0966,-6.9821,-6.9511,-6.9298,-6.8383,-6.7521,-6.6706,-6.5996,-6.5546,-6.4993,-6.3933,-6.3793,-6.3329,-6.1664,-5.9455,-5.7634,-5.6824,-5.5937,-5.5231,-5.4732,-5.3551,-5.3291,-5.4703,-5.3732,-5.2657,-5.2059,-5.1905,-5.2112,-5.2763,-5.3256,-5.3739,-5.4282,-5.4489,-5.4625,-5.4625,-5.4689,-5.4752,-5.4799,-5.486,-5.4966,-5.5223,-5.5951,-5.6866,-5.7937,-5.94,-6.045,-8.106,-8.3605,-8.5223,-8.6823,-8.7028,-8.6079,-8.3224,-8.0221,-7.6045,-6.8913,-6.3563,0.0,0.0,0.0,0.0,0.0,0.0,0.0,-7.0981,-7.3138,-7.416,0.0,-7.4461,0.0,-7.6286,-7.6992,-7.8154,0.0,-7.827,-7.8254,-8.0983,-8.1763,-8.3107,-8.5222,-8.598,-8.6758,-8.7522,-8.58,-8.4357,-8.3248,-8.2099,-8.1497,-8.1323,-8.0983,-8.1045,-8.1323,0.0,-8.065,-7.9614,-7.9747,-7.9302,-7.8753,-7.9919,-8.0488,-8.0807,-8.1502,-8.1312,-8.0554,-7.9636,-7.8451,-7.7078,-7.5022,-7.3633,-7.2542,-7.1322,-7.0695,-7.019,-6.9343,-6.8839,-6.853,-6.8312,-6.759,-6.6805,-6.6046,-6.5546,-6.4978,-6.4038,-6.3793,-6.3237,-6.1215,-5.884,-5.6824,-5.5961,-5.544,-5.4832,-5.3825,-5.2966,-5.2516,-5.2825,-5.238,-5.1841,-5.1386,-5.1573,-5.1971,-5.2481,-5.304,-5.3714,-5.45,-5.4683,-5.4632,-5.4216,-5.464,-5.4693,-5.4315,-5.4701,-5.492,-5.492,-5.5754,-5.661,-5.7359,-5.8597,-5.9708,-8.3792,-8.5986,-8.7304,-8.805,-8.72,-8.5103,-8.1028,-7.6214,-7.05,-6.3245,0.0,-5.4219,-5.0808,0.0,-5.1161,-5.6692,0.0,-6.3963,-6.9573,-7.2367,-7.4176,-7.5333,-7.6261,-7.7662,-7.9716,-8.0133,-8.087,-8.2404,-8.2103,-8.2212,-8.3196,-8.3328,-8.3876,-8.5137,-8.5647,-8.6051,-8.6305,-8.4217,-8.2767,-8.2064,-8.1615,-8.1411,-8.1566,-8.1289,-8.1284,-8.1597,0.0,0.0,-7.9681,-7.9981,-7.9497,-7.8754,-7.97,-8.0111,-8.0175,-8.0933,-8.0744,-8.0017,-7.9448,-7.8528,-7.7309,-7.5759,-7.4317,-7.2883,-7.1152,-7.0643,-7.05,-6.9561,-6.8914,-6.859,-6.9011,-6.8169,-6.7003,-6.629,-6.5546,-6.4738,-6.3789,-6.3451,-6.255,-6.0198,-5.8281,-5.6788,-5.5946,-5.5992,-5.5436,-5.3545,-5.3006,-5.2501,-5.1869,-5.1186,-5.0923,-5.1315,-5.1115,-5.1369,-5.2417,-5.286,-5.3532,-5.4544,-5.4791,-5.4579,-5.385,-5.4518,-5.4632,-5.4063,-5.4617,-5.4943,-5.5072,-5.5716,-5.6512,-5.7422,-5.8062,-5.9228,-8.3866,-8.6645,-8.8354,-8.7705,-8.6832,-8.4573,-7.8477,-7.2828,0.0,0.0,0.0,-5.0847,-4.8557,-4.8268,0.0,-5.6626,0.0,0.0,0.0,0.0,-7.6557,0.0,0.0,0.0,0.0,0.0,0.0,0.0,0.0,0.0,-8.358,-8.4094,-8.5429,-8.776,-8.6785,-8.6252,-8.6305,-8.4204,-8.2838,-8.2064,-8.0619,-8.0544,-8.1566,-8.1253,-8.1284,-8.1597,-8.1597,0.0,-7.9981,-8.0047,-7.9658,-7.9101,-7.9827,-8.0111,-8.0175,-8.0933,-8.0744,-8.008,-7.9985,-7.9005,-7.7611,-7.591,-7.4715,-7.372,-7.2175,-7.1907,-7.1731,-6.982,-6.9626,-6.9788,-6.8655,-6.778,-6.7003,-6.629,-6.5546,-6.4738,-6.3789,-6.2537,-6.1306,-6.0578,-5.8924,-5.729,-5.6104,-5.5905,-5.5429,-5.4005,-5.3743,-5.3177,-5.1712,-5.1694,-5.1827,-5.208,-5.1287,-5.1384,-5.2846,-5.335,-5.3867,-5.4581,-5.4791,-5.4866,-5.4843,-5.4938,-5.5251,-5.5858,-5.5223,-5.5254,-5.5981,-5.5405,-5.5913,-5.7384,-5.752,-5.8457,-8.4377,-8.7212,-8.9386,-8.8144,-8.613,-8.2751,-7.6159,0.0,0.0,0.0,0.0,-4.8067,-4.6975,0.0,0.0,0.0,0.0,0.0,0.0,0.0,0.0,0.0,0.0,0.0,0.0,0.0,0.0,0.0,0.0,0.0,-8.501,-8.5301,-8.6093,-8.7304,-8.595,-8.5272,-8.546,-8.3237,-8.207,-8.2047,-8.0978,-8.104,-8.2141,-8.2231,-8.2164,-8.2141,-8.1766,0.0,-8.0344,-7.9969,-7.957,-7.9132,-7.9448,-7.9606,-7.9574,-7.9543,-7.9635,-7.9688,-7.9565,-7.8926,-7.7995,-7.7038,-7.5624,-7.394,-7.2035,-7.107,-7.0357,-6.9057,-6.8719,-6.8655,-6.8298,-6.7424,-6.655,-6.6193,-6.4899,-6.3546,-6.2987,-6.1658,-6.0348,-5.9722,-5.847,-5.713,-5.6081,-5.5954,-5.5457,-5.3893,-5.356,-5.3029,-5.1514,-5.1254,-5.1328,-5.1572,-5.1605,-5.1906,-5.2554,-5.3581,-5.428,-5.4538,-5.4776,-5.4766,-5.4504,-5.4898,-5.5275,-5.5607,-5.523,-5.5413,-5.6209,-5.5329,-5.5746,-5.7384,-5.7384,-5.8246,-8.4329,-8.6989,-8.9416,-8.8224,-8.5061,-8.0432,-7.3707,-6.5891,0.0,0.0,-4.8389,-4.6012,-4.5827,0.0,0.0,0.0,0.0,0.0,0.0,0.0,0.0,0.0,0.0,0.0,0.0,0.0,0.0,0.0,0.0,0.0,-8.7082,-8.6542,-8.6518,-8.7109,-8.5439,-8.4603,-8.4667,-8.2584,-8.1621,-8.1848,-8.1299,-8.151,-8.2356,-8.2856,-8.2789,-8.2293,-8.1736,0.0,0.0,-7.9663,-7.9258,-7.91,-7.91,-7.9225,-7.9349,-7.853,-7.8796,-7.957,-7.9312,-7.8955,-7.8608,-7.8276,-7.6641,-7.4371,-7.2224,-7.0844,-6.9827,-6.8928,-6.8319,-6.7914,-6.8154,-6.7262,-6.6258,-6.5967,-6.4239,-6.2617,-6.2488,-6.1288,-5.9978,-5.8934,-5.7751,-5.6711,-5.6075,-5.605,-5.5659,-5.41,-5.3662,-5.2997,-5.1448,-5.102,-5.0953,-5.1181,-5.1811,-5.23,-5.2511,-5.3634,-5.4378,-5.4371,-5.4629,-5.4442,-5.3666,-5.4457,-5.4964,-5.5042,-5.5403,-5.589,-5.6467,-5.5784,-5.6125,-5.7384,-5.7573,-5.8375,-8.2816,-8.5303,-8.73,-8.6887,-8.3285,-7.8014,-7.0759,0.0,0.0,-5.0759,-4.7254,-4.5243,-4.5123,-4.5045,-4.6117,0.0,0.0,0.0,0.0,0.0,0.0,0.0,0.0,0.0,0.0,0.0,0.0,0.0,0.0,0.0,0.0,-8.7423,-8.731,-8.9675,-8.7106,-8.533,-8.4667,-8.3503,-8.2296,-8.109,-8.103,-8.1061,-8.1303,-8.2229,-8.2098,-8.1272,-8.0851,0.0,0.0,-7.8941,-7.8817,-7.91,-7.91,-7.9629,-8.0239,-7.9317,-7.9515,-8.0191,-7.9978,-7.9874,-7.9639,-7.9024,-7.7666,-7.5873,-7.3994,-7.3576,-7.3201,-7.0831,-7.0134,-6.9813,-6.8531,-6.7651,-6.6744,-6.5448,-6.4095,-6.3132,-6.3112,-6.2137,-6.0766,-5.8996,-5.7238,-5.6044,-5.6098,-5.6213,-5.6105,-5.5495,-5.4959,-5.385,-5.1756,-5.1866,-5.2133,-5.2167,-5.17,-5.1968,-5.3326,-5.3542,-5.3719,-5.4055,-5.4296,-5.3943,-5.2791,-5.3566,-5.4392,-5.5157,-5.6501,-5.7264,-5.7377,-5.7217,-5.7261,-5.7422,-5.8218,-5.8672,-8.0427,-8.3725,-8.6162,-8.4921,-8.1448,-7.649,-6.9599,0.0,0.0,-5.0359,-4.6815,-4.4725,-4.4893,-4.487,-4.505,-4.5825,0.0,0.0,0.0,0.0,0.0,0.0,0.0,0.0,0.0,0.0,0.0,0.0,0.0,0.0,0.0,-8.8688,-8.7872,-8.807,-8.7207,-8.6046,-8.4678,-8.3266,-8.2257,-8.1591,-8.0808,-8.0894,-8.1805,-8.197,-8.197,-8.1742,-8.0739,0.0,0.0,-8.0007,-7.9843,-7.9998,-8.0094,-7.996,-7.9725,-8.0018,-7.9833,-7.9421,-7.9314,-7.9625,-8.0018,-7.9691,-7.8802,-7.7403,-7.4775,-7.3717,-7.3037,-7.1257,-7.0279,-6.958,-6.8977,-6.7704,-6.6112,-6.4545,-6.3782,-6.3256,-6.2509,-6.1975,-6.1273,-5.9913,-5.8287,-5.6797,-5.5864,-5.5952,-5.6,-5.5529,-5.4952,-5.3986,-5.2202,-5.2134,-5.2155,-5.1916,-5.2171,-5.2733,-5.3531,-5.4193,-5.4283,-5.3775,-5.4107,-5.3924,-5.3118,-5.3086,-5.3688,-5.499,-5.5698,-5.6542,-5.743,-5.7103,-5.7352,-5.818,-5.799,-5.8445,-7.7021,-8.0703,-8.3385,-8.2021,-7.8611,-7.389,0.0,0.0,0.0,-4.9593,-4.6553,-4.48,-4.4867,-4.484,-4.4456,-4.3272,0.0,-4.6454,0.0,0.0,0.0,0.0,0.0,0.0,0.0,0.0,0.0,0.0,0.0,0.0,0.0,-8.9723,-8.9026,-8.804,-8.737,-8.6459,-8.5261,-8.3569,-8.2626,-8.2292,-8.1157,-8.1183,-8.2067,-8.1911,-8.1816,-8.1688,0.0,0.0,0.0,-8.0827,-8.0721,-8.0901,-8.109,-8.0669,-7.993,-8.0469,-8.0092,-7.9265,-7.9117,-7.9557,-8.0112,-7.9914,-7.9224,-7.7998,-7.5923,-7.4388,-7.311,-7.1485,-7.0025,-6.8971,-6.9002,-6.765,-6.5966,-6.4551,-6.4034,-6.3596,-6.2615,-6.2179,-6.1546,-6.0157,-5.8798,-5.7307,-5.5701,-5.5796,-5.5863,-5.5151,-5.4815,-5.4064,-5.2267,-5.2459,-5.2489,-5.1808,-5.2666,-5.3451,-5.3859,-5.435,-5.4405,-5.3907,-5.3981,-5.3656,-5.2924,-5.2779,-5.329,-5.448,-5.4941,-5.5928,-5.743,-5.7179,-5.7633,-5.8672,-5.8293,-5.8748,-7.2456,-7.5668,-7.8232,-7.8007,-7.4606,-6.9669,0.0,0.0,-5.3532,-4.8033,-4.6404,-4.5732,-4.4851,-4.4688,-4.4365,-4.3272,-4.4325,0.0,0.0,0.0,0.0,0.0,0.0,0.0,0.0,0.0,0.0,0.0,0.0,0.0,0.0,-9.0413,-9.1011,-9.1029,-8.7916,-8.6388,-8.6777,-8.4997,-8.3737,-8.3098,-8.2325,-8.1881,-8.1707,-8.1984,-8.1538,0.0,0.0,0.0,0.0,-8.0874,-8.1316,-8.1901,-8.1901,-8.1787,-8.1556,-8.0615,-8.0185,-8.0061,-7.9879,-7.9912,-7.9969,-7.9715,-7.8574,-7.7376,-7.785,-7.6412,-7.4176,-7.169,-6.9646,-6.8225,-6.8265,-6.7565,-6.6611,-6.5835,-6.5021,-6.4296,-6.3967,-6.3108,-6.17,-5.9378,-5.8303,-5.7318,-5.5712,-5.5777,-5.5725,-5.4671,-5.4865,-5.4183,-5.1717,-5.2977,-5.3568,-5.2259,-5.3049,-5.3953,-5.453,-5.3747,-5.359,-5.4448,-5.3924,-5.3032,-5.1765,-5.2677,-5.3337,-5.3617,-5.4572,-5.5906,-5.7506,-5.7984,-5.8353,-5.8726,-5.9522,-5.9885,-6.6388,-6.912,-7.0754,-7.0205,-6.7681,-6.41,-5.9164,0.0,-5.173,-4.799,-4.6686,-4.6088,-4.5635,-4.5571,-4.5783,-4.6486,-4.7398,0.0,0.0,0.0,0.0,0.0,0.0,0.0,0.0,0.0,0.0,0.0,0.0,0.0,0.0,-8.9282,-8.9577,-8.9541,-8.8775,-8.7549,-8.5752,-8.4226,-8.313,-8.2389,-8.1475,-8.1409,-8.2067,-8.1879,0.0,0.0,0.0,0.0,0.0,-8.1818,-8.2305,-8.294,-8.3507,-8.2698,-8.1038,-8.0636,-7.9837,-7.9015,-7.8947,-7.9352,-7.9669,-7.8396,-7.8743,-7.926,-7.7172,-7.5774,-7.433,-7.1375,-7.016,-6.9452,-6.8295,-6.74,-6.6558,-6.5666,-6.4806,-6.3956,-6.3275,-6.2127,-6.0978,-6.017,-5.8708,-5.741,-5.675,-5.6316,-5.5896,-5.5334,-5.5074,-5.4293,-5.2459,-5.2619,-5.2725,-5.2161,-5.2701,-5.3585,-5.4785,-5.4262,-5.404,-5.4454,-5.39,-5.3119,-5.2197,-5.2023,-5.2309,-5.3024,-5.3515,-5.4608,-5.6344,-5.7181,-5.7964,-5.8726,-5.9506,-5.962,0.0,-6.3134,-6.4464,-6.3877,-6.2178,0.0,0.0,0.0,-5.056,-4.8125,-4.726,-4.6828,-4.6402,-4.6179,-4.6255,-4.6876,-4.7677,0.0,0.0,0.0,0.0,0.0,0.0,0.0,0.0,0.0,0.0,0.0,0.0,0.0,0.0,0.0,-8.8814,-8.8257,-8.8309,-8.7516,-8.5664,-8.3983,-8.2952,-8.2523,-8.1412,-8.1538,-8.2716,-8.2621,0.0,0.0,0.0,0.0,0.0,-8.2395,-8.3075,-8.3829,-8.4396,-8.3364,-8.1459,-8.1127,-8.0089,-7.8908,-7.8614,-7.8892,-7.9233,-7.815,-7.8761,-7.9211,-7.5848,-7.4486,-7.3609,-7.1259,-7.033,-6.9747,-6.8611,-6.8121,-6.7537,-6.5965,-6.5061,-6.4299,-6.3405,-6.2532,-6.1624,-6.0671,-5.9571,-5.8458,-5.7426,-5.6976,-5.6516,-5.5962,-5.5449,-5.4709,-5.3434,-5.286,-5.2599,-5.2678,-5.289,-5.3522,-5.4706,-5.4488,-5.4384,-5.4475,-5.4154,-5.3551,-5.2762,-5.2695,-5.2958,-5.3628,-5.4145,-5.4958,-5.6203,-5.7234,-5.8235,-5.9117,-5.9642,-5.9636,0.0,-5.7493,0.0,0.0,0.0,0.0,0.0,0.0,0.0,-4.8365,-4.8001,-4.7835,-4.7305,-4.6651,-4.6059,-4.5733,-4.6429,0.0,0.0,0.0,0.0,0.0,0.0,0.0,0.0,0.0,0.0,0.0,0.0,0.0,0.0,0.0,-8.8714,-8.7389,-8.6942,-8.6568,-8.6156,-8.4146,-8.324,-8.329,-8.2098,-8.2348,-8.3698,-8.3877,0.0,0.0,0.0,0.0,0.0,-8.2623,-8.3543,-8.464,-8.464,-8.3793,-8.2536,-8.1833,-8.0721,-7.9384,-7.8776,-7.8596,-7.8713,-7.8696,-7.8429,-7.752,-7.4409,-7.3171,-7.2581,-7.1388,-7.0312,-6.9401,-6.9144,-6.9422,-6.9123,-6.6609,-6.5665,-6.5053,-6.4111,-6.3775,-6.3039,-6.1,-6.0658,-6.0114,-5.8135,-5.785,-5.7557,-5.6642,-5.5979,-5.5289,-5.4534,-5.3548,-5.3131,-5.364,-5.3551,-5.3787,-5.4533,-5.4517,-5.4481,-5.4517,-5.4517,-5.4128,-5.3355,-5.4137,-5.4724,-5.4981,-5.5919,-5.6538,-5.6887,-5.7901,-5.8866,-5.9791,-5.9874,-5.9885,-4.8625,0.0,-5.139,-5.0785,-5.0785,-5.0618,0.0,0.0,-4.8822,-4.8262,-4.8066,-4.8465,-4.9988,-4.8424,-4.8146,0.0,0.0,0.0,0.0,0.0,0.0,0.0,0.0,0.0,0.0,0.0,0.0,0.0,0.0,0.0,0.0,0.0,-8.8415,-8.8084,-8.7447,-8.6321,-8.462,-8.3597,-8.3425,-8.395,-8.2861,-8.3046,-8.4381,-8.4058,0.0,0.0,0.0,0.0,-8.2713,-8.3241,-8.3926,-8.464,-8.464,-8.3456,-8.1833,-8.1632,-8.0388,-7.8742,-7.8577,-7.8605,-7.8758,-7.8925,-7.8167,-7.7015,-7.5687,-7.5215,-7.4588,-7.2274,-7.1468,-7.1094,-7.0322,-6.959,-6.854,-6.6537,-6.5416,-6.4643,-6.4044,-6.234,-6.1332,-6.2468,-6.0707,-5.9557,-6.1422,-6.0071,-5.8634,-5.8325,-5.707,-5.5836,-5.4832,-5.4346,-5.4206,-5.4484,-5.4349,-5.4628,-5.5486,-5.4437,-5.4035,-5.4781,-5.4027,-5.3502,-5.3318,-5.3477,-5.3886,-5.4601,-5.509,-5.6164,-5.777,-5.7446,-5.8151,-5.9791,-5.9807,-5.9857,-4.617,-4.748,-4.8477,-4.8443,-4.8827,-4.914,-4.861,0.0,0.0,0.0,0.0,0.0,0.0,0.0,0.0,0.0,0.0,0.0,0.0,0.0,0.0,0.0,0.0,0.0,0.0,0.0,0.0,0.0,0.0,0.0,0.0,0.0,-8.7687,-8.7355,-8.6328,-8.5406,-8.4588,-8.3922,-8.3648,-8.3713,-8.3058,-8.3258,-8.4307,-8.4614,-8.3961,0.0,0.0,0.0,-8.2716,-8.3432,-8.4069,-8.464,-8.464,-8.3867,-8.2718,-8.1886,-8.0996,-8.0032,-7.8875,-7.8615,-7.8687,-7.8243,-7.7794,-7.7139,-7.532,-7.5258,-7.534,-7.2762,-7.1635,-7.0979,-7.0203,-6.9085,-6.7703,-6.611,-6.5673,-6.542,-6.4698,-6.3458,-6.2702,-6.3314,-6.1886,-6.1027,-6.2264,-6.1289,-6.0146,-5.9615,-5.824,-5.7049,-5.6446,-5.5677,-5.5293,-5.5582,-5.5302,-5.5291,-5.5813,-5.5064,-5.4626,-5.47,-5.4559,-5.4107,-5.3272,-5.3576,-5.4332,-5.5638,-5.6282,-5.7218,-5.8464,-5.8165,-5.8555,-5.9671,-5.974,-5.9807,-4.5733,-4.7077,-4.8244,-4.8351,-4.8944,-4.949,-4.9357,0.0,0.0,0.0,0.0,0.0,0.0,0.0,0.0,0.0,0.0,0.0,0.0,0.0,0.0,0.0,0.0,0.0,0.0,0.0,0.0,0.0,0.0,0.0,0.0,0.0,0.0,-8.604,-8.4854,-8.4565,-8.5254,-8.4557,-8.3959,-8.3463,-8.329,-8.3482,-8.4005,-8.5098,-8.4454,0.0,0.0,0.0,-8.2699,-8.3421,-8.4076,-8.4606,-8.437,-8.4089,-8.3652,-8.2007,-8.1571,-8.1412,-7.9306,-7.8648,-7.861,-7.7337,-7.7326,-7.7236,-7.4593,-7.4576,-7.5209,-7.3414,-7.1831,-7.0547,-6.9876,-6.8581,-6.7135,-6.5775,-6.6154,-6.6525,-6.5446,-6.5087,-6.4674,-6.376,-6.3283,-6.2853,-6.219,-6.1981,-6.1567,-6.0589,-5.9355,-5.8423,-5.8107,-5.6989,-5.6358,-5.6692,-5.6249,-5.5978,-5.611,-5.6175,-5.5791,-5.4896,-5.5432,-5.508,-5.3445,-5.4179,-5.5272,-5.6801,-5.7808,-5.8487,-5.892,-5.9026,-5.9234,-5.9512,-5.9688,-5.9849,-4.5756,-4.8017,-4.8998,-4.6213,-4.7393,-4.9028,-4.82,-4.8793,0.0,0.0,0.0,0.0,0.0,0.0,0.0,0.0,0.0,0.0,0.0,0.0,0.0,0.0,0.0,0.0,0.0,0.0,0.0,0.0,0.0,0.0,0.0,0.0,0.0,-8.508,-8.5187,-8.5349,-8.5467,-8.4557,-8.4491,-8.5152,-8.4755,-8.4461,-8.4161,-8.4595,-8.4169,0.0,0.0,-8.4396,-8.3985,-8.3686,-8.3925,-8.4505,-8.3253,-8.2589,-8.2172,-8.1068,-8.0134,-7.9309,-7.8848,-7.8723,-7.8494,-7.7344,-7.682,-7.6454,-7.5672,-7.4582,-7.39,-7.4972,-7.3854,-7.2156,-7.1459,-6.9724,-6.7846,-6.6608,-6.6542,-6.6482,-6.5217,-6.403,-6.3317,-6.3741,-6.3038,-6.2552,-6.3213,-6.2505,-6.1707,-6.1165,-6.0255,-5.9115,-5.7626,-5.7277,-5.7218,-5.7255,-5.6802,-5.6804,-5.7579,-5.7584,-5.7148,-5.6319,-5.6007,-5.5316,-5.4252,-5.4987,-5.561,-5.6045,-5.6879,-5.7888,-5.8965,-5.8351,-5.8541,-5.9512,-5.9581,-6.0045,-4.4266,-4.6132,-4.7328,-4.6605,-4.9126,-5.1529,-5.0304,-5.0815,0.0,0.0,0.0,0.0,0.0,0.0,0.0,0.0,0.0,0.0,0.0,0.0,0.0,0.0,0.0,0.0,0.0,0.0,0.0,0.0,0.0,0.0,0.0,0.0,0.0,0.0,-8.4844,-8.5131,-8.5473,-8.4965,-8.5163,-8.6096,-8.5285,-8.4608,-8.4211,-8.448,-8.3739,-8.2318,0.0,-8.3503,-8.3298,-8.2598,-8.2695,-8.3268,-8.2999,-8.2577,-8.21,-8.1959,-8.0535,-7.8783,-7.9309,-7.9163,-7.8556,-7.7705,-7.7558,-7.7479,-7.6355,-7.5523,-7.5011,-7.5277,-7.3957,-7.2299,-7.1732,-7.0482,-6.8898,-6.7117,-6.6718,-6.666,-6.6016,-6.4877,-6.4081,-6.4527,-6.3555,-6.2853,-6.3494,-6.3159,-6.2543,-6.1805,-6.1171,-6.0154,-5.8473,-5.8367,-5.8399,-5.8189,-5.8312,-5.8628,-5.9067,-5.9018,-5.83,-5.6689,-5.6029,-5.5493,-5.506,-5.5897,-5.6389,-5.6498,-5.7824,-5.8688,-5.8942,-5.9039,-5.9458,-6.0151,-6.0259,-6.08,-4.3179,-4.4562,-4.5875,-4.7341,-5.0173,-5.2688,-5.3142,-5.3186,-5.3817,0.0,0.0,0.0,0.0,0.0,0.0,0.0,0.0,0.0,0.0,0.0,0.0,0.0,0.0,0.0,0.0,0.0,0.0,0.0,0.0,0.0,0.0,0.0,0.0,0.0,-8.44,-8.4644,-8.5321,-8.5299,-8.5571,-8.6098,-8.5326,-8.4385,-8.3456,-8.4055,-8.326,-8.1509,-8.2281,-8.2617,-8.2476,-8.1625,-8.1702,-8.2431,-8.2488,-8.2331,-8.2113,-8.2382,-8.0836,-7.8796,-7.9925,-7.9737,-7.8812,-7.8413,-7.8477,-7.846,-7.7155,-7.6609,-7.6235,-7.5516,-7.4137,-7.2725,-7.1893,-7.0864,-6.9553,-6.7624,-6.6959,-6.6736,-6.6609,-6.5868,-6.5079,-6.4937,-6.4025,-6.3319,-6.3523,-6.339,-6.3091,-6.2404,-6.1719,-6.0822,-5.9659,-5.9429,-5.923,-5.8951,-5.9536,-5.9925,-5.995,-5.995,-5.9126,-5.718,-5.6283,-5.5823,-5.5786,-5.6544,-5.7,-5.7007,-5.8872,-5.9627,-5.9258,-5.9918,-6.0527,-6.0998,-6.0938,-6.148,-4.371,-4.5068,-4.6234,-4.7342,-4.7901,-4.9678,-5.5581,-5.5231,0.0,-6.1186,0.0,0.0,0.0,0.0,0.0,0.0,0.0,0.0,0.0,0.0,0.0,0.0,0.0,0.0,0.0,0.0,0.0,0.0,0.0,0.0,0.0,0.0,0.0,0.0,0.0,-8.443,-8.4835,-8.5287,-8.5219,-8.4753,-8.4829,-8.3593,-8.1255,-8.285,-8.278,-8.1341,-8.2119,-8.2423,-8.2319,-8.1404,-8.183,-8.2945,-8.0875,-8.0747,-8.1628,-8.0938,-7.9914,-7.903,-8.0221,-8.0178,-7.9573,-7.9622,-7.9022,-7.8298,-7.8458,-7.7334,-7.606,-7.6175,-7.5676,-7.4635,-7.2531,-7.0586,-6.899,-6.8316,-6.7342,-6.6466,-6.6139,-6.5984,-6.5589,-6.4391,-6.4088,-6.3858,-6.3402,-6.2832,-6.2606,-6.2892,-6.1579,-6.0605,-6.0676,-5.9831,-5.9267,-5.9366,-5.95,-5.9693,-5.9823,-5.9823,-5.9423,-5.8503,-5.7229,-5.6456,-5.6347,-5.6757,-5.7029,-5.71,-5.8927,-6.0017,-6.0281,-6.0356,-6.0922,-6.1883,-6.1202,-6.1782,-4.1902,-4.3995,-4.6009,-4.7729,-4.9258,0.0,0.0,-5.7431,-5.953,-6.4288,-6.5428,0.0,0.0,0.0,0.0,0.0,0.0,0.0,0.0,0.0,0.0,0.0,0.0,0.0,0.0,0.0,0.0,0.0,0.0,0.0,0.0,0.0,0.0,0.0,0.0,-8.4056,-8.3725,-8.4198,-8.3901,-8.2813,-8.4195,-8.3832,-8.1903,-8.2522,-8.2002,-8.0648,-8.1031,-8.1387,-8.1594,-8.0098,-8.0057,-8.0847,-7.9802,-8.0035,-8.0961,-8.0808,-8.0397,-7.9967,-8.0428,-8.0568,-8.0518,-8.0377,-8.0079,-7.9727,-7.9353,-7.8442,-7.7388,-7.6551,-7.6125,-7.543,-7.3243,-7.1242,-6.9607,-6.8977,-6.7702,-6.6567,-6.6365,-6.6159,-6.5759,-6.4937,-6.4396,-6.3965,-6.3552,-6.3211,-6.2942,-6.2996,-6.2574,-6.1885,-6.094,-6.0956,-6.0605,-5.942,-5.9322,-5.9376,-5.9429,-5.9509,-5.9496,-5.935,-5.9018,-5.8626,-5.8147,-5.8473,-5.8674,-5.8831,-5.9127,-5.9631,-6.0413,-6.0413,-6.1261,-6.2843,-6.2012,-6.2647,-4.0474,-4.239,-4.484,-4.7733,0.0,0.0,-5.7474,-5.985,-6.27,-6.8331,-6.9233,0.0,0.0,0.0,0.0,0.0,0.0,0.0,0.0,0.0,0.0,0.0,0.0,0.0,0.0,0.0,0.0,0.0,0.0,0.0,0.0,0.0,0.0,0.0,-8.4103,-8.3975,-8.347,-8.3699,-8.3231,-8.2145,-8.3564,-8.3456,-8.1956,-8.2251,-8.1731,-8.0547,-8.0172,-8.0392,-8.0817,-7.9314,-7.8947,-7.9297,-7.9199,-7.9587,-8.0282,-8.0655,-8.0483,-8.0225,-8.0822,-8.0888,-8.0816,-8.1249,-8.1183,-8.0752,-7.9869,-7.9107,-7.8179,-7.6457,-7.6291,-7.6159,-7.4005,-7.2101,-7.0502,-6.9401,-6.7995,-6.6857,-6.6849,-6.6534,-6.6086,-6.5471,-6.4795,-6.42,-6.3698,-6.3414,-6.3317,-6.3379,-6.3101,-6.2639,-6.1852,-6.1716,-6.1105,-5.9537,-5.9434,-5.941,-5.9221,-5.9322,-5.95,-5.9786,-6.0284,-6.0372,-5.9916,-5.9987,-6.027,-6.0673,-6.0034,-6.0105,-6.0846,-6.0603,-6.1337,-6.2974,-6.2406,-6.3058,-3.9792,-4.0565,-4.2649,0.0,0.0,0.0,-6.1846,-6.2604,-6.4143,-7.364,0.0,-7.1689,-7.1634,0.0,0.0,0.0,0.0,0.0,0.0,0.0,0.0,0.0,0.0,0.0,0.0,0.0,0.0,0.0,0.0,0.0,0.0,0.0,0.0,0.0,-8.4339,-8.4177,-8.4177,-8.3817,-8.3482,-8.31,-8.31,-8.2342,-8.1034,-8.1956,-8.2002,-8.119,-7.9735,-7.9532,-8.0124,-7.9184,-7.875,-7.8737,-7.8978,-7.9302,-7.9665,-8.0297,-8.0024,-7.9671,-8.1542,-8.1227,-8.0333,-8.2231,-8.22,-8.116,-7.9935,-7.9107,-7.808,-7.5894,-7.6324,-7.692,-7.4734,-7.3111,-7.1555,-6.9744,-6.8248,-6.7278,-6.754,-6.7183,-6.6592,-6.5854,-6.5283,-6.4624,-6.3764,-6.3414,-6.3489,-6.4109,-6.3032,-6.2503,-6.3678,-6.1934,-6.0387,-5.9757,-5.9938,-5.9809,-5.9221,-5.9286,-5.95,-5.9786,-6.0795,-6.1447,-6.1518,-6.1209,-6.1456,-6.2401,-6.1799,-6.1589,-6.1806,-6.1074,-6.1167,-6.2124,-6.2251,-6.2845,-4.0381,-4.2394,0.0,0.0,0.0,0.0,0.0,-6.5294,0.0,0.0,0.0,0.0,0.0,0.0,0.0,0.0,0.0,0.0,0.0,0.0,0.0,0.0,0.0,0.0,0.0,0.0,0.0,0.0,0.0,0.0,0.0,0.0,0.0,0.0,-8.2874,-8.2709,-8.2168,-8.2064,-8.1693,-8.1087,-8.1594,-8.1895,-8.2008,-8.1763,-8.1494,-8.119,-7.9735,-7.9228,-7.9381,-7.8654,-7.8522,-7.8803,-7.8709,-7.8823,-7.9146,-7.957,-8.0047,-8.042,-8.024,-8.0615,-8.1055,-8.0707,-8.0366,-8.0089,-7.9736,-7.9107,-7.8179,-7.649,-7.6689,-7.6683,-7.3614,-7.3191,-7.3094,-7.1154,-6.9822,-6.8844,-6.8472,-6.7926,-6.7404,-6.6799,-6.6031,-6.5204,-6.4298,-6.3796,-6.3673,-6.4109,-6.3833,-6.3624,-6.3786,-6.1934,-6.0291,-5.9572,-5.8591,-5.7776,-5.7278,-5.7872,-5.8709,-5.975,-6.0907,-6.1581,-6.1713,-6.1892,-6.216,-6.2582,-6.196,-6.1689,-6.1806,-6.1676,-6.1788,-6.2124,-6.2266,-6.2893,-4.1191,0.0,0.0,0.0,0.0,0.0,0.0,0.0,0.0,0.0,0.0,0.0,0.0,0.0,0.0,0.0,0.0,0.0,0.0,0.0,0.0,0.0,0.0,0.0,0.0,0.0,0.0,0.0,0.0,0.0,0.0,0.0,0.0,0.0,-8.1929,-8.1662,-8.1291,-8.1189,-8.0986,-8.0648,-8.1088,-8.1697,-8.2408,-8.1747,-8.1274,-8.0749,-7.9279,-7.8519,-7.8336,-7.8236,-7.853,-7.8916,-7.8651,-7.8671,-7.8936,-7.9094,-7.9455,-7.9849,-7.9809,-7.9566,-7.9182,-7.9161,-7.89,-7.8614,-7.8689,-7.8444,-7.7782,-7.6324,-7.6424,-7.6253,-7.3335,-7.3554,-7.4038,-7.177,-7.0542,-6.9783,-6.9468,-6.8772,-6.7944,-6.7108,-6.6357,-6.5648,-6.5091,-6.414,-6.3703,-6.4417,-6.4354,-6.3904,-6.2945,-6.2014,-6.0874,-5.9399,-5.8561,-5.7881,-5.727,-5.7906,-5.8898,-6.0197,-6.1103,-6.1838,-6.2338,-6.2746,-6.3013,-6.3147,-6.2545,-6.2233,-6.2332,-6.2146,-6.2051,-6.2124,-6.2676,-6.3128,0.0,0.0,0.0,0.0,0.0,0.0,0.0,0.0,0.0,0.0,0.0,0.0,0.0,0.0,0.0,0.0,0.0,0.0,0.0,0.0,0.0,0.0,0.0,0.0,0.0,0.0,0.0,0.0,0.0,0.0,0.0,0.0,0.0,0.0,-8.1135,-8.0832,-8.119,-8.0899,-8.0865,0.0,-8.1088,-8.1426,-8.2069,-8.1729,-8.0951,-7.9837,-7.8569,-7.7644,-7.7178,-7.7849,-7.8463,-7.8969,-7.8617,-7.8671,-7.8883,-7.8883,-7.8593,-7.8366,-7.9704,-7.8184,-7.5969,-7.7662,-7.7655,-7.7,-7.7279,-7.7318,-7.6954,-7.5728,-7.5728,-7.5628,-7.3541,-7.4038,-7.4434,-7.1718,-7.0746,-7.0423,-7.0603,-6.9546,-6.8324,-6.7269,-6.6498,-6.5976,-6.5753,-6.4442,-6.3758,-6.4754,-6.4564,-6.3623,-6.1759,-6.2169,-6.1777,-5.9334,-5.9451,-5.9331,-5.8579,-5.8908,-5.97,-6.0923,-6.1371,-6.2083,-6.3171,-6.3602,-6.3845,-6.3894,-6.3331,-6.3058,-6.312,-6.2485,-6.2181,-6.2124,-6.3259,-6.3389,0.0,0.0,0.0,0.0,0.0,0.0,0.0,0.0,0.0,0.0,0.0,0.0,0.0,0.0,0.0,0.0,0.0,0.0,0.0,0.0,0.0,0.0,0.0,0.0,0.0,0.0,0.0,0.0,0.0,0.0,0.0,0.0,0.0,-7.9499,-7.8942,-7.9211,-8.0412,-7.982,-7.955,0.0,-7.9566,-7.955,-7.9499,-8.0226,-7.9448,-7.7623,-7.7908,-7.7491,-7.6705,-7.7145,-7.7661,-7.8203,-7.8418,-7.8511,-7.8617,-7.883,-7.8522,-7.794,-7.7674,-7.7104,-7.645,-7.6078,-7.586,-7.5908,-7.7033,-7.6622,-7.5794,-7.6026,-7.5397,-7.427,-7.2647,-7.2912,-7.3094,-7.1341,-7.1452,-7.1823,-7.1426,-6.9779,-6.8428,-6.8718,-6.7631,-6.6117,-6.4585,-6.4362,-6.4377,-6.4384,-6.3904,-6.3413,-6.3128,-6.2738,-6.1822,-6.0036,-5.9518,-5.9092,-5.8549,-5.8823,-5.9591,-6.0923,-6.1371,-6.2083,-6.3171,-6.3632,-6.3873,-6.3894,-6.3954,-6.3701,-6.312,-6.3012,-6.2673,-6.2124,-6.3151,-6.3643,0.0,0.0,0.0,0.0,0.0,0.0,0.0,0.0,0.0,0.0,0.0,0.0,0.0,0.0,0.0,0.0,0.0,0.0,0.0,0.0,0.0,0.0,0.0,0.0,0.0,0.0,0.0,0.0,0.0,0.0,0.0,-7.6943,-7.681,-7.7614,-7.7055,-7.754,-7.9126,-7.8505,-7.8102,-7.7968,-7.8102,-7.8269,-7.8366,-7.8622,-7.842,-7.7711,-7.7457,-7.6772,-7.589,-7.6291,-7.6837,-7.7542,-7.7868,-7.8212,-7.8477,-7.8272,-7.758,-7.6771,-7.6369,-7.5787,-7.5205,-7.4869,-7.5198,-7.586,-7.6258,-7.6092,-7.5761,-7.5639,-7.4827,-7.3737,-7.2613,-7.2878,-7.3126,-7.1737,-7.1817,-7.2063,-7.1585,-6.9996,-6.8705,-6.8831,-6.7641,-6.6104,-6.4505,-6.4381,-6.4271,-6.3439,-6.3553,-6.338,-6.2466,-6.2391,-6.1792,-6.0247,-5.9941,-5.9769,-5.9531,-6.0024,-6.0674,-6.1505,-6.2032,-6.24,-6.2711,-6.3446,-6.3888,-6.3894,-6.3787,-6.3533,-6.312,-6.2767,-6.2429,-6.2089,-6.2665,-6.2783,0.0,0.0,0.0,0.0,0.0,0.0,0.0,0.0,0.0,0.0,0.0,0.0,0.0,0.0,0.0,0.0,0.0,0.0,0.0,0.0,0.0,0.0,0.0,0.0,0.0,0.0,0.0,0.0,0.0,0.0,-7.5873,-7.4689,-7.4789,-7.6485,-7.5729,-7.6114,-7.7878,-7.7196,-7.6742,-7.642,-7.6843,-7.7296,-7.7779,-7.7546,-7.7833,-7.8422,-7.7261,-7.6207,-7.5337,-7.5688,-7.6233,-7.6835,-7.7067,-7.7583,-7.808,-7.745,-7.6494,-7.557,-7.555,-7.4605,-7.3508,-7.404,-7.49,-7.5643,-7.5209,-7.5459,-7.5724,-7.4845,-7.4122,-7.3467,-7.2791,-7.3087,-7.332,-7.2168,-7.1969,-7.1868,-7.1346,-6.9996,-6.8677,-6.8238,-6.7054,-6.5834,-6.4816,-6.4386,-6.3783,-6.277,-6.327,-6.3206,-6.1598,-6.1973,-6.1862,-6.0458,-6.0603,-6.0751,-6.064,-6.1357,-6.1895,-6.2158,-6.2705,-6.2804,-6.2373,-6.3275,-6.3749,-6.3686,-6.328,-6.3063,-6.3063,-6.2334,-6.1977,-6.1977,-6.2086,-6.1926,0.0,0.0,0.0,0.0,0.0,0.0,0.0,0.0,0.0,0.0,0.0,0.0,0.0,0.0,0.0,0.0,0.0,0.0,0.0,0.0,0.0,0.0,0.0,0.0,0.0,0.0,0.0,0.0,0.0,0.0,-7.4739,-7.4022,-7.4585,-7.6811,-7.5631,-7.5737,-7.7296,-7.6105,-7.5433,-7.5382,-7.5923,-7.6425,-7.6908,-7.7984,-7.822,-7.7782,-7.79,-7.706,-7.5705,-7.6287,-7.6133,-7.5595,-7.6225,-7.6523,-7.6589,-7.649,-7.596,-7.5315,-7.5349,-7.4387,-7.326,-7.3989,-7.3873,-7.3589,-7.3953,-7.4267,-7.4331,-7.3832,-7.326,-7.2758,-7.2372,-7.259,-7.2644,-7.1837,-7.1837,-7.1819,-7.1105,-6.9282,-6.7658,-6.7173,-6.6022,-6.5068,-6.4884,-6.3937,-6.3254,-6.3388,-6.2715,-6.2405,-6.2926,-6.2674,-6.2073,-6.123,-6.1446,-6.1415,-6.0823,-6.1379,-6.1895,-6.2158,-6.2705,-6.3038,-6.3047,-6.3527,-6.3503,-6.2795,-6.2878,-6.2905,-6.2905,-6.22,-6.1825,-6.1844,-6.194,-6.239,0.0,0.0,0.0,0.0,0.0,0.0,0.0,0.0,0.0,0.0,0.0,0.0,0.0,0.0,0.0,0.0,0.0,0.0,0.0,0.0,0.0,0.0,0.0,0.0,0.0,0.0,0.0,0.0,0.0,-7.3599,-7.4414,-7.3656,-7.3887,-7.5369,-7.4839,-7.5127,-7.635,-7.5172,-7.4416,-7.414,-7.4483,-7.5459,-7.6993,-7.747,-7.8129,-7.8825,-7.8265,-7.7607,-7.6871,-7.6218,-7.5897,-7.586,-7.5761,-7.596,-7.6258,-7.586,-7.5264,-7.4668,-7.4668,-7.3737,-7.2659,-7.2988,-7.3449,-7.3624,-7.2559,-7.3462,-7.4478,-7.309,-7.2603,-7.2515,-7.2568,-7.2463,-7.2203,-7.1703,-7.1689,-7.149,-7.0479,-6.8871,-6.736,-6.6478,-6.567,-6.5133,-6.5142,-6.4189,-6.3435,-6.3258,-6.3013,-6.2751,-6.2544,-6.275,-6.2708,-6.2134,-6.1902,-6.1761,-6.1651,-6.1724,-6.195,-6.2291,-6.2679,-6.2818,-6.266,-6.316,-6.294,-6.1868,-6.2006,-6.1905,-6.1456,-6.0636,-6.0226,-6.0263,-6.0752,-6.1261,0.0,0.0,0.0,0.0,0.0,0.0,0.0,0.0,0.0,0.0,0.0,0.0,0.0,0.0,0.0,0.0,0.0,0.0,0.0,0.0,0.0,0.0,0.0,0.0,0.0,0.0,0.0,0.0,0.0,-7.3866,-7.4075,-7.3489,-7.3605,-7.4742,-7.4647,-7.493,-7.5676,-7.4556,-7.3749,-7.3214,-7.3886,-7.5188,-7.6873,-7.7357,-7.835,-7.9614,-7.856,-7.7932,-7.7666,-7.6362,-7.5927,-7.5993,-7.5496,-7.5463,-7.5695,-7.5198,-7.4535,-7.3939,-7.3902,-7.2985,-7.1821,-7.1863,-7.2411,-7.2806,-7.1049,-7.2226,-7.3692,-7.1948,-7.1711,-7.2058,-7.2089,-7.1918,-7.1648,-7.1247,-7.1225,-7.0963,-6.9552,-6.8241,-6.7007,-6.5867,-6.5395,-6.52,-6.5155,-6.4578,-6.3927,-6.314,-6.323,-6.3017,-6.2122,-6.2753,-6.3168,-6.2773,-6.2505,-6.2395,-6.2337,-6.2177,-6.2168,-6.2344,-6.2629,-6.2671,-6.2368,-6.2899,-6.2637,-6.1411,-6.1348,-6.1065,-6.055,-5.9507,-5.9209,-5.958,-6.001,-6.0521,0.0,0.0,0.0,0.0,0.0,0.0,0.0,0.0,0.0,0.0,0.0,0.0,0.0,0.0,0.0,0.0,0.0,0.0,0.0,0.0,0.0,0.0,0.0,0.0,0.0,0.0,0.0,0.0,0.0,-7.2372,-7.3489,-7.3489,-7.4228,-7.5926,-7.5498,-7.5388,-7.5709,-7.4373,-7.3441,-7.2952,-7.5114,-7.6068,-7.603,-7.8288,-7.9303,-7.9388,-7.8744,-7.808,-7.7417,-7.7351,-7.6523,-7.533,-7.5297,-7.4867,-7.4321,-7.4288,-7.3773,-7.3143,-7.3037,-7.2007,-7.0759,-7.0641,-7.0183,-6.9638,-6.9406,-7.0013,-7.0608,-7.0055,-7.0494,-7.0949,-7.0125,-7.0458,-7.0855,-7.0188,-7.0247,-7.0024,-6.8115,-6.7069,-6.6289,-6.523,-6.5024,-6.4959,-6.4667,-6.4903,-6.4676,-6.3296,-6.2908,-6.263,-6.2305,-6.2877,-6.3206,-6.2927,-6.3543,-6.3563,-6.2558,-6.2702,-6.2655,-6.2258,-6.2578,-6.2805,-6.2793,-6.3051,-6.2825,-6.1976,-6.1223,-6.0959,-6.1225,-5.9709,-5.9746,-6.1172,-6.0492,-6.1035,0.0,0.0,0.0,0.0,0.0,0.0,0.0,0.0,0.0,0.0,0.0,0.0,0.0,0.0,0.0,0.0,0.0,0.0,0.0,0.0,0.0,0.0,0.0,0.0,0.0,0.0,0.0,0.0,0.0,0.0,-7.4825,-7.4921,-7.52,-7.5805,-7.5805,-7.5757,-7.5709,-7.5048,-7.4456,-7.3953,-7.5322,-7.6154,-7.648,-7.7835,-7.8691,-7.9041,-7.8671,-7.8378,-7.808,-7.7616,-7.6821,-7.5894,-7.5463,-7.4596,-7.3679,-7.407,-7.3803,-7.3299,-7.3614,-7.275,-7.1455,-7.1016,-7.0278,-6.9405,-6.8277,-6.8846,-6.9691,-6.8806,-6.8869,-6.9217,-6.9082,-6.9019,-6.8866,-6.862,-6.9204,-6.9364,-6.7777,-6.7446,-6.71,-6.5908,-6.5856,-6.596,-6.6026,-6.5345,-6.439,-6.3283,-6.2741,-6.2259,-6.1603,-6.2647,-6.3371,-6.3299,-6.3794,-6.3931,-6.3488,-6.3048,-6.3019,-6.3582,-6.332,-6.3497,-6.4192,-6.3819,-6.3491,-6.3272,-6.2069,-6.1075,-6.0268,-5.9218,-5.9016,-5.9632,-6.0476,-6.1188,-4.0695,0.0,0.0,0.0,0.0,0.0,0.0,0.0,0.0,0.0,0.0,0.0,0.0,0.0,0.0,0.0,0.0,0.0,0.0,0.0,0.0,0.0,0.0,0.0,0.0,0.0,0.0,0.0,0.0,0.0,-7.5243,-7.5662,-7.5899,-7.6054,-7.6343,-7.6343,-7.6054,-7.5865,-7.543,-7.4754,-7.5502,-7.61,-7.6473,-7.7575,-7.8292,-7.8674,-7.8571,-7.8511,-7.8477,-7.798,-7.7351,-7.6622,-7.6159,-7.519,-7.399,-7.4434,-7.4001,-7.3248,-7.3375,-7.2599,-7.1348,-7.0413,-6.9651,-6.8833,-6.7559,-6.787,-6.8499,-6.7703,-6.7492,-6.7409,-6.741,-6.7245,-6.7193,-6.7907,-6.8699,-6.8956,-6.7866,-6.7566,-6.7233,-6.6189,-6.5798,-6.5703,-6.5927,-6.5051,-6.4044,-6.312,-6.2663,-6.2098,-6.1363,-6.2514,-6.3459,-6.3604,-6.4077,-6.4329,-6.4208,-6.3689,-6.3615,-6.4245,-6.3945,-6.4103,-6.4831,-6.4144,-6.3785,-6.3863,-6.2388,-6.12,-6.0328,-5.939,-5.9239,-5.9897,-6.0454,-6.0927,0.0,0.0,0.0,0.0,0.0,0.0,0.0,0.0,0.0,0.0,0.0,0.0,0.0,0.0,0.0,0.0,0.0,0.0,0.0,0.0,0.0,0.0,0.0,0.0,0.0,0.0,0.0,0.0,0.0,-7.3548,-7.4406,-7.545,-7.6288,-7.6713,-7.7011,-7.7045,-7.6793,-7.6734,-7.6241,-7.5325,-7.582,-7.6006,-7.6073,-7.7547,-7.8216,-7.8198,-7.8392,-7.8511,-7.8511,-7.8511,-7.808,-7.7417,-7.7417,-7.6556,-7.5297,-7.5297,-7.437,-7.3043,-7.2323,-7.1402,-7.0339,-6.8933,-6.8193,-6.7781,-6.7104,-6.6888,-6.6858,-6.6858,-6.6365,-6.5688,-6.5042,-6.5201,-6.6032,-6.8057,-6.8765,-6.8862,-6.8379,-6.7314,-6.6353,-6.5924,-6.4818,-6.4057,-6.4287,-6.4019,-6.3562,-6.2891,-6.2541,-6.2191,-6.1728,-6.2586,-6.3383,-6.3716,-6.4498,-6.4897,-6.4603,-6.4595,-6.4455,-6.418,-6.4318,-6.4496,-6.4665,-6.3993,-6.3636,-6.3673,-6.2068,-6.1393,-6.1655,-6.0328,-6.0507,-6.2085,-6.053,-6.0321,-4.1348,0.0,0.0,0.0,0.0,0.0,0.0,0.0,0.0,0.0,0.0,0.0,0.0,0.0,0.0,0.0,0.0,0.0,0.0,0.0,0.0,0.0,0.0,0.0,0.0,0.0,0.0,0.0,-7.12,-7.2795,-7.3472,-7.4166,-7.49,-7.5778,-7.5846,-7.6177,-7.6793,-7.6666,-7.6339,-7.5886,-7.6391,-7.6518,-7.6322,-7.7884,-7.8319,-7.794,-7.855,-7.8671,-7.8511,-7.8511,-7.808,-7.7417,-7.7417,-7.6591,-7.5437,-7.536,-7.4742,-7.4037,-7.3708,-7.2684,-7.1477,-7.0877,-6.9214,-6.7389,-6.7007,-6.6242,-6.5442,-6.5442,-6.4949,-6.4474,-6.4692,-6.5145,-6.575,-6.674,-6.7572,-6.8059,-6.7418,-6.701,-6.6645,-6.6126,-6.5717,-6.5279,-6.4634,-6.4005,-6.3468,-6.3145,-6.3024,-6.2747,-6.2058,-6.3085,-6.3661,-6.3193,-6.4146,-6.4773,-6.4695,-6.4625,-6.4863,-6.5464,-6.5232,-6.5308,-6.5945,-6.4936,-6.4548,-6.5017,-6.3092,-6.2334,-6.2891,-6.0518,-5.9706,-6.0381,-6.0024,-6.0434,-4.3786,-4.4975,-4.655,0.0,0.0,0.0,0.0,0.0,0.0,0.0,0.0,0.0,0.0,0.0,0.0,0.0,0.0,0.0,0.0,0.0,0.0,0.0,0.0,0.0,0.0,0.0,0.0,-6.8336,-7.0302,-7.1934,-7.3049,-7.3458,-7.4319,-7.565,-7.5993,-7.6381,-7.6964,-7.6541,-7.6343,-7.6262,-7.6374,-7.629,-7.6178,-7.7463,-7.7832,-7.7558,-7.8364,-7.8617,-7.8511,-7.8511,-7.8279,-7.7881,-7.7881,-7.7206,-7.6247,-7.5766,-7.524,-7.4596,-7.3506,-7.2455,-7.1402,-7.0497,-6.8882,-6.7255,-6.6945,-6.6365,-6.5688,-6.5411,-6.4854,-6.4457,-6.5009,-6.5615,-6.6294,-6.7189,-6.7867,-6.8207,-6.7958,-6.7713,-6.7257,-6.6565,-6.5633,-6.463,-6.3678,-6.3275,-6.3013,-6.2927,-6.2973,-6.3116,-6.3249,-6.3672,-6.3849,-6.3673,-6.4212,-6.4602,-6.4706,-6.4789,-6.5209,-6.5859,-6.5715,-6.5893,-6.6446,-6.5142,-6.4584,-6.5034,-6.3437,-6.2867,-6.3275,-6.1199,-5.9826,-5.9131,-5.9239,-5.9499,-4.6017,-4.6973,-4.8654,0.0,0.0,0.0,-4.8956,-4.8503,-4.795,0.0,0.0,0.0,0.0,0.0,0.0,0.0,0.0,0.0,0.0,0.0,0.0,0.0,0.0,0.0,0.0,0.0,-6.6788,-6.7832,-6.937,-7.1084,-7.299,-7.3083,-7.3988,-7.5903,-7.6489,-7.6937,-7.7178,-7.6427,-7.6228,-7.6449,-7.5947,-7.5709,-7.5695,-7.6624,-7.7044,-7.711,-7.7993,-7.8444,-7.8511,-7.8511,-7.8511,-7.8511,-7.8511,-7.8113,-7.7411,-7.6474,-7.5837,-7.5002,-7.2778,-7.1607,-7.0781,-6.9158,-6.807,-6.7285,-6.7033,-6.6858,-6.6673,-6.5996,-6.5483,-6.5188,-6.5643,-6.6319,-6.7145,-6.8536,-6.8748,-6.8732,-6.904,-6.866,-6.7958,-6.7068,-6.5124,-6.3319,-6.2295,-6.2292,-6.2477,-6.2529,-6.2842,-6.353,-6.4701,-6.4251,-6.405,-6.4628,-6.449,-6.4463,-6.4672,-6.5048,-6.5382,-6.574,-6.5895,-6.6146,-6.6421,-6.5009,-6.4245,-6.4318,-6.3524,-6.3148,-6.3217,-6.2183,-6.0601,-5.8534,-5.8591,-5.8275,0.0,0.0,0.0,0.0,0.0,0.0,-4.8371,-4.7922,-4.7794,0.0,0.0,0.0,0.0,0.0,0.0,0.0,0.0,0.0,0.0,0.0,0.0,0.0,0.0,0.0,0.0,0.0,-6.4781,-6.6118,-6.8082,-7.0388,-7.2932,-7.1994,-7.2467,-7.4812,-7.4478,-7.5097,-7.6839,-7.5971,-7.5696,-7.6169,-7.5852,-7.5614,-7.5407,-7.6267,-7.6709,-7.6822,-7.7651,-7.8192,-7.8511,-7.8511,-7.8511,-7.8511,-7.8511,-7.8444,-7.8192,-7.7404,-7.6432,-7.5292,-7.4277,-7.2854,-7.1292,-7.0116,-6.8823,-6.7648,-6.7342,-6.6689,-6.5965,-6.5288,-6.511,-6.5093,-6.504,-6.5884,-6.6967,-6.7639,-6.7671,-6.7718,-6.8092,-6.7914,-6.7541,-6.6849,-6.5927,-6.4737,-6.3068,-6.2916,-6.2912,-6.276,-6.4118,-6.4933,-6.4402,-6.4686,-6.482,-6.4735,-6.427,-6.418,-6.4637,-6.474,-6.5013,-6.551,-6.574,-6.5895,-6.6115,-6.534,-6.4933,-6.4933,-6.4141,-6.3768,-6.3906,-6.2828,-6.1507,-5.9989,-5.9581,-5.9106,0.0,0.0,0.0,-5.1331,0.0,0.0,0.0,-4.8608,0.0,0.0,0.0,0.0,0.0,0.0,0.0,0.0,0.0,0.0,0.0,0.0,0.0,0.0,0.0,0.0,0.0,0.0,-6.4141,-6.5932,-6.7827,-6.9407,-7.0412,-7.0607,-7.1377,-7.3017,-7.3809,-7.4738,-7.5873,-7.5515,-7.5697,-7.6309,-7.5526,-7.5195,-7.5359,-7.5952,-7.6392,-7.6753,-7.7381,-7.7954,-7.8511,-7.8511,-7.8511,-7.8511,-7.8511,-7.8511,-7.8424,-7.7543,-7.6506,-7.5308,-7.4051,-7.2494,-7.0927,-6.9833,-6.8492,-6.7329,-6.7734,-6.7394,-6.6822,-6.6561,-6.6578,-6.6699,-6.6511,-6.7292,-6.8177,-6.8388,-6.824,-6.8205,-6.8741,-6.8759,-6.8291,-6.6836,-6.6273,-6.5504,-6.3921,-6.3549,-6.3584,-6.4023,-6.4905,-6.5436,-6.5147,-6.5487,-6.5612,-6.5168,-6.4712,-6.4593,-6.4987,-6.4813,-6.4843,-6.5214,-6.5477,-6.574,-6.5895,-6.53,-6.49,-6.4844,-6.4389,-6.4322,-6.4648,-6.3847,-6.2341,-6.0139,-5.9111,-5.826,0.0,0.0,0.0,0.0,0.0,-5.1463,0.0,0.0,0.0,0.0,0.0,0.0,0.0,0.0,0.0,0.0,0.0,0.0,0.0,0.0,0.0,0.0,0.0,0.0,0.0,0.0,-6.3617,-6.5901,-6.6862,-6.7485,-6.7845,-6.8876,-7.012,-7.1461,-7.3241,-7.4444,-7.4812,-7.5151,-7.5629,-7.6163,-7.5268,-7.4877,-7.5026,-7.5569,-7.6107,-7.6668,-7.6926,-7.7583,-7.8511,-7.8378,-7.8378,-7.8511,-7.8511,-7.8511,-7.8403,-7.7665,-7.6529,-7.5125,-7.366,-7.2102,-7.0585,-6.9381,-6.8263,-6.7574,-6.8502,-6.8619,-6.8437,-6.8516,-6.8595,-6.8499,-6.8313,-6.8847,-6.9349,-6.9217,-6.907,-6.9037,-6.9589,-6.9717,-6.9268,-6.7475,-6.6951,-6.6268,-6.4638,-6.4122,-6.4211,-6.5123,-6.5421,-6.5623,-6.5732,-6.6085,-6.608,-6.5524,-6.5152,-6.5001,-6.5256,-6.4987,-6.4847,-6.4946,-6.5391,-6.5655,-6.5707,-6.5224,-6.4867,-6.4777,-6.4792,-6.4951,-6.5178,-6.4802,-6.3048,-6.0134,-5.8725,-5.7381,0.0,0.0,0.0,0.0,-5.6065,0.0,0.0,0.0,0.0,0.0,0.0,0.0,0.0,0.0,0.0,0.0,0.0,0.0,0.0,0.0,0.0,0.0,0.0,0.0,0.0,0.0,-6.1961,-6.4782,-6.2987,-6.357,-6.7837,-6.6848,-6.781,-7.1494,-7.1658,-7.2655,-7.4611,-7.492,-7.5114,-7.5148,-7.5445,-7.5031,-7.3964,-7.4734,-7.5589,-7.6343,-7.5761,-7.6655,-7.8477,-7.7815,-7.7914,-7.8511,-7.8511,-7.8511,-7.8457,-7.8403,-7.6801,-7.4658,-7.4494,-7.3141,-7.1246,-6.9983,-6.9666,-6.979,-7.0158,-7.0244,-7.019,-7.0202,-6.991,-6.9412,-6.8746,-6.8994,-6.925,-6.8591,-6.8855,-6.9235,-6.9316,-6.9622,-6.9739,-6.9485,-6.8828,-6.7544,-6.5072,-6.4538,-6.4511,-6.4643,-6.5669,-6.5986,-6.4884,-6.5657,-6.604,-6.5289,-6.4924,-6.4816,-6.5036,-6.5152,-6.5091,-6.4776,-6.5616,-6.5891,-6.5384,-6.5406,-6.54,-6.5403,-6.6079,-6.5949,-6.5013,-6.4976,-6.3602,-6.1028,-5.996,-5.8189,0.0,0.0,0.0,0.0,0.0,0.0,-5.3414,0.0,-5.2033,0.0,0.0,0.0,0.0,0.0,0.0,0.0,0.0,0.0,0.0,0.0,0.0,0.0,0.0,0.0,0.0,0.0,0.0,0.0,0.0,-6.1773,-6.3986,-6.5087,-6.6492,-6.8355,-7.0692,-7.2135,-7.2597,-7.3775,-7.4262,-7.4136,-7.4161,-7.4253,-7.4254,-7.4638,-7.5321,-7.6258,-7.5562,-7.6362,-7.8093,-7.7603,-7.7901,-7.8657,-7.81,-7.8146,-7.8511,-7.8511,-7.7103,-7.5125,-7.5125,-7.3836,-7.1918,-7.0834,-7.0812,-7.109,-7.0642,-7.0748,-7.1112,-7.1229,-7.1078,-7.0852,-7.0435,-7.0618,-7.0697,-6.9793,-6.9874,-7.0118,-6.9688,-6.967,-6.982,-6.9764,-6.914,-6.8154,-6.6747,-6.6006,-6.5994,-6.7202,-6.6756,-6.6195,-6.6057,-6.6589,-6.6764,-6.6131,-6.6144,-6.628,-6.6502,-6.6305,-6.6141,-6.604,-6.6144,-6.6105,-6.5955,-6.6086,-6.6122,-6.5888,-6.6307,-6.6069,-6.5163,-6.4813,-6.3581,-6.1495,-5.9895,-5.8148,-5.5718,0.0,0.0,0.0,0.0,0.0,0.0,0.0,0.0,0.0,0.0,0.0,0.0,0.0,-5.1879,-5.0939,0.0,0.0,0.0,0.0,0.0,0.0,0.0,0.0,0.0,0.0,0.0,0.0,-5.9072,-5.913,-6.0524,-6.2815,-6.4664,-6.5985,-6.9233,-7.1109,-7.1334,-7.2768,-7.3344,-7.308,-7.3299,-7.3591,-7.4006,-7.4406,-7.5171,-7.6096,-7.5315,-7.5949,-7.757,-7.7129,-7.7409,-7.8112,-7.7528,-7.7556,-7.7914,-7.7914,-7.6749,-7.5185,-7.5185,-7.3995,-7.2411,-7.2019,-7.2075,-7.224,-7.169,-7.1831,-7.2282,-7.2456,-7.2317,-7.2106,-7.2018,-7.2002,-7.177,-7.0814,-7.0746,-7.0693,-6.9964,-6.9798,-6.9802,-6.9763,-6.9337,-6.8797,-6.8401,-6.7248,-6.7013,-6.8851,-6.7569,-6.6546,-6.6896,-6.7441,-6.7523,-6.6724,-6.698,-6.7288,-6.7513,-6.7215,-6.7121,-6.7303,-6.6708,-6.6426,-6.6632,-6.6734,-6.6666,-6.6495,-6.681,-6.6532,-6.5715,-6.5475,-6.4358,-6.2405,-6.026,-5.8421,0.0,0.0,0.0,-5.3679,0.0,0.0,0.0,0.0,-5.4863,0.0,0.0,0.0,0.0,-5.4423,-5.3639,-5.2662,-5.1947,0.0,0.0,0.0,0.0,0.0,0.0,0.0,0.0,0.0,0.0,-5.7604,-5.4733,-5.4669,-5.8866,-5.9616,-6.1723,-6.5701,-6.6811,-6.8752,-7.1567,-7.2165,-7.2337,-7.206,-7.3474,-7.3558,-7.2541,-7.394,-7.5006,-7.5654,-7.4687,-7.5185,-7.6686,-7.602,-7.6018,-7.6442,-7.6924,-7.6822,-7.639,-7.639,-7.5529,-7.4432,-7.4432,-7.3572,-7.2721,-7.3731,-7.3731,-7.3337,-7.3902,-7.4087,-7.412,-7.4138,-7.3591,-7.3061,-7.3028,-7.2548,-7.1819,-7.1057,-7.0891,-7.0693,-6.9964,-6.9798,-6.9798,-6.9831,-6.9751,-6.9751,-6.9751,-6.7877,-6.6822,-6.8134,-6.7642,-6.702,-6.6565,-6.7709,-6.7988,-6.6553,-6.678,-6.7096,-6.7288,-6.7481,-6.7743,-6.8145,-6.7229,-6.6881,-6.7271,-6.7095,-6.7095,-6.7271,-6.8046,-6.7903,-6.677,-6.7435,-6.6523,-6.4077,-6.1665,-5.9358,0.0,0.0,-6.0384,-5.5994,0.0,0.0,0.0,0.0,0.0,0.0,0.0,0.0,0.0,-5.4902,-5.4288,-5.2994,-5.2175,-5.0748,0.0,0.0,0.0,0.0,0.0,0.0,0.0,0.0,0.0,-5.5007,-5.3511,-5.3957,0.0,-5.8946,-6.1004,-6.3406,-6.6029,-6.8037,-6.941,-7.0906,-7.1693,-7.1747,-7.272,-7.335,-7.3625,-7.409,-7.4821,-7.5672,-7.4805,-7.5289,-7.6508,-7.5956,-7.6257,-7.7027,-7.6408,-7.6106,-7.6139,-7.6435,-7.5912,-7.494,-7.4445,-7.4013,-7.3712,-7.407,-7.407,-7.3935,-7.412,-7.4221,-7.4221,-7.4221,-7.4005,-7.3807,-7.3807,-7.3608,-7.3243,-7.2548,-7.2382,-7.1869,-7.0136,-7.0166,-7.0361,-6.9898,-6.9798,-6.9798,-6.9798,-6.8781,-6.8258,-6.9382,-6.8636,-6.7915,-6.7944,-6.8226,-6.8061,-6.7236,-6.7501,-6.7782,-6.8016,-6.7756,-6.7666,-6.7778,-6.7043,-6.6698,-6.6951,-6.7514,-6.7868,-6.8082,-6.8505,-6.8364,-6.7723,-6.7443,-6.67,-6.553,-6.4635,-6.2526,-6.0243,-6.0902,0.0,-5.7568,-5.7635,0.0,-5.45,0.0,0.0,0.0,0.0,0.0,0.0,-5.6369,-5.5034,-5.4316,-5.2877,-5.0834,0.0,-4.7424,0.0,0.0,0.0,0.0,0.0,0.0,-5.2588,-5.3209,-5.2294,-5.264,0.0,0.0,-5.9766,-6.1825,-6.4615,-6.7021,-6.8976,-6.9984,-7.0782,-7.1345,-7.2351,-7.3131,-7.3708,-7.424,-7.5022,-7.5974,-7.5372,-7.5638,-7.6469,-7.6024,-7.6107,-7.6408,-7.5823,-7.5522,-7.5556,-7.5855,-7.5519,-7.48,-7.4387,-7.4221,-7.4221,-7.4221,-7.4221,-7.4221,-7.4221,-7.4221,-7.4221,-7.4221,-7.4221,-7.4221,-7.4221,-7.4221,-7.4005,-7.3276,-7.3111,-7.2631,-7.0929,-7.0812,-7.0942,-7.0659,-7.0476,-7.031,-7.0196,-6.9566,-6.9282,-6.9969,-6.9282,-6.8786,-6.892,-6.8808,-6.8489,-6.7954,-6.7937,-6.798,-6.8016,-6.7756,-6.7591,-6.7591,-6.7064,-6.7071,-6.7609,-6.7856,-6.8249,-6.8892,-6.8788,-6.8682,-6.8677,-6.815,-6.7546,-6.6823,-6.7024,-6.564]},{"header":{"parameterUnit":"m.s-1","parameterCategory":1,"la1":30.6,"la2":29.2853,"lo1":-89.7004,"lo2":-87.6739,"dy":0.0162,"dx":0.0183,"nx":112,"ny":82,"refTime":"2023-06-19T06:00:00:Z","depth":0,"parameterNumber":3,"parameterNumberName":"V-component_of_WINDS"},"data":[0.0,0.0,0.0,0.0,0.0,0.0,0.0,0.0,0.0,0.0,0.0,0.0,0.0,0.0,0.0,0.0,0.0,0.0,0.0,0.0,0.0,0.0,0.0,0.0,0.0,0.0,0.0,0.0,0.0,0.0,0.0,0.0,0.0,0.0,0.0,0.0,0.0,0.0,0.0,0.0,0.0,0.0,0.0,0.0,0.0,0.0,0.0,0.0,0.0,0.0,0.0,0.0,0.0,0.0,0.0,0.0,0.0,0.0,0.0,0.0,0.0,0.0,0.0,0.0,0.0,0.0,0.0,0.0,0.0,0.0,0.0,0.0,0.0,0.0,0.0,0.0,0.0,0.0,0.0,0.0,0.0,0.0,0.0,0.0,0.0,0.0,0.0,0.0,0.0,0.0,0.0,-2.7525,-3.1988,-3.474,-3.4507,-3.3354,-3.0344,-2.492,0.0,0.0,0.0,0.0,0.0,0.0,0.0,0.0,0.0,0.0,0.0,0.0,0.0,0.0,0.0,0.0,0.0,0.0,0.0,0.0,0.0,0.0,0.0,0.0,0.0,0.0,0.0,0.0,0.0,0.0,0.0,0.0,0.0,0.0,0.0,0.0,0.0,0.0,0.0,0.0,0.0,0.0,0.0,0.0,0.0,0.0,0.0,0.0,0.0,0.0,0.0,0.0,0.0,0.0,0.0,0.0,0.0,0.0,0.0,0.0,0.0,0.0,0.0,0.0,0.0,0.0,0.0,0.0,0.0,0.0,0.0,0.0,0.0,0.0,0.0,0.0,0.0,0.0,0.0,0.0,0.0,0.0,0.0,0.0,0.0,0.0,0.0,0.0,0.0,0.0,0.0,0.0,0.0,0.0,0.0,0.0,0.0,0.0,0.0,0.0,0.0,0.0,0.0,0.0,-2.4122,-3.0807,-3.3641,-3.487,-3.4226,-3.2353,-2.9317,-2.4881,0.0,0.0,0.0,0.0,0.0,0.0,0.0,0.0,0.0,0.0,0.0,0.0,0.0,0.0,0.0,0.0,0.0,0.0,0.0,0.0,0.0,0.0,0.0,0.0,0.0,0.0,0.0,0.0,0.0,0.0,0.0,0.0,0.0,0.0,0.0,0.0,0.0,0.0,0.0,0.0,0.0,0.0,0.0,0.0,0.0,0.0,0.0,0.0,0.0,0.0,0.0,0.0,0.0,0.0,0.0,0.0,0.0,0.0,0.0,0.0,0.0,0.0,0.0,0.0,0.0,0.0,0.0,0.0,0.0,0.0,0.0,0.0,0.0,0.0,0.0,0.0,0.0,0.0,0.0,0.0,0.0,0.0,0.0,0.0,0.0,0.0,0.0,0.0,0.0,0.0,0.0,0.0,0.0,0.0,0.0,0.0,0.0,0.0,0.0,0.0,0.0,0.0,0.0,-2.3256,-2.6683,-3.2193,-3.4212,-3.4841,-3.3931,-3.2308,-2.9293,-2.4662,-2.1764,0.0,0.0,0.0,0.0,0.0,0.0,0.0,0.0,0.0,0.0,0.0,0.0,0.0,0.0,0.0,0.0,0.0,0.0,0.0,0.0,0.0,0.0,0.0,0.0,0.0,0.0,0.0,0.0,0.0,0.0,0.0,0.0,0.0,0.0,0.0,0.0,0.0,0.0,0.0,0.0,0.0,0.0,0.0,0.0,0.0,0.0,0.0,0.0,0.0,0.0,0.0,0.0,0.0,0.0,0.0,0.0,0.0,0.0,0.0,0.0,0.0,0.0,0.0,0.0,0.0,0.0,0.0,0.0,0.0,0.0,0.0,0.0,0.0,0.0,0.0,0.0,0.0,0.0,0.0,0.0,0.0,0.0,0.0,0.0,0.0,0.0,0.0,0.0,0.0,0.0,0.0,0.0,0.0,0.0,0.0,0.0,0.0,0.0,0.0,0.0,0.0,0.0,-2.6589,-2.9105,-3.2749,-3.4212,-3.458,-3.3798,-3.1775,-2.8713,-2.4415,-2.056,0.0,0.0,0.0,0.0,0.0,0.0,0.0,0.0,0.0,0.0,0.0,0.0,0.0,0.0,0.0,0.0,0.0,0.0,0.0,0.0,0.0,0.0,0.0,0.0,0.0,0.0,0.0,0.0,0.0,0.0,0.0,0.0,0.0,0.0,0.0,0.0,0.0,0.0,0.0,0.0,0.0,0.0,0.0,0.0,0.0,0.0,0.0,0.0,0.0,0.0,0.0,0.0,0.0,0.0,0.0,0.0,0.0,0.0,0.0,0.0,0.0,0.0,0.0,0.0,0.0,0.0,0.0,0.0,0.0,0.0,0.0,0.0,0.0,0.0,0.0,0.0,0.0,0.0,0.0,0.0,0.0,0.0,0.0,0.0,0.0,0.0,0.0,0.0,0.0,0.0,0.0,0.0,0.0,0.0,0.0,0.0,0.0,0.0,0.0,0.0,0.0,0.0,-2.6488,-2.95,-3.2485,-3.3685,-3.4216,-3.393,-2.9979,-2.6637,-2.4223,-1.8863,0.0,0.0,0.0,0.0,0.0,0.0,0.0,0.0,0.0,0.0,0.0,0.0,0.0,0.0,0.0,0.0,0.0,0.0,0.0,0.0,0.0,0.0,0.0,0.0,0.0,0.0,0.0,0.0,0.0,0.0,0.0,0.0,0.0,0.0,0.0,0.0,0.0,0.0,0.0,0.0,0.0,0.0,0.0,0.0,0.0,0.0,0.0,0.0,0.0,0.0,0.0,0.0,0.0,0.0,0.0,0.0,0.0,0.0,0.0,0.0,0.0,0.0,0.0,0.0,0.0,0.0,0.0,0.0,0.0,0.0,0.0,0.0,0.0,0.0,0.0,0.0,0.0,0.0,0.0,0.0,0.0,0.0,0.0,0.0,0.0,0.0,0.0,0.0,0.0,0.0,0.0,0.0,0.0,0.0,0.0,0.0,0.0,0.0,0.0,0.0,0.0,0.0,-2.6385,-2.9251,0.0,-3.3334,-3.378,-3.3343,-3.0983,-2.8016,-2.4309,0.0,0.0,0.0,0.0,0.0,0.0,0.0,0.0,0.0,0.0,0.0,0.0,0.0,0.0,0.0,0.0,0.0,0.0,0.0,0.0,0.0,0.0,0.0,0.0,0.0,0.0,0.0,0.0,0.0,0.0,0.0,0.0,0.0,0.0,0.0,0.0,0.0,0.0,0.0,0.0,0.0,0.0,0.0,0.0,0.0,0.0,0.0,0.0,0.0,0.0,0.0,0.0,0.0,0.0,0.0,0.0,0.0,0.0,0.0,0.0,0.0,0.0,0.0,0.0,0.0,0.0,0.0,0.0,0.0,0.0,0.0,0.0,0.0,0.0,0.0,0.0,0.0,0.0,0.0,0.0,0.0,0.0,0.0,0.0,0.0,0.0,0.0,0.0,0.0,0.0,0.0,0.0,0.0,0.0,0.0,0.0,0.0,0.0,0.0,0.0,0.0,0.0,-2.351,-2.6193,-2.8871,0.0,-3.2749,-3.3139,-3.297,-3.0923,-2.8033,-2.4367,0.0,0.0,0.0,0.0,0.0,0.0,0.0,0.0,0.0,0.0,0.0,0.0,0.0,0.0,0.0,0.0,0.0,0.0,0.0,0.0,0.0,0.0,0.0,0.0,0.0,0.0,0.0,0.0,0.0,0.0,0.0,0.0,0.0,0.0,0.0,0.0,0.0,0.0,0.0,0.0,0.0,0.0,0.0,0.0,0.0,0.0,0.0,0.0,0.0,0.0,0.0,0.0,0.0,0.0,0.0,0.0,0.0,0.0,0.0,0.0,0.0,0.0,0.0,0.0,0.0,0.0,0.0,0.0,0.0,0.0,0.0,0.0,0.0,0.0,0.0,0.0,0.0,0.0,0.0,0.0,0.0,0.0,0.0,0.0,0.0,0.0,0.0,0.0,0.0,0.0,0.0,0.0,0.0,0.0,0.0,0.0,0.0,0.0,0.0,0.0,0.0,0.0,-2.3141,-2.5871,-2.8461,-3.1037,-3.1885,-3.2412,-3.2734,-2.9116,-2.6104,0.0,0.0,0.0,0.0,0.0,0.0,0.0,0.0,0.0,0.0,0.0,0.0,0.0,0.0,0.0,0.0,0.0,0.0,0.0,0.0,0.0,0.0,0.0,0.0,0.0,0.0,0.0,0.0,0.0,0.0,0.0,0.0,0.0,0.0,0.0,0.0,0.0,0.0,0.0,0.0,0.0,0.0,0.0,0.0,0.0,0.0,0.0,0.0,0.0,0.0,0.0,0.0,0.0,0.0,0.0,0.0,0.0,0.0,0.0,0.0,0.0,0.0,0.0,0.0,0.0,0.0,0.0,0.0,0.0,0.0,0.0,0.0,0.0,0.0,0.0,0.0,0.0,0.0,0.0,0.0,0.0,0.0,0.0,0.0,0.0,0.0,0.0,0.0,0.0,0.0,0.0,0.0,0.0,0.0,0.0,0.0,0.0,0.0,0.0,0.0,0.0,0.0,0.0,-2.2918,-2.5801,-2.8373,-3.0715,-3.1344,-3.1724,-3.2061,-3.0083,-2.7657,-2.4731,0.0,0.0,0.0,0.0,0.0,0.0,0.0,0.0,0.0,0.0,0.0,0.0,0.0,0.0,0.0,0.0,0.0,0.0,0.0,0.0,0.0,0.0,0.0,0.0,0.0,0.0,0.0,0.0,0.0,0.0,0.0,0.0,0.0,0.0,0.0,0.0,0.0,0.0,0.0,0.0,0.0,0.0,0.0,0.0,0.0,0.0,0.0,0.0,0.0,0.0,0.0,0.0,0.0,0.0,0.0,0.0,0.0,0.0,0.0,0.0,0.0,0.0,0.0,0.0,0.0,0.0,0.0,0.0,0.0,0.0,0.0,0.0,0.0,0.0,0.0,0.0,0.0,0.0,0.0,0.0,0.0,0.0,0.0,0.0,0.0,0.0,0.0,0.0,0.0,0.0,0.0,0.0,0.0,0.0,0.0,0.0,0.0,0.0,0.0,0.0,0.0,0.0,-2.2606,-2.5426,-2.7905,-3.0012,-3.0539,-3.0817,-3.1007,-3.0132,-2.8103,-2.4694,0.0,0.0,0.0,0.0,0.0,0.0,0.0,0.0,0.0,0.0,0.0,0.0,0.0,0.0,0.0,0.0,0.0,0.0,0.0,0.0,0.0,0.0,0.0,0.0,0.0,0.0,0.0,0.0,0.0,0.0,0.0,0.0,0.0,0.0,0.0,0.0,0.0,0.0,0.0,0.0,0.0,0.0,0.0,0.0,0.0,0.0,0.0,0.0,0.0,0.0,0.0,0.0,0.0,0.0,0.0,0.0,0.0,0.0,0.0,0.0,0.0,0.0,0.0,0.0,0.0,0.0,0.0,0.0,0.0,0.0,0.0,0.0,0.0,0.0,0.0,0.0,0.0,0.0,0.0,0.0,0.0,0.0,0.0,0.0,0.0,0.0,0.0,0.0,0.0,0.0,0.0,0.0,0.0,0.0,0.0,0.0,0.0,0.0,0.0,0.0,0.0,0.0,-2.2348,-2.4936,-2.7276,-2.9178,-2.9647,-2.9837,-2.9866,-2.9529,-2.7897,-2.4547,0.0,0.0,0.0,0.0,0.0,0.0,0.0,0.0,0.0,0.0,0.0,0.0,0.0,0.0,0.0,0.0,0.0,0.0,0.0,0.0,0.0,0.0,0.0,0.0,0.0,0.0,0.0,0.0,0.0,0.0,0.0,0.0,0.0,0.0,0.0,0.0,0.0,0.0,0.0,0.0,0.0,0.0,0.0,0.0,0.0,0.0,0.0,0.0,0.0,0.0,0.0,0.0,0.0,0.0,0.0,0.0,0.0,0.0,0.0,0.0,-4.3229,0.0,0.0,0.0,0.0,0.0,0.0,0.0,0.0,0.0,0.0,0.0,0.0,0.0,0.0,0.0,0.0,0.0,0.0,0.0,0.0,0.0,0.0,0.0,0.0,0.0,0.0,0.0,0.0,0.0,0.0,0.0,0.0,0.0,0.0,0.0,0.0,0.0,0.0,0.0,0.0,0.0,-2.2706,-2.5353,-2.7525,-2.9193,-2.9442,-2.9588,-2.9837,-2.9325,-2.7929,-2.5468,-2.3722,0.0,0.0,0.0,0.0,0.0,0.0,0.0,0.0,0.0,0.0,0.0,0.0,0.0,0.0,0.0,0.0,0.0,0.0,0.0,0.0,0.0,0.0,0.0,0.0,0.0,0.0,0.0,0.0,0.0,0.0,0.0,0.0,0.0,0.0,0.0,0.0,0.0,0.0,0.0,0.0,0.0,0.0,0.0,0.0,0.0,0.0,0.0,0.0,0.0,0.0,0.0,0.0,0.0,0.0,0.0,0.0,0.0,0.0,0.0,0.0,-4.6476,0.0,0.0,0.0,0.0,0.0,0.0,0.0,0.0,0.0,0.0,0.0,0.0,0.0,0.0,0.0,0.0,0.0,0.0,0.0,0.0,0.0,0.0,0.0,0.0,0.0,0.0,0.0,0.0,0.0,0.0,0.0,0.0,0.0,0.0,0.0,0.0,0.0,0.0,0.0,0.0,-2.3432,-2.5948,-2.8041,-2.9064,-2.8861,-2.8754,-2.893,-2.8637,-2.7536,-2.548,-2.4233,0.0,0.0,0.0,0.0,0.0,0.0,0.0,0.0,0.0,0.0,0.0,0.0,0.0,0.0,0.0,0.0,0.0,0.0,0.0,0.0,0.0,0.0,0.0,0.0,0.0,0.0,0.0,0.0,0.0,0.0,0.0,0.0,0.0,0.0,0.0,0.0,0.0,0.0,0.0,0.0,0.0,0.0,0.0,0.0,0.0,0.0,0.0,0.0,0.0,0.0,0.0,0.0,0.0,-5.1758,-5.3097,-5.5076,-5.536,-5.5883,-5.6437,-5.3673,-5.275,-5.2919,0.0,0.0,0.0,0.0,0.0,0.0,0.0,0.0,0.0,0.0,0.0,0.0,0.0,0.0,0.0,0.0,0.0,0.0,0.0,0.0,0.0,0.0,0.0,0.0,0.0,-4.4391,-4.4112,0.0,0.0,0.0,0.0,0.0,0.0,0.0,0.0,0.0,0.0,0.0,0.0,-2.4376,-2.6779,-2.8526,-2.8897,-2.8262,-2.7798,-2.7798,-2.7754,-2.7011,-2.5238,-2.4804,-2.3745,0.0,0.0,0.0,0.0,0.0,0.0,0.0,0.0,0.0,0.0,0.0,0.0,0.0,0.0,0.0,0.0,0.0,0.0,0.0,0.0,0.0,0.0,0.0,0.0,0.0,0.0,0.0,0.0,0.0,0.0,0.0,0.0,-3.4118,-3.7322,0.0,0.0,0.0,0.0,0.0,0.0,0.0,0.0,0.0,0.0,0.0,0.0,0.0,-4.7293,-4.8748,-5.2658,-5.4816,-5.5299,-5.8006,-5.9715,-6.0457,-6.0533,-6.1121,-6.2143,-6.1776,0.0,-5.4535,-5.3443,0.0,0.0,0.0,0.0,0.0,0.0,0.0,0.0,0.0,0.0,0.0,0.0,0.0,0.0,0.0,0.0,0.0,0.0,0.0,0.0,0.0,0.0,-4.6889,-4.6288,-4.7607,-4.8302,0.0,-4.1843,-3.7999,-3.5381,-3.2406,0.0,0.0,0.0,0.0,0.0,0.0,0.0,-2.5367,-2.7555,-2.8974,-2.8627,-2.7888,-2.7496,-2.7496,-2.7162,-2.6559,-2.5455,-2.4853,-2.4196,-2.3315,-2.1934,0.0,0.0,0.0,0.0,0.0,0.0,0.0,0.0,0.0,0.0,0.0,0.0,0.0,0.0,0.0,0.0,0.0,0.0,0.0,0.0,0.0,0.0,0.0,0.0,0.0,0.0,0.0,0.0,0.0,-3.2497,-3.6887,-3.9077,-4.169,-4.2517,0.0,0.0,0.0,0.0,0.0,0.0,0.0,0.0,0.0,-4.8625,-5.0422,-5.2177,-5.4107,-5.6602,-5.8501,-5.9744,-6.0787,-6.1776,-6.2704,-6.2704,-6.3118,-6.3869,-6.4184,-6.2614,-5.9641,-5.8148,-5.5874,-5.2987,0.0,0.0,0.0,0.0,-4.9808,-5.0425,-5.2296,-5.2478,0.0,-5.041,0.0,0.0,0.0,0.0,0.0,0.0,0.0,0.0,0.0,0.0,-4.8861,-4.8182,-4.8918,-4.9471,-4.8321,-4.5049,-4.1638,0.0,-3.7158,-3.4673,-3.0218,0.0,0.0,0.0,0.0,0.0,-2.7828,-2.9169,-2.9688,-2.8446,-2.7275,-2.6543,-2.6322,-2.6184,-2.5741,-2.4968,-2.4704,-2.4211,-2.3362,-2.2442,-2.1597,0.0,0.0,0.0,0.0,0.0,0.0,0.0,0.0,0.0,0.0,0.0,0.0,0.0,0.0,0.0,0.0,0.0,0.0,0.0,0.0,0.0,0.0,0.0,0.0,0.0,0.0,0.0,0.0,-3.6086,-3.9964,-4.1311,-4.4698,-4.6025,0.0,0.0,0.0,0.0,0.0,0.0,-4.7951,-4.9066,-5.0908,-5.3716,-5.4975,-5.6656,-5.8731,-5.9666,-6.1056,-6.2851,-6.2653,-6.3073,-6.4103,-6.4103,-6.4345,-6.4804,-6.5209,-6.4855,-6.3848,-6.1859,-5.9641,-5.721,-5.5781,-5.4797,-5.4188,-5.4702,-5.462,-5.4573,-5.6997,-5.7206,-5.6183,-5.4658,0.0,-5.0243,-4.5952,0.0,0.0,0.0,0.0,-4.7074,-4.8128,-4.9264,-5.0012,-4.9462,-4.9709,-4.987,-4.9089,-4.7159,-4.4699,0.0,-4.0864,-3.887,-3.4046,0.0,0.0,0.0,0.0,-3.0893,-2.9783,-3.0366,-3.0134,-2.8188,-2.6692,-2.5712,-2.5266,-2.513,-2.4872,-2.4388,-2.4318,-2.4006,-2.3119,-2.2657,-2.185,-2.0858,0.0,0.0,0.0,0.0,0.0,0.0,0.0,0.0,0.0,0.0,0.0,0.0,0.0,0.0,0.0,0.0,0.0,0.0,0.0,0.0,0.0,0.0,0.0,0.0,0.0,0.0,0.0,0.0,0.0,-4.598,-5.0375,0.0,0.0,0.0,0.0,-4.7838,-4.8496,-4.9909,-5.2298,-5.4116,-5.602,-5.8044,-5.9186,-6.045,-6.1743,-6.2345,-6.2948,-6.3601,-6.4161,-6.4689,-6.5208,-6.5208,-6.5484,-6.5986,-6.6011,-6.571,-6.5041,-6.3105,-6.0863,-5.8504,-5.7769,-5.6593,-5.5582,-5.6675,-5.6786,-5.6775,-5.8531,-5.8208,-5.7214,-5.8094,-5.5368,-5.1523,-5.0662,-4.8418,0.0,0.0,-4.8679,-4.9703,-5.0329,-5.1185,-5.1576,-5.0175,-5.0237,-5.0191,-4.8745,-4.7749,-4.6357,0.0,-4.1728,-3.9453,-3.6758,0.0,-3.4575,-3.2367,-3.2829,-3.2581,-3.0225,-3.0506,-3.0036,-2.7855,-2.633,-2.5266,-2.4833,-2.4303,-2.398,-2.3952,-2.3767,-2.3486,-2.3149,-2.2216,-2.1555,-2.1166,-1.9458,0.0,0.0,0.0,0.0,0.0,0.0,0.0,0.0,0.0,0.0,0.0,0.0,0.0,0.0,0.0,0.0,0.0,0.0,0.0,0.0,0.0,0.0,0.0,0.0,0.0,0.0,0.0,0.0,-4.9873,-5.3093,0.0,0.0,-5.1793,-5.2154,-5.3723,-5.3881,-5.5193,-5.817,-5.8723,-5.9795,-6.1517,-6.2442,-6.2985,-6.3099,-6.3977,-6.4329,-6.4203,-6.4379,-6.458,-6.4781,-6.5132,-6.5383,-6.5609,-6.5961,-6.581,-6.5183,-6.4183,-6.3154,-6.2269,-6.2404,-6.1731,-6.0772,-6.1278,-6.0998,-6.032,-6.0306,-5.9557,-5.8391,-5.6843,-5.4615,-5.2296,-5.148,-5.0074,-4.8994,-4.9617,-5.0352,-5.0921,-5.1103,-5.1675,-5.1724,-4.9912,-4.9654,-4.9358,-4.7854,-4.683,-4.5886,-4.4746,-4.2967,-4.0931,-3.868,-3.7657,-3.6477,-3.4728,-3.4601,-3.3851,-3.1582,-3.1056,-2.9796,-2.682,-2.5655,-2.4747,-2.3931,-2.3352,-2.3001,-2.3004,-2.2638,-2.221,-2.1897,-2.1548,-2.0952,-2.0033,-1.9617,-1.8686,0.0,0.0,0.0,0.0,0.0,0.0,0.0,0.0,0.0,0.0,0.0,0.0,0.0,0.0,0.0,0.0,0.0,0.0,0.0,0.0,0.0,0.0,0.0,0.0,0.0,0.0,-5.0931,-5.267,-5.5912,-5.7316,-5.5631,-5.5918,-5.6877,-5.844,-5.8536,-5.9666,-6.2267,-6.2256,-6.2724,-6.3988,-6.4697,-6.4856,-6.4505,-6.5208,-6.5198,-6.4587,-6.4847,-6.4762,-6.4334,-6.5138,-6.5474,-6.5328,-6.5875,-6.6011,-6.581,-6.5057,-6.4697,-6.462,-6.462,-6.406,-6.3228,-6.3414,-6.2934,-6.2068,-6.0833,-5.969,-5.8409,-5.6359,-5.4533,-5.3062,-5.2523,-5.1635,-5.0934,-5.109,-5.1455,-5.1775,-5.1753,-5.1852,-5.1537,-5.0118,-4.9495,-4.8805,-4.7341,-4.6487,-4.5774,-4.4961,-4.3625,-4.2062,-4.0091,-3.9035,-3.7939,-3.6365,-3.5798,-3.4797,-3.2908,-3.186,-3.0102,-2.6873,-2.5768,-2.4708,-2.3276,-2.2767,-2.2391,-2.2185,-2.1678,-2.1268,-2.0886,-2.0559,-2.0089,-1.9398,-1.931,-1.8697,-1.7476,0.0,0.0,0.0,0.0,0.0,0.0,0.0,0.0,0.0,0.0,0.0,0.0,0.0,0.0,0.0,0.0,0.0,0.0,0.0,0.0,0.0,0.0,0.0,-4.6569,-5.1612,-5.4996,-5.4493,-5.9042,-6.0886,-5.7356,-6.0171,-6.202,-6.1659,-6.2262,-6.3139,-6.4336,-6.4479,-6.4756,-6.5308,-6.5886,-6.6162,-6.6112,-6.6137,-6.5628,-6.4626,-6.5578,-6.5296,-6.3915,-6.5406,-6.5853,-6.5421,-6.594,-6.6438,-6.6865,-6.5735,-6.5283,-6.5157,-6.4128,-6.312,-6.2391,-6.2907,-6.2507,-6.1466,-6.0104,-5.8632,-5.7237,-5.6813,-5.5405,-5.3814,-5.3873,-5.3231,-5.2326,-5.1839,-5.199,-5.2204,-5.2216,-5.1751,-5.117,-5.062,-4.9726,-4.8644,-4.7254,-4.669,-4.6038,-4.4724,-4.3727,-4.2557,-4.0989,-4.0046,-3.9048,-3.7355,-3.6491,0.0,-3.3988,-3.2788,-3.0949,-2.798,-2.6728,-2.5238,-2.3105,-2.2632,-2.2216,-2.1614,-2.1041,-2.0578,-2.027,-1.9402,-1.907,-1.9384,-1.848,-1.8035,-1.8022,0.0,0.0,0.0,0.0,0.0,0.0,0.0,0.0,0.0,0.0,0.0,0.0,0.0,0.0,0.0,0.0,0.0,0.0,0.0,0.0,0.0,0.0,-5.0728,-5.1114,-5.4814,-5.8065,-5.9895,-6.1598,-6.2636,-6.2652,-6.3021,-6.3671,-6.4729,-6.4266,-6.4446,-6.5553,-6.5669,-6.5735,-6.5886,-6.7216,-6.7342,-6.6112,-6.6915,-6.6379,-6.4626,-6.5259,-6.4976,-6.394,-6.5087,-6.5508,-6.5421,-6.594,-6.6187,-6.6287,-6.5584,-6.5057,-6.4655,-6.4044,-6.3167,-6.2307,-6.2592,-6.1353,-5.9486,-5.9215,-5.786,-5.6193,-5.5777,-5.4979,-5.4259,-5.389,-5.313,-5.2326,-5.1839,-5.1257,-5.0694,-5.0387,-4.9829,-4.917,-4.8015,-4.7537,-4.6866,-4.5025,-4.4794,-4.4679,-4.3634,-4.3266,-4.2557,-4.0989,-3.9998,-3.8901,-3.7361,-3.6674,0.0,-3.3623,-3.24,-3.0474,-2.726,-2.6176,-2.4825,-2.2727,-2.1869,-2.1348,-2.0999,-1.9992,-1.9462,-1.9664,-1.916,-1.8931,-1.9052,-1.855,-1.8622,0.0,0.0,0.0,0.0,0.0,0.0,0.0,0.0,0.0,0.0,0.0,0.0,0.0,0.0,0.0,0.0,0.0,0.0,0.0,0.0,0.0,0.0,-5.2251,-5.5122,-5.6273,-5.8201,-6.0197,-6.203,-6.278,-6.3457,-6.4316,-6.4374,-6.4713,-6.5681,-6.5208,-6.5464,-6.6764,-6.6641,-6.6779,-6.7493,-6.8447,-6.8396,-6.7166,-6.7417,-6.6541,-6.4716,-6.5013,-6.4456,-6.3359,-6.4766,-6.5248,0.0,-6.6103,-6.6614,-6.6764,-6.5961,-6.5374,0.0,0.0,0.0,0.0,0.0,-6.0722,-5.8756,-5.8894,-5.7528,-5.5805,-5.5348,-5.487,-5.4348,-5.3683,-5.2951,-5.2241,-5.1368,-5.0534,-4.9826,-4.9361,-4.865,-4.7902,-4.7121,-4.6446,-4.5595,-4.4321,-4.4073,-4.3893,-4.3203,-4.2966,0.0,-4.1383,-4.0256,-3.8963,-3.7314,-3.6674,-3.5704,-3.4126,-3.2932,-3.1012,-2.7871,-2.6649,-2.5037,-2.2618,-2.1601,0.0,0.0,0.0,-1.9052,-1.8975,-1.8791,0.0,0.0,0.0,-1.8933,-1.9766,0.0,0.0,0.0,-2.0909,-2.1656,0.0,0.0,0.0,0.0,0.0,0.0,0.0,0.0,0.0,0.0,0.0,0.0,0.0,0.0,0.0,0.0,-5.6591,-5.8904,-6.1065,-6.1366,-6.1542,-6.2125,-6.2896,-6.3533,-6.3626,-6.4403,-6.4957,-6.5148,-6.5221,-6.5881,-6.748,0.0,0.0,0.0,0.0,-6.9049,-6.8447,-6.7577,-6.6363,-6.4814,-6.4615,-6.3958,-6.2784,-6.453,-6.5075,-6.4814,-6.6292,-6.7191,-6.7618,-6.6614,-6.5928,-6.526,-6.402,-6.2914,-6.2041,-6.1703,-6.0367,-5.8747,-5.8762,0.0,0.0,-5.5357,-5.4898,-5.4311,-5.3401,-5.2813,-5.2159,-5.0672,-4.9892,-4.9327,-4.8775,-4.7884,-4.6994,-4.6837,-4.5814,-4.4645,-4.421,-4.3783,-4.3401,-4.301,-4.2796,-4.243,-4.1934,-4.0679,-3.9172,-3.7631,-3.6726,-3.5938,-3.5127,-3.3942,-3.2055,-2.9201,0.0,0.0,-2.2756,-2.1571,-2.0779,-2.0153,-1.9581,-1.8968,-1.8407,-1.8428,-1.8526,-1.8762,-1.8864,-1.9168,-1.9675,-2.0055,-2.0488,-2.1022,-2.2018,-2.2795,0.0,0.0,0.0,0.0,0.0,0.0,0.0,0.0,0.0,0.0,0.0,0.0,0.0,0.0,0.0,-5.6258,-5.8577,-6.0617,-6.2239,-6.2496,-6.2627,-6.3134,-6.3149,-6.3194,-6.3601,-6.3543,-6.3776,-6.4124,-6.4161,-6.4704,-6.5807,-6.6279,0.0,-6.7442,-6.8321,-6.8296,-6.7317,-6.7203,-6.6275,-6.4702,0.0,0.0,-6.3201,-6.4328,-6.4789,-6.4789,-6.5781,-6.6614,-6.7116,-6.689,-6.6105,-6.4728,-6.2334,-6.1084,-6.0592,-6.0544,-5.957,-5.8136,-5.7736,-5.6847,-5.5839,-5.5357,-5.5151,-5.4967,-5.4334,-5.3574,0.0,-5.1174,-5.0152,-4.9261,-4.8069,-4.6962,-4.594,-4.4848,-4.4057,-4.3196,-4.1943,-4.1956,-4.212,-4.1571,-4.2111,-4.2339,-4.1519,-4.0953,-4.0236,-3.9261,-3.8391,-3.7345,-3.5967,-3.4018,-3.1778,-2.9092,-2.6737,-2.4613,-2.2662,-2.1379,-2.0325,-1.9561,-1.8739,-1.823,-1.8065,-1.8407,-1.8601,-1.8489,-1.9125,-1.9524,-1.9636,-2.0396,-2.106,-2.1675,-2.2141,-2.2706,0.0,0.0,0.0,0.0,0.0,0.0,0.0,0.0,0.0,0.0,0.0,-5.0619,0.0,0.0,-5.7396,-5.9192,-6.054,-6.1622,-6.2388,-6.2331,-6.2513,-6.347,-6.3002,-6.2871,-6.3644,-6.3132,-6.303,-6.3841,-6.3498,-6.3989,-6.5794,-6.5694,-6.6241,-6.7769,-6.8346,-6.8257,-6.7441,-6.727,-6.6404,-6.4793,-6.4263,-6.3586,-6.2612,-6.409,-6.444,-6.409,-6.5546,-6.6367,-6.6616,-6.6143,-6.5199,-6.3792,-6.1934,-6.0832,-6.0147,-5.9607,-5.87,-5.7642,-5.7111,-5.6518,-5.5839,-5.5357,-5.522,-5.5059,-5.4278,-5.3358,-5.241,-5.1186,-5.0053,-4.8929,-4.7838,-4.657,-4.5412,-4.4451,-4.3316,-4.2311,-4.1627,-4.1315,-4.1112,-4.0954,-4.134,-4.1662,-4.1593,-4.1316,-4.0736,-3.9699,-3.8978,-3.8126,-3.6714,-3.4413,-3.2077,-2.9902,-2.6978,-2.4414,-2.2714,-2.1067,-1.9897,-1.9318,-1.883,-1.8513,-1.8336,-1.8679,-1.8779,-1.8533,-1.9059,-1.9328,-1.9328,-2.0076,-2.055,-2.0891,-2.1495,-2.2274,0.0,0.0,0.0,0.0,0.0,0.0,0.0,0.0,-4.7183,-5.1362,-5.3478,-5.5331,-5.8012,-5.9469,-6.0471,-6.1334,-6.189,-6.2145,-6.2076,-6.1754,-6.1853,-6.297,-6.239,-6.2216,-6.3008,-6.2244,-6.2163,-6.324,-6.2507,-6.3203,-6.5694,-6.5086,-6.5706,-6.8157,-6.8396,-6.8229,-6.7881,-6.7332,-6.6342,-6.4853,-6.4198,-6.3374,-6.2321,-6.4002,-6.4265,-6.3675,-6.5404,-6.6129,-6.5917,-6.5185,-6.4247,-6.3142,-6.2263,-6.1256,-6.0099,-5.907,-5.813,-5.7207,-5.6768,-5.6336,-5.5977,-5.532,-5.5031,-5.4825,-5.3645,-5.2696,-5.1797,-5.0905,-4.9729,-4.862,-4.7773,-4.6417,-4.5172,-4.4582,-4.3032,-4.1719,-4.1615,-4.0875,-4.0225,-4.0273,-4.0354,-4.0682,-4.1409,-4.14,-4.0975,-4.0129,-3.9558,-3.8724,-3.7395,-3.494,-3.2544,-3.0509,-2.7179,-2.4322,-2.2288,-2.0742,-1.9621,-1.9084,-1.913,-1.9018,-1.8483,-1.8926,-1.8976,-1.8539,-1.8804,-1.8896,-1.888,-1.9484,-1.9747,-1.9692,-2.0686,-2.1674,-3.8239,-3.8821,0.0,-4.3335,-4.3784,-4.5313,0.0,0.0,-5.3961,-5.7839,-5.9613,-6.0375,-6.0326,-6.1272,-6.197,-6.1521,-6.1614,-6.1617,-6.1604,-6.1506,-6.1417,-6.108,-6.0988,-6.0861,-6.0413,-6.0009,-6.017,-6.1231,-6.0821,-6.1547,-6.4038,-6.4038,-6.4963,-6.7116,-6.7643,-6.7854,-6.7906,-6.6962,-6.5949,-6.4829,-6.3812,-6.3571,-6.3763,-6.444,-6.4615,-6.4552,-6.5404,-6.538,-6.4999,-6.5186,-6.4556,-6.3275,-6.3056,-6.1801,-6.0099,-5.907,-5.813,-5.7207,-5.6768,-5.6567,-5.6352,-5.5078,-5.4698,-5.4342,-5.2484,-5.1535,-5.0882,-4.9917,-4.9229,-4.862,-4.7773,-4.6417,-4.5085,-4.4167,-4.2791,-4.1523,-4.0839,-4.001,-3.925,-3.8961,-3.9231,-3.9681,-4.0082,-4.0715,-4.1435,-4.2145,-4.122,-3.9746,-3.7976,-3.5343,-3.2588,-2.9799,-2.6646,-2.358,-2.0618,-2.0493,-1.998,-1.8496,-1.8952,-1.8758,-1.7693,-1.8712,-1.8857,-1.7942,-1.814,-1.8261,-1.8098,-1.901,-1.9267,-1.8944,-2.0218,-2.1126,-4.1537,0.0,0.0,0.0,-4.9249,-5.1222,-5.5512,-5.6541,-5.755,-6.0948,-6.2061,-6.2223,-6.181,-6.2069,-6.2191,0.0,-6.0927,-6.0916,-6.1448,-6.0798,-6.016,-5.9894,-5.9689,-5.9452,-5.9163,-5.8708,-5.8776,-5.9522,-5.9916,-6.1084,-6.3374,-6.3704,-6.4925,-6.7392,-6.7429,-6.7156,-6.6591,-6.5918,-6.4661,-6.2764,-6.2889,-6.2629,-6.1963,-6.3562,-6.4265,-6.4265,-6.4304,-6.4133,-6.3913,-6.3767,-6.3155,-6.2434,-6.2678,-6.1341,-5.9273,-5.8616,-5.7691,-5.6737,-5.6017,-5.5449,-5.4895,-5.432,-5.3791,-5.3138,-5.2317,-5.1525,-5.086,-5.0715,-4.9931,-4.8929,-4.8058,-4.677,-4.5442,-4.4523,-4.2827,-4.1164,-4.0354,-3.955,-3.8663,-3.7798,-3.8196,-3.8879,-3.9467,-4.0316,-4.1327,-4.2617,-4.1931,-4.0715,-3.9281,-3.707,-3.3835,-2.9165,-2.6649,-2.4025,-2.102,-2.0535,-1.9967,-1.89,-1.9079,-1.8949,-1.8255,-1.8684,-1.8507,-1.7561,-1.7774,-1.7915,-1.7828,-1.8526,-1.8783,-1.881,-1.9506,-2.0166,-4.3197,0.0,0.0,-5.1058,-5.3675,-5.6113,-5.7636,-5.8482,-5.9631,-6.2272,-6.2479,-6.203,-6.1566,-6.1437,0.0,-6.0165,-6.0012,-6.0157,-6.0651,-5.9936,-5.9133,-5.8346,-5.7759,-5.7445,-5.7206,-5.7397,-5.7814,-5.8343,-5.9137,-6.0603,-6.2809,-6.3602,-6.5071,-6.7342,-6.7047,-6.6546,-6.5687,-6.4779,-6.3337,-6.1442,-6.2125,-6.1956,-6.1065,-6.3121,-6.4026,-6.4002,-6.3404,-6.3002,-6.2832,-6.247,-6.1923,-6.1547,-6.208,-6.1061,-5.9246,-5.862,-5.7569,-5.635,-5.533,-5.4605,-5.3919,-5.3429,-5.2696,-5.1944,-5.15,-5.1004,-5.0565,-5.0726,-4.9998,-4.8929,-4.8112,-4.6734,-4.5383,-4.4742,-4.3018,-4.1312,-4.0479,-3.9569,-3.8513,-3.7253,-3.7439,-3.8034,-3.8699,-3.952,-4.0592,-4.2147,-4.2104,-4.1549,-4.0461,-3.7753,-3.3966,-2.8874,-2.6545,-2.4312,-2.1684,-2.0636,-1.9788,-1.914,-1.9066,-1.8819,-1.8317,-1.8431,-1.7998,-1.7035,-1.7156,-1.7218,-1.7174,-1.7779,-1.8149,-1.834,-1.8925,-1.945,0.0,0.0,-5.008,-5.3124,-5.62,-5.8897,-6.0544,-6.0553,-6.0504,-6.1664,-6.0733,-5.957,-5.8971,-5.8793,-5.8512,-5.7959,-5.8752,-5.9233,-5.881,-5.9065,-5.8416,-5.5794,-5.5049,-5.452,0.0,-5.5818,-5.7261,-5.779,-5.8241,-5.965,-6.2194,-6.3751,-6.5098,-6.6241,-6.6391,-6.6171,-6.5656,-6.3757,-6.2527,-6.1947,-6.1939,-6.2166,-6.2612,-6.3586,-6.4026,-6.4002,-6.3055,-6.2287,-6.1869,-6.1717,-6.1389,-6.1098,-6.1542,-6.1389,-6.075,-5.9388,-5.7879,-5.6355,-5.4948,-5.4513,-5.4259,-5.2403,-5.1403,-5.0799,-4.9394,-4.9257,-4.9541,-4.914,-4.8636,-4.8155,-4.7619,-4.6068,-4.4604,-4.4582,-4.3468,-4.213,-4.1334,-4.0158,-3.891,-3.7527,-3.7039,-3.6974,-3.7316,-3.8016,-3.911,-4.0625,-4.1828,-4.2234,-4.1253,-3.6461,-3.1957,-2.9025,-2.6248,-2.3946,-2.2194,-2.0693,-1.9503,-1.886,-1.8788,-1.8304,-1.7103,-1.7608,-1.7304,-1.5996,-1.5957,-1.5885,-1.5778,-1.6711,-1.7205,-1.7271,-1.8564,-1.9343,0.0,0.0,-5.226,-5.494,-5.7205,-5.8901,-5.9464,-5.9453,-5.9318,-5.9181,-5.8269,-5.6912,-5.5137,-5.4862,-5.5174,-5.6013,-5.6746,-5.7678,-5.8895,-5.8916,-5.8007,-5.5674,-5.5554,0.0,0.0,0.0,0.0,-5.703,-5.8815,-6.0725,-6.2637,-6.4523,-6.5819,-6.6276,-6.6033,-6.518,-6.3725,-6.2396,-6.1164,-6.0,-6.0639,-6.1695,-6.3056,-6.341,-6.3498,-6.345,-6.2519,-6.1975,-6.1734,-6.099,-6.0436,-6.0085,-6.0882,-6.0592,-5.9569,-5.9058,-5.8403,-5.7366,-5.5601,-5.3942,-5.2555,-5.1891,-5.0774,-4.9561,-4.939,-4.9035,-4.8781,-4.9462,-4.8838,-4.8018,-4.8141,-4.7061,-4.57,-4.5174,-4.3731,-4.2224,-4.1004,-4.003,-3.8997,-3.7675,-3.7338,-3.7318,-3.7402,-3.8038,-3.911,-4.0904,-4.13,-4.1298,-4.0972,-3.7466,-3.3957,-3.1069,-2.848,-2.5539,-2.2112,-2.0557,-1.9265,-1.8037,-1.7966,-1.7752,-1.7373,-1.7114,-1.656,-1.5709,-1.5448,-1.5299,-1.5267,-1.5897,-1.6366,-1.6744,-1.7552,-1.8389,-4.6582,-5.0344,-5.3762,-5.6456,-5.8017,-5.8887,-5.8883,-5.8199,-5.7304,-5.6154,-5.4896,-5.3314,-5.0872,-5.0475,-5.1176,-5.3301,-5.4117,-5.5366,-5.7854,-5.7927,-5.7165,-5.5578,-5.5554,0.0,0.0,0.0,0.0,-5.6764,-5.9324,-6.1202,-6.1967,-6.4612,-6.598,-6.5888,-6.5375,-6.4623,-6.382,-6.2103,-6.0853,-6.0368,-6.073,-6.1784,-6.3322,-6.3153,-6.3177,-6.3298,-6.2456,-6.1975,-6.1734,-6.0674,-6.0037,-5.9853,-6.0277,-6.0077,-5.9459,-5.926,-5.8794,-5.7873,-5.5496,-5.3581,-5.2146,-5.1403,-5.01,-4.8943,-4.9003,-4.8903,-4.8781,-4.9262,-4.8726,-4.804,-4.8088,-4.7099,-4.59,-4.5146,-4.3993,-4.2748,-4.142,-4.0678,-3.9899,-3.8592,-3.7953,-3.7592,-3.7464,-3.7868,-3.8809,-4.0647,-4.0594,-4.041,-4.0604,-3.7989,-3.4998,-3.2067,-2.8623,-2.5186,-2.1992,-1.9735,-1.8198,-1.755,-1.7067,-1.6832,-1.6832,-1.629,-1.5698,-1.5126,-1.4851,-1.472,-1.4617,-1.512,-1.564,-1.6179,-1.6788,-1.7662,-4.7783,-5.1262,-5.4629,-5.7395,-5.8458,-5.8764,-5.8583,-5.6801,-5.4633,-5.2693,-5.0731,-4.864,0.0,0.0,-4.68,-4.9953,-5.1105,-5.2644,-5.5818,-5.6323,-5.6131,0.0,0.0,0.0,0.0,0.0,0.0,-5.7269,0.0,-6.1104,-6.0405,-6.3952,-6.5681,-6.4861,-6.4289,-6.4506,-6.5493,-6.2628,-6.1709,-6.2764,-6.2109,-6.2297,-6.3322,-6.2817,-6.2865,-6.3322,-6.2841,-6.2312,-6.1672,-6.0715,-6.0305,-6.0134,-5.9786,-5.9947,-6.0322,-5.9876,-5.913,-5.7909,-5.494,-5.3626,-5.2899,-5.0916,-4.9619,-4.8798,-4.8318,-4.8798,-4.9322,-4.844,-4.8177,-4.8068,-4.7608,-4.6449,-4.5194,-4.4786,-4.4304,-4.3599,-4.266,-4.212,-4.1503,-4.0124,-3.8827,-3.7842,-3.7355,-3.7445,-3.812,-3.9865,-3.9785,-3.9679,-4.0226,-3.7874,-3.5013,-3.2013,-2.695,-2.3182,-2.1729,-1.83,-1.6518,-1.7349,-1.6242,-1.5542,-1.5542,-1.5235,-1.4759,-1.4232,-1.4172,-1.4099,-1.3996,-1.4531,-1.5031,-1.5479,-1.6323,-1.7198,-4.9365,-5.3495,-5.6955,-5.6674,-5.6926,-5.6709,-5.4578,-5.3086,-5.1316,-4.8217,-4.6268,-4.4343,0.0,0.0,0.0,-4.6981,-5.0078,0.0,-5.6371,-5.7502,0.0,-5.6708,0.0,-5.7141,-5.771,-5.8621,0.0,0.0,-6.1384,-6.2002,-6.2455,-6.4192,-6.4715,-6.385,-6.2988,-6.2628,-6.2866,-6.1362,-6.1456,-6.3214,-6.1562,-6.1699,-6.3233,-6.2441,-6.2513,-6.3322,-6.3201,-6.2449,-6.1264,-6.1034,-5.9994,-5.8671,-5.9384,-5.9473,-5.9392,-5.9582,-5.9309,-5.8579,-5.67,-5.4834,-5.2975,-5.1751,-5.0224,-4.8798,-4.8318,-4.8099,-4.798,-4.7651,-4.755,-4.7516,-4.7329,-4.6514,-4.5632,-4.5146,-4.442,-4.3633,-4.2618,-4.2123,-4.1619,-4.0525,-3.898,-3.7696,-3.7079,-3.6936,-3.7079,-3.7881,-3.7933,-3.8364,-3.9744,-3.815,-3.5517,-3.1824,-2.8182,-2.4578,-2.0917,-1.8468,-1.6751,-1.5758,-1.5175,-1.4828,-1.4828,-1.459,-1.4351,-1.4172,-1.3933,-1.3832,-1.3769,-1.408,-1.4442,-1.4984,-1.5569,-1.6481,-5.1022,-5.4294,-5.6809,-5.6653,-5.5978,-5.4706,-5.213,-5.0006,-4.7403,-4.3481,-4.1476,0.0,0.0,0.0,0.0,0.0,0.0,0.0,-5.5332,-5.6375,-5.6905,0.0,-5.8175,0.0,-5.92,-5.9883,-6.1061,0.0,-6.2678,-6.2385,-6.2,-6.3165,-6.3339,-6.2202,-6.1754,-6.1741,-6.2285,-6.2337,-6.2849,-6.3734,-6.2147,-6.1972,-6.2967,-6.2,-6.2048,-6.2967,0.0,-6.2305,-6.109,-6.0916,-5.9758,-5.8142,-5.8733,-5.8881,-5.871,-5.9215,-5.9077,-5.8526,-5.7462,-5.583,-5.3845,-5.2287,-5.0725,-4.9276,-4.8221,-4.7684,-4.7455,-4.7103,-4.6871,-4.677,-4.695,-4.6345,-4.5486,-4.5074,-4.442,-4.3725,-4.3093,-4.2827,-4.2254,-4.071,-3.913,-3.7789,-3.704,-3.6695,-3.6551,-3.6648,-3.6658,-3.7029,-3.7941,-3.7018,-3.505,-3.1799,-2.8221,-2.4511,-2.0673,-1.8134,-1.6166,-1.4986,-1.4461,-1.4192,-1.4084,-1.4004,-1.3954,-1.3857,-1.3765,-1.3693,-1.3693,-1.3901,-1.418,-1.4567,-1.5086,-1.5929,-5.2105,-5.4122,-5.5619,-5.6771,-5.5419,-5.3178,-5.0632,-4.7278,-4.3521,-3.9137,0.0,-3.521,-3.3074,0.0,-3.7771,-4.1855,0.0,-4.733,-5.3385,-5.4162,-5.5264,-5.8198,-5.8914,-5.9592,-6.0892,-6.0797,-6.1634,-6.3804,-6.3428,-6.2515,-6.1002,-6.1941,-6.1923,-6.0448,-6.081,-6.1521,-6.2705,-6.375,-6.423,-6.4115,-6.2909,-6.2469,-6.2588,-6.1534,-6.167,-6.2612,0.0,0.0,-6.1003,-6.0544,-5.9498,-5.8009,-5.8172,-5.8204,-5.825,-5.8801,-5.8664,-5.8135,-5.7722,-5.6662,-5.5144,-5.2801,-5.1316,-5.0091,-4.8332,-4.7761,-4.7553,-4.692,-4.6483,-4.6264,-4.6548,-4.598,-4.5194,-4.4713,-4.4211,-4.3872,-4.3738,-4.3609,-4.2989,-4.0892,-3.9404,-3.8124,-3.7205,-3.671,-3.6346,-3.5947,-3.5837,-3.5747,-3.5565,-3.5179,-3.4106,-3.1988,-2.7753,-2.3954,-2.1045,-1.7815,-1.554,-1.4679,-1.4043,-1.3608,-1.3302,-1.353,-1.3558,-1.3417,-1.3618,-1.3763,-1.3731,-1.3892,-1.409,-1.4317,-1.4813,-1.5455,-5.1016,-5.3879,-5.6152,-5.5204,-5.4391,-5.2847,-4.9038,-4.5178,0.0,0.0,0.0,-3.2942,-3.1233,-3.2942,0.0,-3.8918,0.0,0.0,0.0,0.0,-5.4986,0.0,0.0,0.0,0.0,0.0,0.0,0.0,0.0,0.0,-6.3556,-6.2939,-6.1784,-5.9894,-6.0345,-6.1239,-6.2705,-6.1741,-6.214,-6.4115,-6.2282,-6.1803,-6.2588,-6.1647,-6.167,-6.2612,-6.2612,0.0,-6.0544,-6.0457,-5.9348,-5.7602,-5.7998,-5.8204,-5.825,-5.8801,-5.8664,-5.8181,-5.8113,-5.7401,-5.6129,-5.4146,-5.2316,-5.0667,-4.9605,-4.896,-4.8383,-4.7094,-4.6963,-4.7073,-4.6308,-4.5718,-4.5194,-4.4713,-4.4211,-4.3872,-4.3738,-4.3283,-4.2728,-4.1927,-4.0403,-3.8916,-3.8021,-3.7266,-3.6428,-3.5323,-3.5152,-3.4947,-3.4471,-3.4216,-3.3657,-3.2385,-2.8576,-2.4923,-2.216,-1.9023,-1.6469,-1.4689,-1.4043,-1.3426,-1.2851,-1.3126,-1.3328,-1.3475,-1.3769,-1.3969,-1.3958,-1.4007,-1.407,-1.4307,-1.4408,-1.4846,-5.0699,-5.3182,-5.5314,-5.4945,-5.382,-5.1708,-4.7589,0.0,0.0,0.0,0.0,-3.0036,-2.9424,0.0,0.0,0.0,0.0,0.0,0.0,0.0,0.0,0.0,0.0,0.0,0.0,0.0,0.0,0.0,0.0,0.0,-6.4643,-6.2689,-6.1126,-6.0143,-5.9904,-5.9986,-6.0397,-6.0614,-6.1145,-6.1827,-6.1299,-6.1346,-6.1897,-6.1126,-6.1215,-6.1897,-6.1615,0.0,-5.9996,-5.9715,-5.8745,-5.7493,-5.7722,-5.7837,-5.7814,-5.7791,-5.7197,-5.6449,-5.6622,-5.6038,-5.5122,-5.4445,-5.3198,-5.1653,-4.974,-4.8731,-4.7904,-4.6689,-4.6352,-4.6308,-4.6068,-4.5478,-4.4888,-4.4648,-4.3981,-4.347,-4.3594,-4.2973,-4.2256,-4.1721,-4.0373,-3.9081,-3.7916,-3.7123,-3.61,-3.4417,-3.4286,-3.4028,-3.3135,-3.2889,-3.27,-3.2461,-2.9048,-2.5809,-2.333,-2.01,-1.7245,-1.4997,-1.4102,-1.3338,-1.2583,-1.2611,-1.2888,-1.335,-1.3579,-1.3816,-1.4014,-1.3988,-1.4093,-1.4307,-1.4307,-1.4725,-5.0171,-5.2268,-5.3992,-5.4595,-5.3023,-5.0259,-4.6057,-4.0576,0.0,0.0,-2.9363,-2.7784,-2.8014,0.0,0.0,0.0,0.0,0.0,0.0,0.0,0.0,0.0,0.0,0.0,0.0,0.0,0.0,0.0,0.0,0.0,-6.4879,-6.2445,-6.0862,-6.0289,-5.9133,-5.8418,-5.8326,-5.9452,-5.9847,-5.9602,-6.0021,-6.059,-6.1219,-6.0475,-6.0565,-6.1172,-6.0481,0.0,0.0,-5.8948,-5.8247,-5.747,-5.747,-5.7297,-5.6992,-5.6925,-5.5816,-5.4432,-5.5149,-5.4773,-5.39,-5.4176,-5.3789,-5.2804,-5.0221,-4.8576,-4.7432,-4.6602,-4.5757,-4.5379,-4.5862,-4.5369,-4.4692,-4.4495,-4.3841,-4.3237,-4.3148,-4.2616,-4.19,-4.1075,-3.997,-3.8795,-3.7645,-3.6835,-3.5715,-3.3723,-3.3613,-3.3277,-3.207,-3.1649,-3.1608,-3.1981,-2.9239,-2.6505,-2.4277,-2.1262,-1.8326,-1.5591,-1.451,-1.3511,-1.239,-1.226,-1.25,-1.3024,-1.3365,-1.3676,-1.3948,-1.4103,-1.4189,-1.4307,-1.4355,-1.469,-4.8661,-5.075,-5.2585,-5.3114,-5.1664,-4.8748,-4.4215,0.0,0.0,-3.1029,-2.8674,-2.7319,-2.7516,-2.7943,-2.9027,0.0,0.0,0.0,0.0,0.0,0.0,0.0,0.0,0.0,0.0,0.0,0.0,0.0,0.0,0.0,0.0,-6.3226,-6.1705,-5.9778,-5.7928,-5.7421,-5.8326,-5.7122,-5.7357,-5.9051,-5.7798,-5.8625,-6.1127,-5.9743,-5.9922,-6.1104,-6.01,0.0,0.0,-5.8413,-5.7923,-5.747,-5.747,-5.6668,-5.5664,-5.6969,-5.5677,-5.3582,-5.5354,-5.5024,-5.3844,-5.3428,-5.3753,-5.3995,-5.2052,-4.9979,-4.8221,-4.7552,-4.6201,-4.5121,-4.5791,-4.5631,-4.5019,-4.4146,-4.4051,-4.3796,-4.237,-4.2208,-4.1861,-4.0642,-3.9339,-3.8248,-3.775,-3.6943,-3.5743,-3.3841,-3.3596,-3.3161,-3.1794,-3.0857,-3.0327,-3.0347,-2.8879,-2.6981,-2.4654,-2.2521,-1.9951,-1.6655,-1.5569,-1.4202,-1.2188,-1.2305,-1.237,-1.2354,-1.3304,-1.3814,-1.3841,-1.4332,-1.4476,-1.4317,-1.4515,-1.4629,-4.7021,-4.9811,-5.1899,-5.1912,-5.0401,-4.7796,-4.3491,0.0,0.0,-3.086,-2.8268,-2.6741,-2.7443,-2.7631,-2.8082,-2.9124,0.0,0.0,0.0,0.0,0.0,0.0,0.0,0.0,0.0,0.0,0.0,0.0,0.0,0.0,0.0,-6.3407,-6.2534,-6.1096,-5.827,-5.6414,-5.565,-5.6429,-5.6798,-5.6866,-5.8308,-5.945,-6.0256,-5.9965,-5.9965,-6.021,-5.92,0.0,0.0,-5.6674,-5.6297,-5.6145,-5.6213,-5.5859,-5.5307,-5.564,-5.3975,-5.17,-5.2996,-5.2953,-5.2213,-5.2,-5.2778,-5.3446,-5.1752,-4.984,-4.8114,-4.7052,-4.6407,-4.5836,-4.5116,-4.4919,-4.4698,-4.3947,-4.3123,-4.2366,-4.1866,-4.1118,-4.0268,-3.9562,-3.8763,-3.804,-3.7327,-3.6771,-3.5762,-3.3862,-3.3757,-3.3164,-3.1057,-3.048,-2.9583,-2.775,-2.7014,-2.6076,-2.4678,-2.2586,-2.0228,-1.7537,-1.6349,-1.5018,-1.349,-1.2806,-1.2642,-1.3075,-1.3308,-1.364,-1.412,-1.4304,-1.4433,-1.4506,-1.4459,-1.4572,-4.503,-4.8014,-5.0227,-5.014,-4.8527,-4.606,0.0,0.0,0.0,-3.054,-2.8249,-2.6919,-2.7562,-2.768,-2.7779,-2.7967,0.0,-3.0168,0.0,0.0,0.0,0.0,0.0,0.0,0.0,0.0,0.0,0.0,0.0,0.0,0.0,-6.2824,-6.2048,-6.0934,-5.8517,-5.6281,-5.4318,-5.5839,-5.6258,-5.5638,-5.7889,-5.9254,-5.9899,-5.9648,-5.9579,-5.9623,0.0,0.0,0.0,-5.5292,-5.4961,-5.4697,-5.4696,-5.4412,-5.404,-5.4149,-5.2386,-5.0134,-5.1379,-5.1418,-5.0914,-5.0788,-5.1572,-5.2363,-5.097,-4.947,-4.7933,-4.7203,-4.6789,-4.5976,-4.3853,-4.3933,-4.4286,-4.303,-4.2183,-4.1497,-4.0857,-3.9803,-3.8833,-3.8324,-3.7911,-3.7483,-3.6868,-3.6581,-3.576,-3.388,-3.3755,-3.2888,-3.0252,-2.968,-2.8499,-2.5831,-2.505,-2.4571,-2.405,-2.2512,-2.068,-1.8496,-1.728,-1.6085,-1.4677,-1.3711,-1.3287,-1.352,-1.3444,-1.3685,-1.412,-1.4323,-1.4436,-1.4629,-1.4534,-1.4648,-4.2467,-4.5018,-4.7123,-4.7569,-4.5719,-4.3008,0.0,0.0,-3.2484,-2.9869,-2.8716,-2.8093,-2.7958,-2.7924,-2.7925,-2.7967,-2.8785,0.0,0.0,0.0,0.0,0.0,0.0,0.0,0.0,0.0,0.0,0.0,0.0,0.0,0.0,-6.1272,-5.967,-5.8132,-5.819,-5.7314,-5.5283,-5.4803,-5.5162,-5.605,-5.566,-5.7201,-6.0322,-5.8478,-5.843,0.0,0.0,0.0,0.0,-5.4807,-5.4078,-5.3187,-5.3187,-5.2355,-5.1334,-5.2728,-5.1453,-4.9302,-5.1134,-5.1155,-5.0335,-4.9932,-5.0419,-5.0972,-4.9955,-4.8797,-4.7941,-4.8583,-4.7421,-4.5264,-4.1936,-4.2837,-4.388,-4.1038,-4.1523,-4.1854,-3.9007,-3.8389,-3.7995,-3.6923,-3.6432,-3.6165,-3.6353,-3.6396,-3.5758,-3.3914,-3.3375,-3.2235,-2.9484,-2.8168,-2.6854,-2.4996,-2.3273,-2.2348,-2.2587,-2.2538,-2.1584,-1.9549,-1.8568,-1.7295,-1.5456,-1.4981,-1.4354,-1.343,-1.3796,-1.3939,-1.3806,-1.4323,-1.4617,-1.4574,-1.4772,-1.4931,-3.8136,-4.0512,-4.2199,-4.1975,-4.0868,-3.9088,-3.6078,0.0,-3.1236,-2.9193,-2.833,-2.8036,-2.8102,-2.8131,-2.8678,-3.0405,-3.1223,0.0,0.0,0.0,0.0,0.0,0.0,0.0,0.0,0.0,0.0,0.0,0.0,0.0,0.0,-6.0363,-5.9149,-5.8706,-5.7376,-5.6178,-5.529,-5.5484,-5.6072,-5.7155,-5.7981,-5.8876,-5.9899,-5.9625,0.0,0.0,0.0,0.0,0.0,-5.3387,-5.256,-5.1701,-5.1676,-5.1425,-5.1131,-5.1618,-5.0617,-4.9135,-5.0053,-5.0797,-5.1245,-5.0911,-5.1381,-5.2089,-5.2053,-5.0631,-4.8849,-4.8143,-4.6658,-4.4888,-4.3509,-4.3457,-4.3534,-4.2542,-4.1785,-4.0941,-3.9827,-3.901,-3.8196,-3.7053,-3.6596,-3.6311,-3.5893,-3.519,-3.4085,-3.2513,-3.1797,-3.0483,-2.7893,-2.6739,-2.529,-2.3156,-2.1695,-2.1175,-2.1857,-2.1374,-2.0541,-1.9417,-1.8757,-1.7902,-1.696,-1.6216,-1.5681,-1.533,-1.503,-1.4888,-1.49,-1.4788,-1.4721,-1.4574,-1.4837,-1.4865,0.0,-3.6819,-3.8257,-3.8097,-3.736,0.0,0.0,0.0,-3.0681,-2.9347,-2.889,-2.8697,-2.8644,-2.8856,-2.9539,-3.088,-3.1932,0.0,0.0,0.0,0.0,0.0,0.0,0.0,0.0,0.0,0.0,0.0,0.0,0.0,0.0,0.0,-5.7676,-5.7315,-5.6802,-5.6157,-5.5498,-5.5851,-5.6613,-5.7783,-5.8204,-5.8564,-5.8865,-5.8391,0.0,0.0,0.0,0.0,0.0,-5.2492,-5.1409,-5.0245,-5.021,-5.0338,-5.0531,-5.0325,-4.9924,-4.9307,-4.9482,-5.0502,-5.1701,-5.1359,-5.1638,-5.2304,-5.2741,-5.1552,-4.965,-4.7614,-4.633,-4.5078,-4.3081,-4.2981,-4.3026,-4.142,-4.0655,-4.0179,-3.962,-3.8507,-3.7671,-3.7728,-3.6684,-3.5735,-3.5623,-3.4489,-3.3124,-3.1501,-3.0657,-2.9319,-2.686,-2.5639,-2.4179,-2.2157,-2.0701,-2.0144,-2.0658,-2.0237,-1.9727,-1.9358,-1.8978,-1.857,-1.8103,-1.7568,-1.7143,-1.6844,-1.636,-1.5954,-1.5718,-1.5202,-1.4925,-1.4945,-1.4939,-1.48,0.0,-3.3697,0.0,0.0,0.0,0.0,0.0,0.0,0.0,-3.0075,-2.9994,-2.9891,-2.9559,-3.0079,-3.0486,-3.027,-3.1686,0.0,0.0,0.0,0.0,0.0,0.0,0.0,0.0,0.0,0.0,0.0,0.0,0.0,0.0,0.0,-5.5434,-5.4606,-5.6326,-5.6757,-5.5817,-5.5959,-5.6676,-5.805,-5.6821,-5.6596,-5.739,-5.5517,0.0,0.0,0.0,0.0,0.0,-5.2132,-5.057,-4.8867,-4.8867,-4.9235,-4.9592,-4.917,-4.9345,-4.9725,-4.9224,-5.0312,-5.1853,-5.1595,-5.1788,-5.2165,-5.2344,-5.1593,-5.0117,-4.7139,-4.6428,-4.561,-4.1238,-4.161,-4.2255,-3.8457,-3.868,-3.9475,-3.8617,-3.7193,-3.6671,-3.8674,-3.6628,-3.4707,-3.5364,-3.4246,-3.2647,-3.0754,-2.9843,-2.8552,-2.6304,-2.4828,-2.3378,-2.1876,-2.0289,-1.9311,-1.9311,-1.9239,-1.9226,-1.9239,-1.9239,-1.9168,-1.8894,-1.8906,-1.8643,-1.7997,-1.7631,-1.7083,-1.6312,-1.5582,-1.5292,-1.5463,-1.5137,-1.4931,-2.7651,0.0,-2.9895,-2.9691,-2.9691,-2.9668,0.0,0.0,-2.9553,-2.9647,-2.9889,-3.0284,-3.1236,-3.1222,-3.1792,0.0,0.0,0.0,0.0,0.0,0.0,0.0,0.0,0.0,0.0,0.0,0.0,0.0,0.0,0.0,0.0,0.0,-5.5248,-5.5041,-5.5175,-5.5125,-5.4953,-5.5726,-5.6403,-5.716,-5.6816,-5.6544,-5.6382,-5.5242,0.0,0.0,0.0,0.0,-5.3586,-5.1511,-4.9931,-4.8867,-4.8867,-4.9037,-4.917,-4.9049,-4.9141,-4.9204,-4.91,-5.0803,-5.3123,-5.399,-5.4606,-5.4681,-5.3243,-5.0972,-4.867,-4.7498,-4.6301,-4.4857,-4.2463,-4.1711,-4.1183,-3.9585,-3.9403,-3.9323,-3.8577,-3.7922,-3.74,-3.7257,-3.5938,-3.4733,-3.4222,-3.2871,-3.1258,-2.9478,-2.8144,-2.6932,-2.5861,-2.3913,-2.2453,-2.2082,-2.0388,-1.9278,-1.9309,-1.8877,-1.8606,-1.8596,-1.8867,-1.8946,-1.8881,-1.9134,-1.9148,-1.9001,-1.8166,-1.7372,-1.6634,-1.6202,-1.5854,-1.5463,-1.5398,-1.5202,-2.6121,-2.7137,-2.7988,-2.7969,-2.8475,-2.8945,-2.892,0.0,0.0,0.0,0.0,0.0,0.0,0.0,0.0,0.0,0.0,0.0,0.0,0.0,0.0,0.0,0.0,0.0,0.0,0.0,0.0,0.0,0.0,0.0,0.0,0.0,-5.4793,-5.4586,-5.3944,-5.4017,-5.4932,-5.5943,-5.6422,-5.6465,-5.576,-5.5107,-5.4358,-5.3001,-5.3232,0.0,0.0,0.0,-5.3077,-5.1127,-4.9768,-4.8867,-4.8867,-4.9032,-4.9212,-4.9081,-4.927,-4.9646,-4.9287,-5.0932,-5.3576,-5.5041,-5.5875,-5.5916,-5.4098,-5.1602,-4.9161,-4.8389,-4.719,-4.5546,-4.281,-4.1716,-4.0982,-3.9233,-3.8974,-3.9017,-3.8779,-3.8035,-3.7397,-3.7668,-3.6091,-3.4527,-3.4071,-3.2588,-3.0894,-2.9076,-2.7701,-2.6376,-2.5058,-2.349,-2.227,-2.1754,-2.0402,-1.9512,-1.9559,-1.9095,-1.8809,-1.8835,-1.912,-1.9227,-1.9127,-1.9434,-1.9641,-1.9702,-1.9037,-1.8316,-1.7596,-1.6954,-1.6445,-1.5919,-1.5658,-1.5398,-2.5941,-2.6975,-2.7924,-2.8127,-2.9046,-2.9884,-2.9877,0.0,0.0,0.0,0.0,0.0,0.0,0.0,0.0,0.0,0.0,0.0,0.0,0.0,0.0,0.0,0.0,0.0,0.0,0.0,0.0,0.0,0.0,0.0,0.0,0.0,0.0,-5.3373,-5.2765,-5.3227,-5.4837,-5.5834,-5.6099,-5.5505,-5.4348,-5.3184,-5.1984,-5.0252,-5.0495,0.0,0.0,0.0,-5.2305,-5.0621,-4.9525,-4.8848,-4.8711,-4.9039,-4.9398,-4.9031,-4.9377,-5.0012,-4.9556,-5.0953,-5.3273,-5.5037,-5.5923,-5.6115,-5.4568,-5.2583,-5.0491,-4.917,-4.7883,-4.6142,-4.282,-4.1718,-4.0939,-3.8648,-3.8387,-3.8602,-3.8743,-3.7578,-3.6964,-3.8216,-3.6169,-3.4215,-3.4207,-3.2783,-3.1032,-2.9306,-2.7994,-2.6471,-2.4665,-2.3387,-2.2342,-2.1479,-2.0542,-2.0029,-2.0007,-1.9824,-1.962,-1.9574,-1.9698,-1.964,-1.9452,-1.972,-1.9913,-2.0045,-1.9764,-1.9215,-1.8507,-1.7625,-1.6915,-1.6504,-1.5854,-1.5548,-2.6684,-2.8003,-2.8647,-2.7905,-2.8971,-3.0265,-3.0265,-3.0935,0.0,0.0,0.0,0.0,0.0,0.0,0.0,0.0,0.0,0.0,0.0,0.0,0.0,0.0,0.0,0.0,0.0,0.0,0.0,0.0,0.0,0.0,0.0,0.0,0.0,-5.1501,-5.2075,-5.2559,-5.2888,-5.4259,-5.4217,-5.2951,-5.3218,-5.2139,-5.0071,-4.9334,-4.9827,0.0,0.0,-5.021,-5.1719,-4.9418,-4.8699,-4.8789,-4.8066,-4.8044,-4.8524,-4.847,-4.8507,-4.8958,-5.0353,-5.1124,-5.1831,-5.3531,-5.4417,-5.466,-5.3604,-5.2709,-5.1505,-4.9154,-4.6486,-4.4109,-4.315,-4.1791,-4.0364,-3.9235,-3.8806,-3.8287,-3.7274,-3.6596,-3.6189,-3.6155,-3.4853,-3.3787,-3.3877,-3.2625,-3.1187,-2.9997,-2.8097,-2.6552,-2.5959,-2.4018,-2.2611,-2.2409,-2.152,-2.0956,-2.0886,-2.1101,-2.1154,-2.0917,-2.0178,-1.9792,-1.9746,-2.0013,-1.9898,-1.9366,-1.9585,-1.9159,-1.8098,-1.7701,-1.7202,-1.6504,-1.6104,-1.5879,-2.575,-2.6971,-2.8018,-2.891,-3.0921,-3.2748,-3.3059,-3.3634,0.0,0.0,0.0,0.0,0.0,0.0,0.0,0.0,0.0,0.0,0.0,0.0,0.0,0.0,0.0,0.0,0.0,0.0,0.0,0.0,0.0,0.0,0.0,0.0,0.0,0.0,-5.1738,-5.2168,-5.2506,-5.4129,-5.4255,-5.276,-5.3034,-5.1975,-4.9604,-4.9144,-4.9326,-4.9952,0.0,-4.9802,-5.0671,-5.0245,-4.9934,-4.9662,-4.9502,-4.9372,-4.9331,-4.8882,-4.875,-4.8991,-5.0647,-5.1164,-5.1381,-5.2659,-5.3428,-5.3749,-5.297,-5.1906,-5.0715,-4.9471,-4.7343,-4.5068,-4.3528,-4.235,-4.1194,-3.9832,-3.9202,-3.8681,-3.7922,-3.708,-3.6348,-3.5952,-3.5048,-3.4215,-3.3849,-3.323,-3.2298,-3.0731,-2.9177,-2.7572,-2.5881,-2.455,-2.3446,-2.2702,-2.2384,-2.2212,-2.2158,-2.2286,-2.2088,-2.1266,-2.0462,-1.9992,-2.004,-2.0138,-2.0038,-1.973,-1.984,-1.9352,-1.8302,-1.8121,-1.7542,-1.6681,-1.6287,-1.6078,-2.5055,-2.6249,-2.7633,-2.987,-3.2041,-3.4053,-3.5425,-3.6129,-3.6729,0.0,0.0,0.0,0.0,0.0,0.0,0.0,0.0,0.0,0.0,0.0,0.0,0.0,0.0,0.0,0.0,0.0,0.0,0.0,0.0,0.0,0.0,0.0,0.0,0.0,-5.0964,-5.1616,-5.2157,-5.382,-5.4122,-5.3279,-5.3189,-5.1965,-4.9651,-4.9019,-4.8677,-4.8493,-4.8952,-4.9152,-4.9312,-5.0634,-5.0806,-5.0143,-5.0425,-5.0082,-4.9461,-4.9012,-4.8932,-4.9118,-5.0551,-5.092,-5.1059,-5.2024,-5.2561,-5.2797,-5.2287,-5.1068,-4.9863,-4.9392,-4.8145,-4.6442,-4.4164,-4.3001,-4.1999,-4.0432,-3.9639,-3.9017,-3.8457,-3.7551,-3.6726,-3.618,-3.5489,-3.4828,-3.4043,-3.3794,-3.3106,-3.154,-3.0019,-2.8362,-2.6096,-2.5149,-2.4307,-2.3221,-2.3227,-2.3304,-2.3238,-2.3238,-2.277,-2.1735,-2.0903,-2.0456,-2.0443,-2.0301,-2.0185,-2.0047,-1.9913,-1.9374,-1.8471,-1.8319,-1.7785,-1.6845,-1.6471,-1.6258,-2.5619,-2.708,-2.8471,-3.0087,-3.059,-3.1801,-3.5837,-3.7079,0.0,-4.1174,0.0,0.0,0.0,0.0,0.0,0.0,0.0,0.0,0.0,0.0,0.0,0.0,0.0,0.0,0.0,0.0,0.0,0.0,0.0,0.0,0.0,0.0,0.0,0.0,0.0,-5.023,-5.1226,-5.2136,-5.2992,-5.3734,-5.3394,-5.1982,-4.9671,-4.8681,-4.7793,-4.7081,-4.7531,-4.7707,-4.7887,-4.9276,-4.9778,-4.9593,-4.9318,-4.8398,-4.7366,-4.8153,-4.8493,-4.8667,-5.0006,-5.0223,-5.0085,-5.1461,-5.1809,-5.1702,-5.1317,-5.0823,-4.9986,-4.8296,-4.7403,-4.6637,-4.5212,-4.368,-4.2174,-4.1251,-4.0065,-3.8859,-3.7706,-3.7427,-3.7014,-3.5876,-3.5616,-3.5306,-3.4514,-3.3761,-3.2939,-3.2132,-2.9951,-2.818,-2.7652,-2.6093,-2.4929,-2.459,-2.4266,-2.3891,-2.3565,-2.3565,-2.3407,-2.2971,-2.1825,-2.1108,-2.1067,-2.0518,-1.9985,-1.9661,-1.9502,-1.8923,-1.7928,-1.795,-1.7685,-1.7162,-1.6542,-1.6338,-2.4375,-2.598,-2.7713,-2.932,-3.093,0.0,0.0,-3.9471,-4.1586,-4.3977,-4.5283,0.0,0.0,0.0,0.0,0.0,0.0,0.0,0.0,0.0,0.0,0.0,0.0,0.0,0.0,0.0,0.0,0.0,0.0,0.0,0.0,0.0,0.0,0.0,0.0,-4.9636,-4.9811,-5.1597,-5.23,-5.2125,-5.1974,-5.062,-4.8365,-4.8005,-4.7344,-4.6562,-4.7612,-4.7702,-4.7346,-4.9687,-5.0269,-4.9664,-4.9866,-4.9045,-4.7809,-4.7837,-4.8069,-4.8406,-4.8925,-4.9372,-4.9826,-5.0714,-5.0893,-5.0791,-5.0432,-4.9973,-4.9301,-4.8067,-4.7568,-4.7134,-4.5768,-4.4842,-4.3919,-4.2269,-4.1285,-4.0294,-3.88,-3.7909,-3.711,-3.618,-3.5787,-3.5274,-3.4237,-3.3964,-3.3555,-3.2271,-3.1113,-2.9767,-2.8013,-2.7219,-2.6273,-2.5069,-2.48,-2.467,-2.454,-2.4346,-2.3963,-2.3379,-2.2507,-2.1774,-2.138,-2.0706,-2.0131,-1.9542,-1.914,-1.8587,-1.7895,-1.7895,-1.7639,-1.7059,-1.6689,-1.6275,-2.3722,-2.547,-2.768,-2.9538,0.0,0.0,-3.9132,-4.181,-4.4209,-4.6853,-4.8365,0.0,0.0,0.0,0.0,0.0,0.0,0.0,0.0,0.0,0.0,0.0,0.0,0.0,0.0,0.0,0.0,0.0,0.0,0.0,0.0,0.0,0.0,0.0,-4.917,-4.9465,-4.9168,-5.0915,-5.1379,-5.0462,-5.0459,-4.9651,-4.8276,-4.7847,-4.7187,-4.6504,-4.7225,-4.7236,-4.6895,-4.9321,-5.0053,-4.9791,-5.0092,-4.925,-4.7881,-4.7866,-4.8001,-4.8204,-4.8803,-4.9447,-5.0011,-5.0647,-5.0606,-5.0337,-4.9908,-4.9431,-4.8852,-4.7775,-4.7672,-4.7589,-4.6244,-4.5603,-4.4915,-4.3366,-4.2076,-4.087,-3.9672,-3.851,-3.7485,-3.6666,-3.6194,-3.5495,-3.4047,-3.4163,-3.3932,-3.2467,-3.1806,-3.0805,-2.8924,-2.8288,-2.7366,-2.5887,-2.5535,-2.5294,-2.5138,-2.48,-2.4266,-2.3551,-2.2915,-2.2347,-2.166,-2.0875,-2.0166,-1.9567,-1.9001,-1.8376,-1.7807,-1.7664,-1.7371,-1.6874,-1.6576,-1.6088,-2.4028,-2.5967,-2.8699,0.0,0.0,0.0,-4.2011,-4.3938,-4.5753,-5.0022,0.0,-4.9964,-5.0042,0.0,0.0,0.0,0.0,0.0,0.0,0.0,0.0,0.0,0.0,0.0,0.0,0.0,0.0,0.0,0.0,0.0,0.0,0.0,0.0,0.0,-4.9308,-4.9584,-4.9584,-5.0114,-4.9913,-4.895,-4.895,-4.9232,-4.9658,-4.8276,-4.7344,-4.6875,-4.6035,-4.5918,-4.6376,-4.7814,-4.897,-4.9799,-4.9711,-4.8596,-4.7161,-4.8009,-4.8084,-4.7989,-4.9725,-5.0387,-5.0564,-5.1508,-5.1115,-5.0346,-4.9949,-4.9431,-4.879,-4.7424,-4.7693,-4.8065,-4.6699,-4.5685,-4.493,-4.4432,-4.2336,-4.0325,-3.9884,-3.918,-3.8253,-3.7259,-3.6841,-3.6099,-3.4172,-3.4163,-3.4024,-3.2841,-3.1771,-3.0993,-3.0544,-2.921,-2.7999,-2.7312,-2.653,-2.5851,-2.5138,-2.4784,-2.4266,-2.3551,-2.3109,-2.2593,-2.1936,-2.0927,-2.0191,-1.9675,-1.9115,-1.8463,-1.7723,-1.7153,-1.6819,-1.6573,-1.6244,-1.5815,-2.4263,-2.6362,0.0,0.0,0.0,0.0,0.0,-4.5613,0.0,0.0,0.0,0.0,0.0,0.0,0.0,0.0,0.0,0.0,0.0,0.0,0.0,0.0,0.0,0.0,0.0,0.0,0.0,0.0,0.0,0.0,0.0,0.0,0.0,0.0,-4.8331,-4.7993,-4.7679,-4.7858,-4.7642,-4.7052,-4.7346,-4.776,-4.8186,-4.7444,-4.7051,-4.6875,-4.6035,-4.5742,-4.5946,-4.7027,-4.8,-4.8884,-4.9183,-4.8777,-4.8027,-4.7929,-4.7741,-4.7726,-4.8332,-4.8919,-4.9549,-5.0187,-5.0218,-4.9924,-4.9825,-4.9431,-4.8852,-4.7796,-4.792,-4.815,-4.701,-4.6292,-4.5564,-4.4246,-4.3207,-4.2188,-4.0534,-3.9613,-3.872,-3.7889,-3.7264,-3.6423,-3.4911,-3.4279,-3.3678,-3.2841,-3.2437,-3.1809,-3.0681,-2.921,-2.8114,-2.7621,-2.6856,-2.6102,-2.5203,-2.5014,-2.4543,-2.3536,-2.2924,-2.2338,-2.1854,-2.0859,-2.0047,-1.9357,-1.8722,-1.8127,-1.7723,-1.7322,-1.6918,-1.6573,-1.6031,-1.5462,-2.5927,0.0,0.0,0.0,0.0,0.0,0.0,0.0,0.0,0.0,0.0,0.0,0.0,0.0,0.0,0.0,0.0,0.0,0.0,0.0,0.0,0.0,0.0,0.0,0.0,0.0,0.0,0.0,0.0,0.0,0.0,0.0,0.0,0.0,-4.778,-4.7385,-4.6933,-4.7111,-4.6993,-4.6562,-4.6816,-4.7168,-4.7578,-4.7316,-4.7042,-4.6856,-4.5887,-4.5562,-4.5799,-4.6661,-4.7536,-4.8478,-4.8908,-4.8802,-4.8372,-4.8113,-4.7742,-4.7387,-4.7836,-4.8163,-4.8642,-4.9345,-4.9542,-4.9482,-4.929,-4.9017,-4.8603,-4.7693,-4.7755,-4.788,-4.672,-4.6521,-4.6264,-4.4956,-4.3973,-4.2973,-4.1534,-4.0409,-3.9426,-3.8452,-3.7639,-3.667,-3.525,-3.4464,-3.3872,-3.3266,-3.279,-3.1948,-3.0446,-2.9496,-2.871,-2.8173,-2.7385,-2.6531,-2.5798,-2.5329,-2.4698,-2.3788,-2.2846,-2.2202,-2.1846,-2.0767,-1.9943,-1.9381,-1.8675,-1.8213,-1.7873,-1.7235,-1.6844,-1.6573,-1.5845,-1.5156,0.0,0.0,0.0,0.0,0.0,0.0,0.0,0.0,0.0,0.0,0.0,0.0,0.0,0.0,0.0,0.0,0.0,0.0,0.0,0.0,0.0,0.0,0.0,0.0,0.0,0.0,0.0,0.0,0.0,0.0,0.0,0.0,0.0,0.0,-4.7435,-4.7258,-4.6875,-4.7297,-4.7278,0.0,-4.6816,-4.7012,-4.7383,-4.7424,-4.7209,-4.656,-4.5476,-4.5281,-4.5688,-4.6546,-4.7496,-4.8392,-4.8887,-4.8802,-4.8458,-4.8458,-4.7809,-4.7203,-4.801,-4.8029,-4.7817,-4.8647,-4.8879,-4.8819,-4.8524,-4.8314,-4.8086,-4.732,-4.732,-4.7258,-4.5954,-4.6264,-4.6737,-4.6131,-4.453,-4.305,-4.2527,-4.1479,-4.0246,-3.9033,-3.8103,-3.7043,-3.5423,-3.4808,-3.4348,-3.3889,-3.2808,-3.1548,-3.0205,-2.9987,-2.9632,-2.8939,-2.7881,-2.7117,-2.6696,-2.5767,-2.4805,-2.4075,-2.3022,-2.2214,-2.1829,-2.0665,-1.9901,-1.9611,-1.891,-1.8454,-1.8099,-1.7182,-1.6661,-1.6573,-1.5772,-1.5072,0.0,0.0,0.0,0.0,0.0,0.0,0.0,0.0,0.0,0.0,0.0,0.0,0.0,0.0,0.0,0.0,0.0,0.0,0.0,0.0,0.0,0.0,0.0,0.0,0.0,0.0,0.0,0.0,0.0,0.0,0.0,0.0,0.0,-4.6595,-4.5923,-4.5848,-4.6426,-4.62,-4.6044,0.0,-4.5937,-4.6044,-4.613,-4.6435,-4.5985,-4.4928,-4.498,-4.5078,-4.5183,-4.6125,-4.701,-4.7923,-4.8764,-4.9059,-4.8887,-4.8544,-4.8,-4.7528,-4.7366,-4.7249,-4.7194,-4.7423,-4.7403,-4.7548,-4.8253,-4.7879,-4.7361,-4.7506,-4.7113,-4.6409,-4.5395,-4.5561,-4.5785,-4.4904,-4.4432,-4.3905,-4.3129,-4.1927,-4.0913,-4.0579,-3.9343,-3.7981,-3.6726,-3.5768,-3.4682,-3.316,-3.221,-3.1444,-3.0875,-3.0515,-2.9986,-2.9282,-2.8469,-2.7634,-2.676,-2.5959,-2.5065,-2.4075,-2.3022,-2.2214,-2.1829,-2.0445,-1.968,-1.9611,-1.8868,-1.8341,-1.8099,-1.7623,-1.7087,-1.6573,-1.6038,-1.5353,0.0,0.0,0.0,0.0,0.0,0.0,0.0,0.0,0.0,0.0,0.0,0.0,0.0,0.0,0.0,0.0,0.0,0.0,0.0,0.0,0.0,0.0,0.0,0.0,0.0,0.0,0.0,0.0,0.0,0.0,0.0,-4.6461,-4.6152,-4.5718,-4.505,-4.4993,-4.5683,-4.5898,-4.612,-4.6271,-4.612,-4.5759,-4.5359,-4.5851,-4.5733,-4.532,-4.5058,-4.5222,-4.5712,-4.6181,-4.7086,-4.8102,-4.8539,-4.8873,-4.9038,-4.8555,-4.7891,-4.7045,-4.7028,-4.6556,-4.6086,-4.6556,-4.6989,-4.7403,-4.7651,-4.7548,-4.7341,-4.7609,-4.7212,-4.6524,-4.5816,-4.5982,-4.6028,-4.4935,-4.4659,-4.4485,-4.3546,-4.2474,-4.1589,-4.1153,-3.9943,-3.855,-3.7336,-3.6055,-3.4715,-3.32,-3.2469,-3.1773,-3.0805,-3.0514,-3.0138,-2.9384,-2.8671,-2.803,-2.7523,-2.6333,-2.521,-2.4305,-2.3039,-2.2021,-2.1364,-2.0386,-1.9761,-1.9611,-1.8743,-1.8218,-1.8099,-1.7628,-1.724,-1.6855,-1.6206,-1.5581,0.0,0.0,0.0,0.0,0.0,0.0,0.0,0.0,0.0,0.0,0.0,0.0,0.0,0.0,0.0,0.0,0.0,0.0,0.0,0.0,0.0,0.0,0.0,0.0,0.0,0.0,0.0,0.0,0.0,0.0,-4.5815,-4.5882,-4.5719,-4.4941,-4.4608,-4.4723,-4.5189,-4.6041,-4.6568,-4.6945,-4.64,-4.5872,-4.5359,-4.5678,-4.5962,-4.6194,-4.5624,-4.579,-4.6393,-4.6495,-4.7174,-4.8128,-4.8274,-4.8479,-4.879,-4.8396,-4.7567,-4.6537,-4.6866,-4.6167,-4.5267,-4.6041,-4.6803,-4.7382,-4.7339,-4.7381,-4.7547,-4.7912,-4.7448,-4.6804,-4.6484,-4.6674,-4.6598,-4.5424,-4.508,-4.4799,-4.3935,-4.2999,-4.2086,-4.1306,-4.0091,-3.8779,-3.7422,-3.5966,-3.4631,-3.3463,-3.2849,-3.2032,-3.0796,-3.0478,-3.0172,-2.9487,-2.8825,-2.8329,-2.8196,-2.6599,-2.5322,-2.4563,-2.3133,-2.1932,-2.1021,-2.0407,-1.9947,-1.9623,-1.8669,-1.8157,-1.8157,-1.758,-1.7261,-1.7261,-1.6563,-1.5943,0.0,0.0,0.0,0.0,0.0,0.0,0.0,0.0,0.0,0.0,0.0,0.0,0.0,0.0,0.0,0.0,0.0,0.0,0.0,0.0,0.0,0.0,0.0,0.0,0.0,0.0,0.0,0.0,0.0,0.0,-4.5576,-4.525,-4.4926,-4.4459,-4.4773,-4.5283,-4.6101,-4.6637,-4.6907,-4.6989,-4.6185,-4.6034,-4.6669,-4.6396,-4.6075,-4.5817,-4.6461,-4.6646,-4.6392,-4.6863,-4.7112,-4.7237,-4.7631,-4.7817,-4.7858,-4.7796,-4.7465,-4.6948,-4.6969,-4.637,-4.5667,-4.6122,-4.6161,-4.6319,-4.8141,-4.7656,-4.69,-4.8753,-4.7917,-4.6463,-4.6775,-4.658,-4.6279,-4.5655,-4.5216,-4.4877,-4.4324,-4.3187,-4.2175,-4.1771,-4.0063,-3.8232,-3.699,-3.5807,-3.4703,-3.3882,-3.2561,-3.1625,-3.1459,-3.0823,-3.0275,-2.9864,-2.9144,-2.8475,-2.7799,-2.645,-2.5322,-2.4563,-2.3133,-2.2091,-2.1709,-2.0641,-1.9946,-1.9724,-1.8924,-1.8559,-1.8559,-1.7909,-1.7655,-1.7588,-1.725,-1.6936,0.0,0.0,0.0,0.0,0.0,0.0,0.0,0.0,0.0,0.0,0.0,0.0,0.0,0.0,0.0,0.0,0.0,0.0,0.0,0.0,0.0,0.0,0.0,0.0,0.0,0.0,0.0,0.0,0.0,-4.6888,-4.4602,-4.5026,-4.4946,-4.4064,-4.4194,-4.4474,-4.4862,-4.6065,-4.6839,-4.7346,-4.768,-4.7381,-4.6606,-4.7474,-4.7293,-4.6432,-4.7143,-4.7325,-4.7106,-4.705,-4.7196,-4.7403,-4.7341,-4.7465,-4.7651,-4.7403,-4.703,-4.6658,-4.6658,-4.6524,-4.64,-4.6611,-4.6905,-4.7356,-4.8482,-4.7821,-4.7106,-4.8952,-4.8626,-4.777,-4.7691,-4.7849,-4.7677,-4.601,-4.5451,-4.5107,-4.4147,-4.3035,-4.1989,-4.1038,-3.9361,-3.7889,-3.7326,-3.6316,-3.5344,-3.4615,-3.3505,-3.2492,-3.161,-3.1286,-3.0754,-2.997,-2.9277,-2.8472,-2.7772,-2.6439,-2.5187,-2.4224,-2.3201,-2.2245,-2.127,-2.1133,-2.0678,-1.9804,-1.9105,-1.8631,-1.8496,-1.8105,-1.784,-1.7851,-1.7851,-1.7639,0.0,0.0,0.0,0.0,0.0,0.0,0.0,0.0,0.0,0.0,0.0,0.0,0.0,0.0,0.0,0.0,0.0,0.0,0.0,0.0,0.0,0.0,0.0,0.0,0.0,0.0,0.0,0.0,0.0,-4.6832,-4.418,-4.4924,-4.4885,-4.3588,-4.3751,-4.3808,-4.3691,-4.5576,-4.687,-4.7773,-4.8672,-4.8246,-4.6878,-4.8104,-4.8131,-4.7248,-4.7788,-4.7991,-4.7827,-4.7485,-4.7444,-4.7486,-4.7175,-4.7154,-4.7299,-4.6989,-4.6575,-4.6202,-4.6629,-4.6833,-4.6976,-4.734,-4.7928,-4.8533,-4.9174,-4.8488,-4.797,-4.9796,-4.9864,-4.9293,-4.8969,-4.9082,-4.8784,-4.6712,-4.5814,-4.4991,-4.3566,-4.2642,-4.1668,-4.0166,-3.8906,-3.7928,-3.7617,-3.6816,-3.5984,-3.5632,-3.4421,-3.3331,-3.2684,-3.2061,-3.1323,-3.0532,-2.9646,-2.8682,-2.7673,-2.6473,-2.5275,-2.4088,-2.3338,-2.2424,-2.1399,-2.1658,-2.1339,-2.0325,-1.9638,-1.9107,-1.8657,-1.8193,-1.8102,-1.8358,-1.8419,-1.8215,0.0,0.0,0.0,0.0,0.0,0.0,0.0,0.0,0.0,0.0,0.0,0.0,0.0,0.0,0.0,0.0,0.0,0.0,0.0,0.0,0.0,0.0,0.0,0.0,0.0,0.0,0.0,0.0,0.0,-4.6775,-4.4924,-4.4924,-4.4381,-4.3176,-4.3919,-4.4186,-4.3711,-4.5799,-4.7352,-4.8172,-4.7853,-4.788,-4.8087,-4.7858,-4.7768,-4.7701,-4.8609,-4.879,-4.8376,-4.8334,-4.7817,-4.7072,-4.7051,-4.6782,-4.6328,-4.6308,-4.6099,-4.5927,-4.7544,-4.7547,-4.7168,-4.8664,-4.8915,-4.8875,-5.0543,-5.017,-4.967,-5.1838,-5.157,-5.0607,-5.0483,-4.9679,-4.8698,-4.8014,-4.6385,-4.4503,-4.277,-4.2011,-4.1121,-3.9485,-3.907,-3.8646,-3.7524,-3.672,-3.6406,-3.7006,-3.4602,-3.3476,-3.552,-3.3345,-3.1685,-3.1977,-3.0735,-2.9135,-2.7364,-2.6535,-2.5633,-2.4524,-2.3475,-2.2859,-2.2777,-2.2173,-2.1632,-2.134,-2.1006,-2.0323,-1.9378,-1.8469,-1.848,-1.9287,-1.8711,-1.8806,0.0,0.0,0.0,0.0,0.0,0.0,0.0,0.0,0.0,0.0,0.0,0.0,0.0,0.0,0.0,0.0,0.0,0.0,0.0,0.0,0.0,0.0,0.0,0.0,0.0,0.0,0.0,0.0,0.0,0.0,-4.4295,-4.4132,-4.3965,-4.3546,-4.3546,-4.3628,-4.3711,-4.476,-4.5739,-4.6548,-4.7525,-4.7817,-4.7443,-4.8519,-4.8695,-4.8199,-4.8802,-4.8976,-4.879,-4.85,-4.8003,-4.7424,-4.7154,-4.7066,-4.7052,-4.6509,-4.6566,-4.6922,-4.701,-4.7697,-4.8652,-4.8808,-4.9323,-5.0079,-5.1217,-5.025,-4.9139,-5.103,-5.1076,-5.0405,-5.0191,-5.0145,-4.9691,-4.7604,-4.5696,-4.4084,-4.2867,-4.2145,-4.122,-3.9798,-3.9278,-3.895,-3.8216,-3.7443,-3.6988,-3.7183,-3.5859,-3.5046,-3.5566,-3.4103,-3.3077,-3.3215,-3.1201,-2.9642,-2.9017,-2.7414,-2.6184,-2.5528,-2.4703,-2.4136,-2.3841,-2.3386,-2.303,-2.2717,-2.1904,-2.0955,-1.9801,-1.9241,-1.9104,-1.9232,-1.9286,-1.9366,-2.4573,0.0,0.0,0.0,0.0,0.0,0.0,0.0,0.0,0.0,0.0,0.0,0.0,0.0,0.0,0.0,0.0,0.0,0.0,0.0,0.0,0.0,0.0,0.0,0.0,0.0,0.0,0.0,0.0,0.0,-4.4432,-4.3793,-4.338,-4.3029,-4.2754,-4.2754,-4.3029,-4.3911,-4.4653,-4.525,-4.6722,-4.7092,-4.6634,-4.8122,-4.8449,-4.7976,-4.874,-4.9059,-4.9038,-4.8728,-4.8334,-4.7879,-4.7589,-4.7442,-4.7364,-4.6737,-4.6691,-4.7002,-4.731,-4.828,-4.9496,-4.9878,-5.0605,-5.1517,-5.184,-5.0912,-4.9996,-5.1134,-5.109,-5.0681,-5.0223,-4.9986,-4.9268,-4.678,-4.5256,-4.4142,-4.3236,-4.2322,-4.1302,-4.0164,-3.9829,-3.9381,-3.8544,-3.8414,-3.8197,-3.7459,-3.7004,-3.6578,-3.6055,-3.4831,-3.3831,-3.3641,-3.1599,-3.0083,-2.96,-2.819,-2.7085,-2.6283,-2.5673,-2.517,-2.4805,-2.4302,-2.3927,-2.3719,-2.2862,-2.1898,-2.0846,-2.0088,-1.9678,-1.9679,-1.9862,-1.9796,0.0,0.0,0.0,0.0,0.0,0.0,0.0,0.0,0.0,0.0,0.0,0.0,0.0,0.0,0.0,0.0,0.0,0.0,0.0,0.0,0.0,0.0,0.0,0.0,0.0,0.0,0.0,0.0,0.0,-4.6968,-4.5596,-4.4001,-4.2614,-4.176,-4.1705,-4.1723,-4.1695,-4.3414,-4.4351,-4.437,-4.522,-4.5669,-4.571,-4.6595,-4.6997,-4.7103,-4.851,-4.9059,-4.9059,-4.9059,-4.879,-4.8376,-4.8376,-4.7838,-4.7051,-4.7051,-4.6471,-4.6087,-4.8553,-4.9418,-4.9711,-5.1709,-5.2681,-5.2956,-5.2427,-5.2259,-5.2235,-5.2235,-5.185,-5.1321,-5.0816,-4.9132,-4.7209,-4.5797,-4.5084,-4.4506,-4.3667,-4.2575,-4.1462,-4.0597,-4.0601,-4.0124,-3.8247,-3.9519,-4.0104,-3.8069,-3.8044,-3.8017,-3.7274,-3.55,-3.4057,-3.3345,-3.1894,-3.0435,-2.9017,-2.8844,-2.8193,-2.6748,-2.6313,-2.5976,-2.5554,-2.4805,-2.4428,-2.4442,-2.3826,-2.3183,-2.2593,-2.0846,-2.0319,-2.0773,-2.0253,-1.9891,-2.2979,0.0,0.0,0.0,0.0,0.0,0.0,0.0,0.0,0.0,0.0,0.0,0.0,0.0,0.0,0.0,0.0,0.0,0.0,0.0,0.0,0.0,0.0,0.0,0.0,0.0,0.0,0.0,-4.657,-4.6041,-4.382,-4.2712,-4.2053,-4.1681,-4.1718,-4.1684,-4.1695,-4.2496,-4.3081,-4.3482,-4.4327,-4.496,-4.5294,-4.6106,-4.6826,-4.7528,-4.8253,-4.8802,-4.9059,-4.9059,-4.879,-4.8376,-4.8376,-4.8442,-4.8291,-4.7319,-4.7273,-4.7508,-4.7297,-4.8223,-4.9585,-5.0439,-5.1332,-5.2061,-5.2234,-5.1754,-5.1129,-5.1129,-5.0744,-5.0146,-4.9416,-4.8425,-4.7333,-4.6407,-4.5257,-4.4093,-4.3573,-4.3413,-4.297,-4.1823,-4.1665,-4.1188,-3.9414,-3.9318,-3.9371,-3.9075,-3.815,-3.7702,-3.8309,-3.6514,-3.5016,-3.449,-3.2596,-3.1243,-3.0771,-2.9536,-2.8625,-2.8125,-2.727,-2.6885,-2.6979,-2.5825,-2.5426,-2.5939,-2.4535,-2.4006,-2.4299,-2.2176,-2.085,-2.0203,-1.9793,-1.9418,-2.3404,-2.3663,-2.4361,0.0,0.0,0.0,0.0,0.0,0.0,0.0,0.0,0.0,0.0,0.0,0.0,0.0,0.0,0.0,0.0,0.0,0.0,0.0,0.0,0.0,0.0,0.0,0.0,-4.5661,-4.5873,-4.484,-4.2069,-4.135,-4.109,-4.1181,-4.1368,-4.1472,-4.1462,-4.2318,-4.2754,-4.2818,-4.3651,-4.4268,-4.4537,-4.5743,-4.6651,-4.7179,-4.8257,-4.8887,-4.9059,-4.9059,-4.8914,-4.8666,-4.8666,-4.8713,-4.8692,-4.8501,-4.8164,-4.7867,-4.8538,-4.8986,-4.9418,-5.0634,-5.132,-5.1723,-5.2186,-5.185,-5.1321,-5.1105,-5.0102,-4.9015,-4.8214,-4.7454,-4.6636,-4.5962,-4.5027,-4.4294,-4.3817,-4.3764,-4.3677,-4.3022,-4.3236,-4.2981,-4.1156,-4.07,-4.024,-3.9131,-3.8685,-3.83,-3.8004,-3.6669,-3.5483,-3.4752,-3.2983,-3.1771,-3.1559,-3.0298,-2.9289,-2.8979,-2.8233,-2.7716,-2.7608,-2.6567,-2.6176,-2.6523,-2.5469,-2.5002,-2.5244,-2.3034,-2.1332,-2.0,-1.9678,-1.9261,-2.4532,-2.4648,-2.5395,0.0,0.0,0.0,-2.8408,-2.8642,-2.8882,0.0,0.0,0.0,0.0,0.0,0.0,0.0,0.0,0.0,0.0,0.0,0.0,0.0,0.0,0.0,0.0,0.0,-4.5581,-4.5431,-4.4727,-4.3241,-4.0667,-4.0095,-4.0068,-4.0465,-4.0777,-4.1016,-4.1145,-4.2364,-4.2799,-4.2485,-4.3297,-4.3711,-4.3813,-4.5473,-4.6293,-4.6562,-4.8264,-4.9017,-4.9059,-4.9059,-4.9059,-4.9059,-4.9059,-4.881,-4.8607,-4.9782,-4.8897,-4.7666,-5.0724,-5.049,-4.9217,-5.1408,-5.1879,-5.1747,-5.2137,-5.2235,-5.2091,-5.1562,-4.9795,-4.7907,-4.7148,-4.6329,-4.5611,-4.4934,-4.4752,-4.4635,-4.4301,-4.3952,-4.3817,-4.4181,-4.4968,-4.4957,-4.3015,-4.2812,-4.1844,-3.8883,-3.9268,-3.9122,-3.7074,-3.6444,-3.5686,-3.4544,-3.3125,-3.2052,-3.163,-3.0939,-3.0228,-2.9441,-2.8995,-2.8418,-2.7768,-2.7094,-2.6693,-2.6723,-2.6394,-2.6076,-2.5702,-2.3636,-2.1833,-2.0298,-1.9889,-1.9357,0.0,0.0,0.0,0.0,0.0,0.0,-2.7228,-2.8088,-2.9288,0.0,0.0,0.0,0.0,0.0,0.0,0.0,0.0,0.0,0.0,0.0,0.0,0.0,0.0,0.0,0.0,0.0,-4.3388,-4.1616,-4.111,-4.0741,-4.0531,-3.9805,-3.9757,-4.0514,-4.0228,-4.0562,-4.1612,-4.1895,-4.2392,-4.2985,-4.3463,-4.3876,-4.4307,-4.4925,-4.5864,-4.6961,-4.7701,-4.8387,-4.9059,-4.9059,-4.9059,-4.9059,-4.9059,-4.9017,-4.8979,-4.8838,-4.8693,-4.8662,-4.893,-4.9372,-4.9919,-5.0361,-5.081,-5.1208,-5.1673,-5.1752,-5.1537,-5.1008,-4.9511,-4.7838,-4.6715,-4.6132,-4.5596,-4.4875,-4.4473,-4.4187,-4.4114,-4.4315,-4.4811,-4.5837,-4.5523,-4.4909,-4.4161,-4.2938,-4.1542,-3.9983,-3.8908,-3.8153,-3.7746,-3.6784,-3.5746,-3.4511,-3.3635,-3.2701,-3.17,-3.1489,-3.0922,-2.9855,-2.9441,-2.8995,-2.8491,-2.7819,-2.7479,-2.7479,-2.7144,-2.6822,-2.6389,-2.4354,-2.2767,-2.1686,-2.0734,-1.9705,0.0,0.0,0.0,-2.6935,0.0,0.0,0.0,-2.8847,0.0,0.0,0.0,0.0,0.0,0.0,0.0,0.0,0.0,0.0,0.0,0.0,0.0,0.0,0.0,0.0,0.0,0.0,-4.1158,-3.991,-3.916,-3.8671,-3.8629,-3.8436,-3.8654,-3.9234,-3.9659,-4.0158,-4.0768,-4.1429,-4.2068,-4.2735,-4.3167,-4.3742,-4.439,-4.5075,-4.6014,-4.7149,-4.7768,-4.8475,-4.9059,-4.9059,-4.9059,-4.9059,-4.9059,-4.9059,-4.9124,-4.9639,-4.9446,-4.9139,-5.0183,-5.0174,-4.9895,-5.062,-5.0797,-5.0851,-5.174,-5.2182,-5.209,-5.0959,-4.9378,-4.7686,-4.6463,-4.5603,-4.4912,-4.4518,-4.4316,-4.4082,-4.3898,-4.4015,-4.4667,-4.6474,-4.619,-4.5654,-4.5594,-4.388,-4.2085,-4.0689,-3.9192,-3.8066,-3.7708,-3.6956,-3.6089,-3.5108,-3.4137,-3.3267,-3.249,-3.1962,-3.1277,-3.0496,-2.9926,-2.9441,-2.8995,-2.8308,-2.8051,-2.8279,-2.8248,-2.8302,-2.853,-2.6937,-2.495,-2.2635,-2.1588,-2.0132,0.0,0.0,0.0,0.0,0.0,-3.0542,0.0,0.0,0.0,0.0,0.0,0.0,0.0,0.0,0.0,0.0,0.0,0.0,0.0,0.0,0.0,0.0,0.0,0.0,0.0,0.0,-3.8604,-3.8819,-3.754,-3.6736,-3.6645,-3.7202,-3.7776,-3.8498,-3.956,-4.021,-4.0514,-4.1443,-4.203,-4.2436,-4.291,-4.3667,-4.4415,-4.5183,-4.6183,-4.7213,-4.7835,-4.8479,-4.9059,-4.8976,-4.8976,-4.9059,-4.9059,-4.9059,-4.923,-5.0316,-5.0055,-4.9489,-5.1577,-5.1075,-4.9769,-5.1106,-5.0974,-5.046,-5.1503,-5.2061,-5.2041,-5.0699,-4.8929,-4.7298,-4.6186,-4.5031,-4.418,-4.4096,-4.4109,-4.4088,-4.3801,-4.367,-4.4235,-4.6374,-4.6446,-4.6401,-4.707,-4.5107,-4.2905,-4.1289,-3.9698,-3.8366,-3.7474,-3.7009,-3.6535,-3.5762,-3.4642,-3.3837,-3.3429,-3.249,-3.1716,-3.1152,-3.0579,-3.0007,-2.9513,-2.8869,-2.8711,-2.901,-2.9357,-2.9857,-3.048,-2.9618,-2.7414,-2.3839,-2.2616,-2.0743,0.0,0.0,0.0,0.0,-3.1398,0.0,0.0,0.0,0.0,0.0,0.0,0.0,0.0,0.0,0.0,0.0,0.0,0.0,0.0,0.0,0.0,0.0,0.0,0.0,0.0,0.0,-3.5413,-3.6932,-3.5184,-3.4695,-3.6165,-3.7245,-3.8561,-4.0141,-4.0645,-4.1421,-4.2644,-4.2495,-4.239,-4.2409,-4.323,-4.3867,-4.4442,-4.4905,-4.5982,-4.7589,-4.7341,-4.79,-4.9038,-4.8624,-4.8686,-4.9059,-4.9059,-4.9059,-4.9144,-4.923,-4.9637,-5.0121,-5.0365,-5.0268,-5.0119,-5.0613,-5.0384,-5.0011,-4.9697,-4.9643,-4.972,-4.9499,-4.7935,-4.6161,-4.561,-4.4805,-4.4117,-4.3697,-4.3865,-4.4214,-4.4159,-4.3822,-4.4002,-4.534,-4.5556,-4.6205,-4.8261,-4.6141,-4.3718,-4.218,-4.0341,-3.8675,-3.7461,-3.7052,-3.6607,-3.619,-3.5067,-3.4191,-3.3855,-3.3376,-3.2631,-3.1593,-3.1473,-3.1076,-3.0316,-2.9894,-2.9718,-2.9806,-3.0114,-3.049,-3.0922,-3.0818,-2.9237,-2.6377,-2.4378,-2.1828,0.0,0.0,0.0,0.0,0.0,0.0,-3.1463,0.0,-3.1187,0.0,0.0,0.0,0.0,0.0,0.0,0.0,0.0,0.0,0.0,0.0,0.0,0.0,0.0,0.0,0.0,0.0,0.0,0.0,0.0,-3.4153,-3.5559,-3.7106,-3.8583,-3.9963,-4.0917,-4.1542,-4.1914,-4.2059,-4.223,-4.2372,-4.3033,-4.3957,-4.517,-4.5291,-4.627,-4.7651,-4.7217,-4.7485,-4.8325,-4.8374,-4.856,-4.8675,-4.8684,-4.8831,-4.9059,-4.9059,-4.9239,-4.9489,-4.9489,-4.9452,-4.9428,-4.9483,-4.9583,-4.9662,-4.9349,-4.9538,-4.9562,-4.8498,-4.7605,-4.6674,-4.5741,-4.5097,-4.4607,-4.4356,-4.4301,-4.4134,-4.3864,-4.3746,-4.3947,-4.5197,-4.5438,-4.5862,-4.7281,-4.5684,-4.3681,-4.2094,-4.0509,-3.9089,-3.785,-3.7387,-3.6913,-3.6281,-3.5355,-3.4595,-3.4251,-3.3693,-3.2977,-3.2299,-3.1815,-3.1354,-3.0755,-3.0379,-3.0395,-3.0899,-3.0832,-3.1248,-3.2312,-3.1874,-3.0925,-2.9496,-2.6433,-2.3125,-2.9082,0.0,0.0,0.0,0.0,0.0,0.0,0.0,0.0,0.0,0.0,0.0,0.0,0.0,-2.9277,-2.9114,0.0,0.0,0.0,0.0,0.0,0.0,0.0,0.0,0.0,0.0,0.0,0.0,-3.266,-3.3199,-3.4856,-3.6358,-3.7995,-3.9746,-4.0781,-4.1366,-4.1601,-4.1696,-4.2026,-4.2406,-4.2961,-4.4,-4.5351,-4.5596,-4.6291,-4.732,-4.6948,-4.7113,-4.7535,-4.7729,-4.8019,-4.822,-4.7976,-4.8227,-4.8686,-4.8686,-4.8777,-4.8826,-4.8826,-4.886,-4.8842,-4.8235,-4.8501,-4.8956,-4.8583,-4.8793,-4.8755,-4.7504,-4.7075,-4.6826,-4.588,-4.532,-4.4956,-4.4788,-4.453,-4.4174,-4.3718,-4.3615,-4.3829,-4.4766,-4.4921,-4.5106,-4.5704,-4.4828,-4.3623,-4.2399,-4.0901,-3.9493,-3.8428,-3.7865,-3.7236,-3.6417,-3.5614,-3.5028,-3.4678,-3.3971,-3.3374,-3.2917,-3.2356,-3.1861,-3.1337,-3.1119,-3.1264,-3.1716,-3.1599,-3.2091,-3.3303,-3.2823,-3.2351,-3.1797,-2.818,-2.4423,0.0,0.0,0.0,-3.0062,0.0,0.0,0.0,0.0,-3.2236,0.0,0.0,0.0,0.0,-3.009,-2.9732,-2.9719,-2.9316,0.0,0.0,0.0,0.0,0.0,0.0,0.0,0.0,0.0,0.0,-3.1358,-3.0417,-3.1088,-3.3901,-3.4942,-3.6904,-4.0065,-4.0343,-4.1208,-4.2895,-4.2191,-4.1974,-4.2447,-4.3279,-4.398,-4.4453,-4.531,-4.5963,-4.6475,-4.6331,-4.664,-4.7108,-4.67,-4.6927,-4.7651,-4.6794,-4.6961,-4.7734,-4.7734,-4.8002,-4.8337,-4.8337,-4.8581,-4.8591,-4.6972,-4.6972,-4.7512,-4.6629,-4.6407,-4.6428,-4.6326,-4.6096,-4.5764,-4.5744,-4.5333,-4.4877,-4.4401,-4.4298,-4.4174,-4.3718,-4.3615,-4.3615,-4.3635,-4.3691,-4.3691,-4.3691,-4.387,-4.3915,-4.3615,-4.1756,-4.0071,-3.9308,-3.8503,-3.7686,-3.6891,-3.607,-3.5394,-3.5028,-3.4569,-3.4053,-3.3329,-3.3245,-3.2891,-3.2086,-3.2453,-3.2453,-3.2086,-3.2456,-3.2844,-3.329,-3.3622,-3.3349,-3.2561,-2.9413,-2.581,0.0,0.0,-3.0601,-3.0719,0.0,0.0,0.0,0.0,0.0,0.0,0.0,0.0,0.0,-3.0354,-3.0092,-2.9526,-2.907,-2.842,0.0,0.0,0.0,0.0,0.0,0.0,0.0,0.0,0.0,-3.0648,-3.0121,-3.0917,0.0,-3.4463,-3.6203,-3.895,-3.9674,-4.0578,-4.1706,-4.1559,-4.1915,-4.2897,-4.3479,-4.4401,-4.5672,-4.596,-4.6188,-4.6372,-4.6066,-4.5799,-4.5744,-4.6205,-4.6388,-4.6397,-4.6365,-4.641,-4.643,-4.7069,-4.732,-4.7398,-4.7085,-4.7038,-4.7073,-4.6509,-4.6509,-4.6649,-4.6428,-4.6266,-4.6266,-4.6266,-4.6244,-4.6119,-4.6119,-4.5995,-4.5768,-4.5333,-4.5229,-4.5018,-4.4252,-4.4058,-4.3967,-4.3677,-4.3615,-4.3615,-4.3615,-4.3398,-4.3276,-4.3249,-4.1854,-4.0706,-4.0122,-3.9093,-3.8116,-3.727,-3.646,-3.5851,-3.5407,-3.4803,-3.4292,-3.407,-3.3792,-3.3436,-3.2926,-3.302,-3.2918,-3.2473,-3.2309,-3.2608,-3.3214,-3.3076,-3.3256,-3.375,-3.1437,-2.792,-3.0447,-3.0614,0.0,-3.1013,-3.0806,0.0,-3.107,0.0,0.0,0.0,0.0,0.0,0.0,-3.0766,-3.0114,-2.9799,-2.901,-2.8105,0.0,-2.7312,0.0,0.0,0.0,0.0,0.0,0.0,-2.9451,-3.0258,-2.9813,-3.0622,0.0,0.0,-3.5381,-3.8165,-3.8537,-3.938,-4.0833,-4.0813,-4.1383,-4.2657,-4.3258,-4.4159,-4.539,-4.5717,-4.5861,-4.5875,-4.5737,-4.5448,-4.5044,-4.5792,-4.5956,-4.5684,-4.5672,-4.5715,-4.5736,-4.6371,-4.6619,-4.674,-4.637,-4.6266,-4.6266,-4.6266,-4.6266,-4.6266,-4.6266,-4.6266,-4.6266,-4.6266,-4.6266,-4.6266,-4.6266,-4.6266,-4.6244,-4.5788,-4.5685,-4.5495,-4.4753,-4.4571,-4.4437,-4.4153,-4.3931,-4.3828,-4.3863,-4.347,-4.3187,-4.3192,-4.2145,-4.1229,-4.1003,-3.9726,-3.8552,-3.7667,-3.6887,-3.6146,-3.5407,-3.4803,-3.4439,-3.4439,-3.4355,-3.4082,-3.3709,-3.3739,-3.3472,-3.286,-3.2442,-3.2576,-3.3218,-3.2963,-3.331,-3.414,-3.2419,-2.9568]}]]